<?xml version='1.0' encoding='UTF-8'?><gpx version="1.1" creator="JPX - https://github.com/jenetics/jpx" xmlns="http://www.topografix.com/GPX/1/1"><trk><trkseg><trkpt lat="43.6151298" lon="10.6259099"><ele>24.0</ele><time>2026-04-29T09:23:41.913Z</time></trkpt><trkpt lat="43.6150819" lon="10.6260164"><ele>24.0</ele><time>2026-04-29T09:23:46.92Z</time></trkpt><trkpt lat="43.6150417" lon="10.626102"><ele>24.0</ele><time>2026-04-29T09:23:48.919Z</time></trkpt><trkpt lat="43.6149755" lon="10.6261962"><ele>24.0</ele><time>2026-04-29T09:23:50.908Z</time></trkpt><trkpt lat="43.6149237" lon="10.6263023"><ele>24.0</ele><time>2026-04-29T09:23:52.907Z</time></trkpt><trkpt lat="43.6148725" lon="10.6264163"><ele>24.0</ele><time>2026-04-29T09:23:54.913Z</time></trkpt><trkpt lat="43.6148214" lon="10.6265368"><ele>24.0</ele><time>2026-04-29T09:23:56.915Z</time></trkpt><trkpt lat="43.6147739" lon="10.6266596"><ele>24.0</ele><time>2026-04-29T09:23:58.893Z</time></trkpt><trkpt lat="43.6146976" lon="10.6267204"><ele>24.0</ele><time>2026-04-29T09:24:00.909Z</time></trkpt><trkpt lat="43.6146045" lon="10.6266843"><ele>24.0</ele><time>2026-04-29T09:24:02.903Z</time></trkpt><trkpt lat="43.6145127" lon="10.6266227"><ele>24.0</ele><time>2026-04-29T09:24:04.904Z</time></trkpt><trkpt lat="43.6144268" lon="10.6265532"><ele>24.0</ele><time>2026-04-29T09:24:06.911Z</time></trkpt><trkpt lat="43.6143383" lon="10.6264789"><ele>24.0</ele><time>2026-04-29T09:24:08.908Z</time></trkpt><trkpt lat="43.6142562" lon="10.6264066"><ele>24.0</ele><time>2026-04-29T09:24:10.908Z</time></trkpt><trkpt lat="43.6141719" lon="10.6263358"><ele>24.0</ele><time>2026-04-29T09:24:12.905Z</time></trkpt><trkpt lat="43.6140941" lon="10.626263"><ele>24.0</ele><time>2026-04-29T09:24:14.908Z</time></trkpt><trkpt lat="43.6140051" lon="10.626185"><ele>24.0</ele><time>2026-04-29T09:24:16.912Z</time></trkpt><trkpt lat="43.6139117" lon="10.6261056"><ele>24.0</ele><time>2026-04-29T09:24:18.902Z</time></trkpt><trkpt lat="43.6138169" lon="10.6260329"><ele>24.0</ele><time>2026-04-29T09:24:20.904Z</time></trkpt><trkpt lat="43.6137224" lon="10.6259557"><ele>24.0</ele><time>2026-04-29T09:24:22.907Z</time></trkpt><trkpt lat="43.613626" lon="10.6258936"><ele>24.0</ele><time>2026-04-29T09:24:24.904Z</time></trkpt><trkpt lat="43.6135251" lon="10.6258221"><ele>24.0</ele><time>2026-04-29T09:24:26.907Z</time></trkpt><trkpt lat="43.6134165" lon="10.6257581"><ele>24.0</ele><time>2026-04-29T09:24:28.9Z</time></trkpt><trkpt lat="43.6133143" lon="10.6256858"><ele>24.0</ele><time>2026-04-29T09:24:30.897Z</time></trkpt><trkpt lat="43.6132227" lon="10.6256174"><ele>24.0</ele><time>2026-04-29T09:24:32.897Z</time></trkpt><trkpt lat="43.6131363" lon="10.6255383"><ele>24.0</ele><time>2026-04-29T09:24:34.896Z</time></trkpt><trkpt lat="43.6131108" lon="10.6254363"><ele>24.0</ele><time>2026-04-29T09:24:36.903Z</time></trkpt><trkpt lat="43.6131809" lon="10.6253016"><ele>24.0</ele><time>2026-04-29T09:24:38.9Z</time></trkpt><trkpt lat="43.6132244" lon="10.6252357"><ele>24.0</ele><time>2026-04-29T09:24:39.899Z</time></trkpt><trkpt lat="43.6133141" lon="10.6251137"><ele>24.0</ele><time>2026-04-29T09:24:41.903Z</time></trkpt><trkpt lat="43.6133604" lon="10.6250479"><ele>24.0</ele><time>2026-04-29T09:24:42.897Z</time></trkpt><trkpt lat="43.6134066" lon="10.6249829"><ele>24.0</ele><time>2026-04-29T09:24:43.896Z</time></trkpt><trkpt lat="43.6134912" lon="10.6248641"><ele>24.0</ele><time>2026-04-29T09:24:45.898Z</time></trkpt><trkpt lat="43.6135621" lon="10.6247359"><ele>24.0</ele><time>2026-04-29T09:24:47.896Z</time></trkpt><trkpt lat="43.6136399" lon="10.6246256"><ele>24.0</ele><time>2026-04-29T09:24:49.906Z</time></trkpt><trkpt lat="43.6137063" lon="10.6245095"><ele>24.0</ele><time>2026-04-29T09:24:51.903Z</time></trkpt><trkpt lat="43.6137626" lon="10.6244212"><ele>24.0</ele><time>2026-04-29T09:24:53.899Z</time></trkpt><trkpt lat="43.6138085" lon="10.6243499"><ele>23.833333333333332</ele><time>2026-04-29T09:24:55.911Z</time></trkpt><trkpt lat="43.6137832" lon="10.6242461"><ele>23.666666666666668</ele><time>2026-04-29T09:25:00.902Z</time></trkpt><trkpt lat="43.6137481" lon="10.6241633"><ele>23.5</ele><time>2026-04-29T09:25:02.907Z</time></trkpt><trkpt lat="43.6137064" lon="10.6240714"><ele>23.333333333333336</ele><time>2026-04-29T09:25:04.907Z</time></trkpt><trkpt lat="43.6136301" lon="10.6239866"><ele>23.166666666666668</ele><time>2026-04-29T09:25:06.908Z</time></trkpt><trkpt lat="43.61355" lon="10.6238919"><ele>23.0</ele><time>2026-04-29T09:25:08.906Z</time></trkpt><trkpt lat="43.6134716" lon="10.6238038"><ele>23.0</ele><time>2026-04-29T09:25:10.901Z</time></trkpt><trkpt lat="43.613392" lon="10.6237091"><ele>23.0</ele><time>2026-04-29T09:25:12.897Z</time></trkpt><trkpt lat="43.6133186" lon="10.6236087"><ele>23.0</ele><time>2026-04-29T09:25:14.892Z</time></trkpt><trkpt lat="43.6132395" lon="10.6235088"><ele>23.0</ele><time>2026-04-29T09:25:16.901Z</time></trkpt><trkpt lat="43.613151" lon="10.6234059"><ele>23.0</ele><time>2026-04-29T09:25:18.903Z</time></trkpt><trkpt lat="43.6130656" lon="10.6233076"><ele>23.0</ele><time>2026-04-29T09:25:20.903Z</time></trkpt><trkpt lat="43.6129817" lon="10.6232023"><ele>23.0</ele><time>2026-04-29T09:25:22.9Z</time></trkpt><trkpt lat="43.6128937" lon="10.6230834"><ele>23.0</ele><time>2026-04-29T09:25:24.903Z</time></trkpt><trkpt lat="43.6128108" lon="10.6229655"><ele>23.0</ele><time>2026-04-29T09:25:26.903Z</time></trkpt><trkpt lat="43.6127278" lon="10.6228428"><ele>22.799999999999997</ele><time>2026-04-29T09:25:28.896Z</time></trkpt><trkpt lat="43.6126476" lon="10.6227204"><ele>22.6</ele><time>2026-04-29T09:25:30.904Z</time></trkpt><trkpt lat="43.6125625" lon="10.6225985"><ele>22.4</ele><time>2026-04-29T09:25:32.891Z</time></trkpt><trkpt lat="43.6124758" lon="10.6224735"><ele>22.200000000000003</ele><time>2026-04-29T09:25:34.898Z</time></trkpt><trkpt lat="43.6124299" lon="10.6224125"><ele>22.0</ele><time>2026-04-29T09:25:35.911Z</time></trkpt><trkpt lat="43.6123802" lon="10.6223571"><ele>22.0</ele><time>2026-04-29T09:25:36.909Z</time></trkpt><trkpt lat="43.6122921" lon="10.6222424"><ele>22.0</ele><time>2026-04-29T09:25:38.911Z</time></trkpt><trkpt lat="43.6122202" lon="10.6221144"><ele>22.0</ele><time>2026-04-29T09:25:40.902Z</time></trkpt><trkpt lat="43.6121876" lon="10.622039"><ele>22.0</ele><time>2026-04-29T09:25:41.899Z</time></trkpt><trkpt lat="43.6121383" lon="10.6218846"><ele>22.0</ele><time>2026-04-29T09:25:43.91Z</time></trkpt><trkpt lat="43.6121102" lon="10.6217307"><ele>22.0</ele><time>2026-04-29T09:25:45.9Z</time></trkpt><trkpt lat="43.6121196" lon="10.6215676"><ele>22.0</ele><time>2026-04-29T09:25:47.904Z</time></trkpt><trkpt lat="43.6121658" lon="10.6214213"><ele>22.0</ele><time>2026-04-29T09:25:49.906Z</time></trkpt><trkpt lat="43.6122383" lon="10.6212992"><ele>22.0</ele><time>2026-04-29T09:25:51.912Z</time></trkpt><trkpt lat="43.6122824" lon="10.6212362"><ele>22.0</ele><time>2026-04-29T09:25:52.908Z</time></trkpt><trkpt lat="43.6123351" lon="10.6211832"><ele>22.285714285714285</ele><time>2026-04-29T09:25:53.908Z</time></trkpt><trkpt lat="43.6123913" lon="10.621142"><ele>22.57142857142857</ele><time>2026-04-29T09:25:54.897Z</time></trkpt><trkpt lat="43.6124511" lon="10.621104"><ele>22.857142857142854</ele><time>2026-04-29T09:25:55.898Z</time></trkpt><trkpt lat="43.6125132" lon="10.6210783"><ele>23.142857142857142</ele><time>2026-04-29T09:25:56.898Z</time></trkpt><trkpt lat="43.6125773" lon="10.6210623"><ele>23.428571428571427</ele><time>2026-04-29T09:25:57.904Z</time></trkpt><trkpt lat="43.6126473" lon="10.6210459"><ele>23.71428571428571</ele><time>2026-04-29T09:25:58.903Z</time></trkpt><trkpt lat="43.6127161" lon="10.62103"><ele>24.0</ele><time>2026-04-29T09:25:59.903Z</time></trkpt><trkpt lat="43.612785" lon="10.6210144"><ele>23.71428571428571</ele><time>2026-04-29T09:26:00.903Z</time></trkpt><trkpt lat="43.6128529" lon="10.620997"><ele>23.428571428571427</ele><time>2026-04-29T09:26:01.903Z</time></trkpt><trkpt lat="43.6129193" lon="10.6209762"><ele>23.142857142857142</ele><time>2026-04-29T09:26:02.899Z</time></trkpt><trkpt lat="43.6129851" lon="10.620943"><ele>22.857142857142854</ele><time>2026-04-29T09:26:03.9Z</time></trkpt><trkpt lat="43.6130453" lon="10.620888"><ele>22.57142857142857</ele><time>2026-04-29T09:26:04.9Z</time></trkpt><trkpt lat="43.6130867" lon="10.6208006"><ele>22.285714285714285</ele><time>2026-04-29T09:26:05.909Z</time></trkpt><trkpt lat="43.6130819" lon="10.6206973"><ele>22.0</ele><time>2026-04-29T09:26:06.908Z</time></trkpt><trkpt lat="43.6130464" lon="10.6205961"><ele>22.0</ele><time>2026-04-29T09:26:07.907Z</time></trkpt><trkpt lat="43.6129888" lon="10.6205137"><ele>22.0</ele><time>2026-04-29T09:26:08.903Z</time></trkpt><trkpt lat="43.612918" lon="10.6204574"><ele>22.0</ele><time>2026-04-29T09:26:09.908Z</time></trkpt><trkpt lat="43.612846" lon="10.620427"><ele>22.0</ele><time>2026-04-29T09:26:10.907Z</time></trkpt><trkpt lat="43.6127648" lon="10.6204116"><ele>22.0</ele><time>2026-04-29T09:26:11.91Z</time></trkpt><trkpt lat="43.6126858" lon="10.6204114"><ele>22.0</ele><time>2026-04-29T09:26:12.914Z</time></trkpt><trkpt lat="43.6126075" lon="10.6204213"><ele>22.333333333333332</ele><time>2026-04-29T09:26:13.917Z</time></trkpt><trkpt lat="43.6125379" lon="10.6204442"><ele>22.666666666666664</ele><time>2026-04-29T09:26:14.915Z</time></trkpt><trkpt lat="43.6124756" lon="10.6204734"><ele>23.0</ele><time>2026-04-29T09:26:15.905Z</time></trkpt><trkpt lat="43.6124123" lon="10.6204909"><ele>23.333333333333332</ele><time>2026-04-29T09:26:16.896Z</time></trkpt><trkpt lat="43.6123491" lon="10.6204902"><ele>23.666666666666668</ele><time>2026-04-29T09:26:17.899Z</time></trkpt><trkpt lat="43.6122305" lon="10.6204284"><ele>24.0</ele><time>2026-04-29T09:26:19.898Z</time></trkpt><trkpt lat="43.61218" lon="10.6203633"><ele>24.2</ele><time>2026-04-29T09:26:20.897Z</time></trkpt><trkpt lat="43.6121105" lon="10.6202198"><ele>24.4</ele><time>2026-04-29T09:26:22.897Z</time></trkpt><trkpt lat="43.6120756" lon="10.6200549"><ele>24.6</ele><time>2026-04-29T09:26:24.896Z</time></trkpt><trkpt lat="43.612064" lon="10.6198881"><ele>24.8</ele><time>2026-04-29T09:26:26.905Z</time></trkpt><trkpt lat="43.6120645" lon="10.6198008"><ele>25.0</ele><time>2026-04-29T09:26:27.907Z</time></trkpt><trkpt lat="43.6120696" lon="10.6196309"><ele>25.2</ele><time>2026-04-29T09:26:29.909Z</time></trkpt><trkpt lat="43.6120751" lon="10.6194714"><ele>25.4</ele><time>2026-04-29T09:26:31.904Z</time></trkpt><trkpt lat="43.6120794" lon="10.6193217"><ele>25.6</ele><time>2026-04-29T09:26:33.898Z</time></trkpt><trkpt lat="43.6120781" lon="10.6191772"><ele>25.8</ele><time>2026-04-29T09:26:35.902Z</time></trkpt><trkpt lat="43.612071" lon="10.6190263"><ele>26.0</ele><time>2026-04-29T09:26:37.9Z</time></trkpt><trkpt lat="43.6120608" lon="10.6188559"><ele>26.0</ele><time>2026-04-29T09:26:39.919Z</time></trkpt><trkpt lat="43.6120555" lon="10.6187639"><ele>26.0</ele><time>2026-04-29T09:26:40.917Z</time></trkpt><trkpt lat="43.6120502" lon="10.6186665"><ele>26.0</ele><time>2026-04-29T09:26:41.913Z</time></trkpt><trkpt lat="43.6120467" lon="10.6185655"><ele>26.0</ele><time>2026-04-29T09:26:42.907Z</time></trkpt><trkpt lat="43.6120475" lon="10.6184653"><ele>26.0</ele><time>2026-04-29T09:26:43.907Z</time></trkpt><trkpt lat="43.6120471" lon="10.6183644"><ele>26.0</ele><time>2026-04-29T09:26:44.926Z</time></trkpt><trkpt lat="43.61205" lon="10.6182635"><ele>26.0</ele><time>2026-04-29T09:26:45.902Z</time></trkpt><trkpt lat="43.6120493" lon="10.6181603"><ele>26.142857142857142</ele><time>2026-04-29T09:26:46.905Z</time></trkpt><trkpt lat="43.6120454" lon="10.6180594"><ele>26.28571428571429</ele><time>2026-04-29T09:26:47.898Z</time></trkpt><trkpt lat="43.6120381" lon="10.6179568"><ele>26.42857142857143</ele><time>2026-04-29T09:26:48.896Z</time></trkpt><trkpt lat="43.6120258" lon="10.6178626"><ele>26.57142857142857</ele><time>2026-04-29T09:26:49.898Z</time></trkpt><trkpt lat="43.6120069" lon="10.617767"><ele>26.714285714285715</ele><time>2026-04-29T09:26:50.9Z</time></trkpt><trkpt lat="43.6119872" lon="10.6176687"><ele>26.857142857142858</ele><time>2026-04-29T09:26:51.91Z</time></trkpt><trkpt lat="43.6119589" lon="10.6175724"><ele>27.0</ele><time>2026-04-29T09:26:52.908Z</time></trkpt><trkpt lat="43.6119225" lon="10.6174827"><ele>27.0</ele><time>2026-04-29T09:26:53.906Z</time></trkpt><trkpt lat="43.6118814" lon="10.6173949"><ele>27.0</ele><time>2026-04-29T09:26:54.911Z</time></trkpt><trkpt lat="43.6118377" lon="10.6173119"><ele>27.0</ele><time>2026-04-29T09:26:55.902Z</time></trkpt><trkpt lat="43.6117909" lon="10.6172347"><ele>27.0</ele><time>2026-04-29T09:26:56.9Z</time></trkpt><trkpt lat="43.6117449" lon="10.6171484"><ele>27.0</ele><time>2026-04-29T09:26:57.899Z</time></trkpt><trkpt lat="43.6116921" lon="10.6170663"><ele>27.0</ele><time>2026-04-29T09:26:58.897Z</time></trkpt><trkpt lat="43.6116437" lon="10.6169869"><ele>26.666666666666668</ele><time>2026-04-29T09:26:59.9Z</time></trkpt><trkpt lat="43.6115968" lon="10.616902"><ele>26.333333333333336</ele><time>2026-04-29T09:27:00.892Z</time></trkpt><trkpt lat="43.6115499" lon="10.6168197"><ele>26.0</ele><time>2026-04-29T09:27:01.897Z</time></trkpt><trkpt lat="43.6115012" lon="10.6167386"><ele>25.666666666666668</ele><time>2026-04-29T09:27:02.896Z</time></trkpt><trkpt lat="43.6114515" lon="10.6166567"><ele>25.333333333333336</ele><time>2026-04-29T09:27:03.897Z</time></trkpt><trkpt lat="43.6114048" lon="10.6165711"><ele>25.0</ele><time>2026-04-29T09:27:04.906Z</time></trkpt><trkpt lat="43.6113649" lon="10.6164844"><ele>25.000000000000004</ele><time>2026-04-29T09:27:05.896Z</time></trkpt><trkpt lat="43.6113356" lon="10.6163927"><ele>25.0</ele><time>2026-04-29T09:27:06.898Z</time></trkpt><trkpt lat="43.6113384" lon="10.6162994"><ele>25.0</ele><time>2026-04-29T09:27:07.897Z</time></trkpt><trkpt lat="43.6113711" lon="10.6162085"><ele>25.0</ele><time>2026-04-29T09:27:08.893Z</time></trkpt><trkpt lat="43.6114162" lon="10.6161221"><ele>25.000000000000004</ele><time>2026-04-29T09:27:09.905Z</time></trkpt><trkpt lat="43.6114658" lon="10.6160255"><ele>25.0</ele><time>2026-04-29T09:27:10.9Z</time></trkpt><trkpt lat="43.6115171" lon="10.6159242"><ele>24.833333333333336</ele><time>2026-04-29T09:27:11.899Z</time></trkpt><trkpt lat="43.6115624" lon="10.6158228"><ele>24.666666666666668</ele><time>2026-04-29T09:27:12.896Z</time></trkpt><trkpt lat="43.6116041" lon="10.615719"><ele>24.5</ele><time>2026-04-29T09:27:13.9Z</time></trkpt><trkpt lat="43.6116443" lon="10.6156142"><ele>24.333333333333336</ele><time>2026-04-29T09:27:14.906Z</time></trkpt><trkpt lat="43.6116855" lon="10.6155129"><ele>24.166666666666668</ele><time>2026-04-29T09:27:15.901Z</time></trkpt><trkpt lat="43.6117299" lon="10.6154087"><ele>24.0</ele><time>2026-04-29T09:27:16.896Z</time></trkpt><trkpt lat="43.6117722" lon="10.6152997"><ele>23.666666666666668</ele><time>2026-04-29T09:27:17.895Z</time></trkpt><trkpt lat="43.6118119" lon="10.6151912"><ele>23.333333333333332</ele><time>2026-04-29T09:27:18.896Z</time></trkpt><trkpt lat="43.6118493" lon="10.6150802"><ele>23.0</ele><time>2026-04-29T09:27:19.897Z</time></trkpt><trkpt lat="43.6118865" lon="10.6149709"><ele>22.666666666666664</ele><time>2026-04-29T09:27:20.902Z</time></trkpt><trkpt lat="43.6119236" lon="10.6148661"><ele>22.333333333333332</ele><time>2026-04-29T09:27:21.904Z</time></trkpt><trkpt lat="43.6119599" lon="10.6147648"><ele>22.0</ele><time>2026-04-29T09:27:22.907Z</time></trkpt><trkpt lat="43.6119964" lon="10.6146676"><ele>22.0</ele><time>2026-04-29T09:27:23.898Z</time></trkpt><trkpt lat="43.6120338" lon="10.6145676"><ele>22.0</ele><time>2026-04-29T09:27:24.93Z</time></trkpt><trkpt lat="43.6120712" lon="10.6144706"><ele>22.0</ele><time>2026-04-29T09:27:25.916Z</time></trkpt><trkpt lat="43.6121107" lon="10.6143713"><ele>22.0</ele><time>2026-04-29T09:27:26.916Z</time></trkpt><trkpt lat="43.6121494" lon="10.6142732"><ele>22.0</ele><time>2026-04-29T09:27:27.92Z</time></trkpt><trkpt lat="43.6121928" lon="10.6141755"><ele>22.0</ele><time>2026-04-29T09:27:28.913Z</time></trkpt><trkpt lat="43.6122345" lon="10.6140762"><ele>21.833333333333332</ele><time>2026-04-29T09:27:29.903Z</time></trkpt><trkpt lat="43.612272" lon="10.6139769"><ele>21.666666666666664</ele><time>2026-04-29T09:27:30.905Z</time></trkpt><trkpt lat="43.6123112" lon="10.6138792"><ele>21.5</ele><time>2026-04-29T09:27:31.906Z</time></trkpt><trkpt lat="43.6123491" lon="10.6137797"><ele>21.333333333333332</ele><time>2026-04-29T09:27:32.927Z</time></trkpt><trkpt lat="43.6123837" lon="10.6136788"><ele>21.166666666666668</ele><time>2026-04-29T09:27:33.912Z</time></trkpt><trkpt lat="43.6124225" lon="10.6135819"><ele>21.0</ele><time>2026-04-29T09:27:34.917Z</time></trkpt><trkpt lat="43.6124632" lon="10.6134841"><ele>20.5</ele><time>2026-04-29T09:27:35.903Z</time></trkpt><trkpt lat="43.6125027" lon="10.6133903"><ele>20.0</ele><time>2026-04-29T09:27:36.905Z</time></trkpt><trkpt lat="43.6125374" lon="10.6132933"><ele>19.5</ele><time>2026-04-29T09:27:37.906Z</time></trkpt><trkpt lat="43.6125744" lon="10.6131962"><ele>19.0</ele><time>2026-04-29T09:27:38.911Z</time></trkpt><trkpt lat="43.6126073" lon="10.6130958"><ele>18.5</ele><time>2026-04-29T09:27:39.927Z</time></trkpt><trkpt lat="43.6126425" lon="10.6129921"><ele>18.0</ele><time>2026-04-29T09:27:40.92Z</time></trkpt><trkpt lat="43.6126805" lon="10.612891"><ele>18.0</ele><time>2026-04-29T09:27:41.927Z</time></trkpt><trkpt lat="43.612716" lon="10.6127955"><ele>18.0</ele><time>2026-04-29T09:27:42.916Z</time></trkpt><trkpt lat="43.6127534" lon="10.6127005"><ele>18.0</ele><time>2026-04-29T09:27:43.923Z</time></trkpt><trkpt lat="43.6127916" lon="10.6126058"><ele>18.0</ele><time>2026-04-29T09:27:44.93Z</time></trkpt><trkpt lat="43.6128307" lon="10.6125171"><ele>18.0</ele><time>2026-04-29T09:27:45.913Z</time></trkpt><trkpt lat="43.6128655" lon="10.6124291"><ele>18.0</ele><time>2026-04-29T09:27:46.926Z</time></trkpt><trkpt lat="43.6129024" lon="10.6123408"><ele>18.42857142857143</ele><time>2026-04-29T09:27:47.916Z</time></trkpt><trkpt lat="43.6129388" lon="10.6122555"><ele>18.857142857142858</ele><time>2026-04-29T09:27:48.913Z</time></trkpt><trkpt lat="43.6129699" lon="10.6121684"><ele>19.285714285714285</ele><time>2026-04-29T09:27:49.92Z</time></trkpt><trkpt lat="43.6130037" lon="10.6120802"><ele>19.714285714285715</ele><time>2026-04-29T09:27:50.917Z</time></trkpt><trkpt lat="43.6130399" lon="10.6119924"><ele>20.142857142857142</ele><time>2026-04-29T09:27:51.911Z</time></trkpt><trkpt lat="43.6130808" lon="10.6119092"><ele>20.571428571428573</ele><time>2026-04-29T09:27:52.911Z</time></trkpt><trkpt lat="43.6131192" lon="10.6118221"><ele>21.0</ele><time>2026-04-29T09:27:53.907Z</time></trkpt><trkpt lat="43.6131603" lon="10.6117348"><ele>21.0</ele><time>2026-04-29T09:27:54.912Z</time></trkpt><trkpt lat="43.6131982" lon="10.6116424"><ele>21.0</ele><time>2026-04-29T09:27:55.917Z</time></trkpt><trkpt lat="43.6132358" lon="10.6115528"><ele>21.0</ele><time>2026-04-29T09:27:56.92Z</time></trkpt><trkpt lat="43.6132733" lon="10.6114641"><ele>21.0</ele><time>2026-04-29T09:27:57.911Z</time></trkpt><trkpt lat="43.6133119" lon="10.611376"><ele>21.0</ele><time>2026-04-29T09:27:58.921Z</time></trkpt><trkpt lat="43.6133526" lon="10.6112884"><ele>21.0</ele><time>2026-04-29T09:27:59.917Z</time></trkpt><trkpt lat="43.6133954" lon="10.6112037"><ele>20.857142857142858</ele><time>2026-04-29T09:28:00.909Z</time></trkpt><trkpt lat="43.6134343" lon="10.6111163"><ele>20.714285714285715</ele><time>2026-04-29T09:28:01.908Z</time></trkpt><trkpt lat="43.6134674" lon="10.6110255"><ele>20.57142857142857</ele><time>2026-04-29T09:28:02.9Z</time></trkpt><trkpt lat="43.6135053" lon="10.6109354"><ele>20.42857142857143</ele><time>2026-04-29T09:28:03.905Z</time></trkpt><trkpt lat="43.6135431" lon="10.6108489"><ele>20.285714285714285</ele><time>2026-04-29T09:28:04.926Z</time></trkpt><trkpt lat="43.6135824" lon="10.6107663"><ele>20.142857142857142</ele><time>2026-04-29T09:28:05.913Z</time></trkpt><trkpt lat="43.6136231" lon="10.610683"><ele>20.0</ele><time>2026-04-29T09:28:06.906Z</time></trkpt><trkpt lat="43.6136612" lon="10.6105987"><ele>19.857142857142858</ele><time>2026-04-29T09:28:07.912Z</time></trkpt><trkpt lat="43.6136971" lon="10.6105136"><ele>19.714285714285715</ele><time>2026-04-29T09:28:08.91Z</time></trkpt><trkpt lat="43.6137351" lon="10.6104299"><ele>19.57142857142857</ele><time>2026-04-29T09:28:09.919Z</time></trkpt><trkpt lat="43.6137727" lon="10.6103454"><ele>19.42857142857143</ele><time>2026-04-29T09:28:10.912Z</time></trkpt><trkpt lat="43.6138083" lon="10.61026"><ele>19.28571428571429</ele><time>2026-04-29T09:28:11.903Z</time></trkpt><trkpt lat="43.6138431" lon="10.6101802"><ele>19.142857142857142</ele><time>2026-04-29T09:28:12.905Z</time></trkpt><trkpt lat="43.6138769" lon="10.6101053"><ele>19.0</ele><time>2026-04-29T09:28:13.903Z</time></trkpt><trkpt lat="43.6139065" lon="10.6100273"><ele>19.0</ele><time>2026-04-29T09:28:14.901Z</time></trkpt><trkpt lat="43.6139555" lon="10.6098802"><ele>19.0</ele><time>2026-04-29T09:28:16.911Z</time></trkpt><trkpt lat="43.6139823" lon="10.6098002"><ele>19.0</ele><time>2026-04-29T09:28:17.918Z</time></trkpt><trkpt lat="43.6140135" lon="10.6097214"><ele>19.0</ele><time>2026-04-29T09:28:18.906Z</time></trkpt><trkpt lat="43.6140415" lon="10.6096394"><ele>19.0</ele><time>2026-04-29T09:28:19.907Z</time></trkpt><trkpt lat="43.6140725" lon="10.609557"><ele>19.0</ele><time>2026-04-29T09:28:20.913Z</time></trkpt><trkpt lat="43.6140991" lon="10.6094684"><ele>19.0</ele><time>2026-04-29T09:28:21.91Z</time></trkpt><trkpt lat="43.614129" lon="10.6093843"><ele>19.0</ele><time>2026-04-29T09:28:22.913Z</time></trkpt><trkpt lat="43.6141579" lon="10.6092987"><ele>19.0</ele><time>2026-04-29T09:28:23.905Z</time></trkpt><trkpt lat="43.6141868" lon="10.6092128"><ele>19.0</ele><time>2026-04-29T09:28:24.908Z</time></trkpt><trkpt lat="43.6142128" lon="10.609125"><ele>19.0</ele><time>2026-04-29T09:28:25.919Z</time></trkpt><trkpt lat="43.6142407" lon="10.609037"><ele>19.0</ele><time>2026-04-29T09:28:26.915Z</time></trkpt><trkpt lat="43.6142683" lon="10.60895"><ele>19.0</ele><time>2026-04-29T09:28:27.913Z</time></trkpt><trkpt lat="43.6142953" lon="10.6088626"><ele>19.0</ele><time>2026-04-29T09:28:28.919Z</time></trkpt><trkpt lat="43.6143269" lon="10.6087782"><ele>19.0</ele><time>2026-04-29T09:28:29.903Z</time></trkpt><trkpt lat="43.6143616" lon="10.6086951"><ele>19.0</ele><time>2026-04-29T09:28:30.918Z</time></trkpt><trkpt lat="43.6143935" lon="10.6086115"><ele>19.0</ele><time>2026-04-29T09:28:31.916Z</time></trkpt><trkpt lat="43.6144262" lon="10.6085298"><ele>19.0</ele><time>2026-04-29T09:28:32.924Z</time></trkpt><trkpt lat="43.6144625" lon="10.608451"><ele>19.0</ele><time>2026-04-29T09:28:33.915Z</time></trkpt><trkpt lat="43.6145021" lon="10.6083723"><ele>19.0</ele><time>2026-04-29T09:28:34.916Z</time></trkpt><trkpt lat="43.6145397" lon="10.6082962"><ele>19.0</ele><time>2026-04-29T09:28:35.917Z</time></trkpt><trkpt lat="43.614577" lon="10.6082179"><ele>18.857142857142858</ele><time>2026-04-29T09:28:36.911Z</time></trkpt><trkpt lat="43.6146174" lon="10.6081359"><ele>18.714285714285715</ele><time>2026-04-29T09:28:37.919Z</time></trkpt><trkpt lat="43.6146559" lon="10.6080513"><ele>18.571428571428573</ele><time>2026-04-29T09:28:38.918Z</time></trkpt><trkpt lat="43.6146916" lon="10.607968"><ele>18.42857142857143</ele><time>2026-04-29T09:28:39.923Z</time></trkpt><trkpt lat="43.6147264" lon="10.6078867"><ele>18.285714285714285</ele><time>2026-04-29T09:28:40.916Z</time></trkpt><trkpt lat="43.6147586" lon="10.6078024"><ele>18.142857142857146</ele><time>2026-04-29T09:28:41.919Z</time></trkpt><trkpt lat="43.6147887" lon="10.6077184"><ele>18.0</ele><time>2026-04-29T09:28:42.924Z</time></trkpt><trkpt lat="43.6148166" lon="10.6076331"><ele>17.857142857142858</ele><time>2026-04-29T09:28:43.913Z</time></trkpt><trkpt lat="43.6148495" lon="10.6075531"><ele>17.714285714285715</ele><time>2026-04-29T09:28:44.92Z</time></trkpt><trkpt lat="43.6148832" lon="10.6074733"><ele>17.57142857142857</ele><time>2026-04-29T09:28:45.938Z</time></trkpt><trkpt lat="43.6149177" lon="10.6073921"><ele>17.42857142857143</ele><time>2026-04-29T09:28:46.923Z</time></trkpt><trkpt lat="43.6149515" lon="10.6073059"><ele>17.285714285714285</ele><time>2026-04-29T09:28:47.916Z</time></trkpt><trkpt lat="43.6149869" lon="10.6072201"><ele>17.142857142857142</ele><time>2026-04-29T09:28:48.911Z</time></trkpt><trkpt lat="43.6150221" lon="10.6071363"><ele>17.0</ele><time>2026-04-29T09:28:49.912Z</time></trkpt><trkpt lat="43.6150563" lon="10.6070478"><ele>17.142857142857142</ele><time>2026-04-29T09:28:50.911Z</time></trkpt><trkpt lat="43.6150919" lon="10.6069609"><ele>17.285714285714285</ele><time>2026-04-29T09:28:51.911Z</time></trkpt><trkpt lat="43.6151258" lon="10.6068748"><ele>17.42857142857143</ele><time>2026-04-29T09:28:52.909Z</time></trkpt><trkpt lat="43.6151594" lon="10.6067861"><ele>17.57142857142857</ele><time>2026-04-29T09:28:53.92Z</time></trkpt><trkpt lat="43.6151947" lon="10.6066985"><ele>17.714285714285715</ele><time>2026-04-29T09:28:54.909Z</time></trkpt><trkpt lat="43.6152311" lon="10.6066133"><ele>17.857142857142858</ele><time>2026-04-29T09:28:55.92Z</time></trkpt><trkpt lat="43.6152689" lon="10.6065306"><ele>18.0</ele><time>2026-04-29T09:28:56.907Z</time></trkpt><trkpt lat="43.6153029" lon="10.6064476"><ele>18.000000000000004</ele><time>2026-04-29T09:28:57.904Z</time></trkpt><trkpt lat="43.6153338" lon="10.6063646"><ele>18.0</ele><time>2026-04-29T09:28:58.911Z</time></trkpt><trkpt lat="43.6153631" lon="10.6062814"><ele>18.0</ele><time>2026-04-29T09:28:59.91Z</time></trkpt><trkpt lat="43.6153931" lon="10.6061977"><ele>18.0</ele><time>2026-04-29T09:29:00.908Z</time></trkpt><trkpt lat="43.6154257" lon="10.6061158"><ele>18.0</ele><time>2026-04-29T09:29:01.898Z</time></trkpt><trkpt lat="43.6154585" lon="10.6060338"><ele>18.000000000000004</ele><time>2026-04-29T09:29:02.903Z</time></trkpt><trkpt lat="43.6154908" lon="10.6059522"><ele>18.0</ele><time>2026-04-29T09:29:03.913Z</time></trkpt><trkpt lat="43.6155222" lon="10.6058708"><ele>17.714285714285715</ele><time>2026-04-29T09:29:04.91Z</time></trkpt><trkpt lat="43.6155546" lon="10.6057865"><ele>17.42857142857143</ele><time>2026-04-29T09:29:05.906Z</time></trkpt><trkpt lat="43.6155876" lon="10.6057014"><ele>17.142857142857142</ele><time>2026-04-29T09:29:06.914Z</time></trkpt><trkpt lat="43.6156219" lon="10.6056188"><ele>16.857142857142858</ele><time>2026-04-29T09:29:07.907Z</time></trkpt><trkpt lat="43.6156539" lon="10.605535"><ele>16.57142857142857</ele><time>2026-04-29T09:29:08.908Z</time></trkpt><trkpt lat="43.6156847" lon="10.6054557"><ele>16.285714285714285</ele><time>2026-04-29T09:29:09.922Z</time></trkpt><trkpt lat="43.6157159" lon="10.6053741"><ele>16.0</ele><time>2026-04-29T09:29:10.906Z</time></trkpt><trkpt lat="43.6157497" lon="10.6052916"><ele>15.857142857142856</ele><time>2026-04-29T09:29:11.913Z</time></trkpt><trkpt lat="43.6157836" lon="10.6052072"><ele>15.714285714285712</ele><time>2026-04-29T09:29:12.914Z</time></trkpt><trkpt lat="43.6158179" lon="10.6051245"><ele>15.571428571428571</ele><time>2026-04-29T09:29:13.915Z</time></trkpt><trkpt lat="43.6158469" lon="10.6050392"><ele>15.428571428571427</ele><time>2026-04-29T09:29:14.906Z</time></trkpt><trkpt lat="43.6158763" lon="10.604955"><ele>15.285714285714285</ele><time>2026-04-29T09:29:15.91Z</time></trkpt><trkpt lat="43.6159081" lon="10.6048704"><ele>15.142857142857142</ele><time>2026-04-29T09:29:16.91Z</time></trkpt><trkpt lat="43.6159398" lon="10.6047866"><ele>15.0</ele><time>2026-04-29T09:29:17.909Z</time></trkpt><trkpt lat="43.6159704" lon="10.6047016"><ele>15.0</ele><time>2026-04-29T09:29:18.916Z</time></trkpt><trkpt lat="43.616003" lon="10.6046146"><ele>15.0</ele><time>2026-04-29T09:29:19.912Z</time></trkpt><trkpt lat="43.6160324" lon="10.6045281"><ele>15.0</ele><time>2026-04-29T09:29:20.906Z</time></trkpt><trkpt lat="43.6160608" lon="10.6044445"><ele>15.0</ele><time>2026-04-29T09:29:21.911Z</time></trkpt><trkpt lat="43.6160909" lon="10.6043642"><ele>15.0</ele><time>2026-04-29T09:29:22.904Z</time></trkpt><trkpt lat="43.6161236" lon="10.6042816"><ele>15.0</ele><time>2026-04-29T09:29:23.909Z</time></trkpt><trkpt lat="43.6161581" lon="10.6041997"><ele>15.0</ele><time>2026-04-29T09:29:24.906Z</time></trkpt><trkpt lat="43.616192" lon="10.6041164"><ele>14.857142857142858</ele><time>2026-04-29T09:29:25.923Z</time></trkpt><trkpt lat="43.6162253" lon="10.6040321"><ele>14.714285714285714</ele><time>2026-04-29T09:29:26.914Z</time></trkpt><trkpt lat="43.6162615" lon="10.6039454"><ele>14.571428571428571</ele><time>2026-04-29T09:29:27.916Z</time></trkpt><trkpt lat="43.6162947" lon="10.6038574"><ele>14.428571428571429</ele><time>2026-04-29T09:29:28.904Z</time></trkpt><trkpt lat="43.6163263" lon="10.6037716"><ele>14.285714285714285</ele><time>2026-04-29T09:29:29.906Z</time></trkpt><trkpt lat="43.6163577" lon="10.6036874"><ele>14.142857142857142</ele><time>2026-04-29T09:29:30.913Z</time></trkpt><trkpt lat="43.6163902" lon="10.6036021"><ele>14.0</ele><time>2026-04-29T09:29:31.913Z</time></trkpt><trkpt lat="43.6164216" lon="10.6035201"><ele>14.0</ele><time>2026-04-29T09:29:32.903Z</time></trkpt><trkpt lat="43.6164518" lon="10.6034379"><ele>14.0</ele><time>2026-04-29T09:29:33.905Z</time></trkpt><trkpt lat="43.6164821" lon="10.6033558"><ele>14.0</ele><time>2026-04-29T09:29:34.912Z</time></trkpt><trkpt lat="43.6165109" lon="10.6032707"><ele>14.0</ele><time>2026-04-29T09:29:35.908Z</time></trkpt><trkpt lat="43.6165408" lon="10.6031881"><ele>14.0</ele><time>2026-04-29T09:29:36.916Z</time></trkpt><trkpt lat="43.6165717" lon="10.6031067"><ele>14.0</ele><time>2026-04-29T09:29:37.907Z</time></trkpt><trkpt lat="43.6166009" lon="10.6030228"><ele>14.0</ele><time>2026-04-29T09:29:38.908Z</time></trkpt><trkpt lat="43.6166318" lon="10.6029408"><ele>14.0</ele><time>2026-04-29T09:29:39.922Z</time></trkpt><trkpt lat="43.6166639" lon="10.6028548"><ele>14.0</ele><time>2026-04-29T09:29:40.915Z</time></trkpt><trkpt lat="43.616696" lon="10.6027692"><ele>14.0</ele><time>2026-04-29T09:29:41.912Z</time></trkpt><trkpt lat="43.6167284" lon="10.6026851"><ele>14.0</ele><time>2026-04-29T09:29:42.907Z</time></trkpt><trkpt lat="43.6167619" lon="10.6026009"><ele>14.0</ele><time>2026-04-29T09:29:43.915Z</time></trkpt><trkpt lat="43.6167936" lon="10.6025124"><ele>14.0</ele><time>2026-04-29T09:29:44.907Z</time></trkpt><trkpt lat="43.6168192" lon="10.6024213"><ele>14.0</ele><time>2026-04-29T09:29:45.906Z</time></trkpt><trkpt lat="43.6168474" lon="10.6023354"><ele>14.0</ele><time>2026-04-29T09:29:46.914Z</time></trkpt><trkpt lat="43.6168751" lon="10.6022474"><ele>14.0</ele><time>2026-04-29T09:29:47.904Z</time></trkpt><trkpt lat="43.6169044" lon="10.6021579"><ele>14.0</ele><time>2026-04-29T09:29:48.91Z</time></trkpt><trkpt lat="43.6169383" lon="10.6020704"><ele>14.0</ele><time>2026-04-29T09:29:49.912Z</time></trkpt><trkpt lat="43.6169714" lon="10.6019879"><ele>14.0</ele><time>2026-04-29T09:29:50.922Z</time></trkpt><trkpt lat="43.6170064" lon="10.6019075"><ele>14.0</ele><time>2026-04-29T09:29:51.916Z</time></trkpt><trkpt lat="43.6170406" lon="10.6018235"><ele>14.0</ele><time>2026-04-29T09:29:52.915Z</time></trkpt><trkpt lat="43.6170763" lon="10.601744"><ele>14.0</ele><time>2026-04-29T09:29:53.916Z</time></trkpt><trkpt lat="43.6171145" lon="10.6016626"><ele>14.0</ele><time>2026-04-29T09:29:54.908Z</time></trkpt><trkpt lat="43.6171513" lon="10.6015774"><ele>14.0</ele><time>2026-04-29T09:29:55.912Z</time></trkpt><trkpt lat="43.6171864" lon="10.6014888"><ele>14.0</ele><time>2026-04-29T09:29:56.909Z</time></trkpt><trkpt lat="43.6172202" lon="10.6014058"><ele>14.0</ele><time>2026-04-29T09:29:57.909Z</time></trkpt><trkpt lat="43.6172549" lon="10.6013184"><ele>14.0</ele><time>2026-04-29T09:29:58.908Z</time></trkpt><trkpt lat="43.6172868" lon="10.6012305"><ele>14.0</ele><time>2026-04-29T09:29:59.904Z</time></trkpt><trkpt lat="43.6173214" lon="10.6011412"><ele>14.0</ele><time>2026-04-29T09:30:00.907Z</time></trkpt><trkpt lat="43.6173554" lon="10.6010523"><ele>14.0</ele><time>2026-04-29T09:30:01.905Z</time></trkpt><trkpt lat="43.6173915" lon="10.6009639"><ele>14.0</ele><time>2026-04-29T09:30:02.903Z</time></trkpt><trkpt lat="43.6174295" lon="10.6008763"><ele>14.0</ele><time>2026-04-29T09:30:03.903Z</time></trkpt><trkpt lat="43.617466" lon="10.6007929"><ele>14.0</ele><time>2026-04-29T09:30:04.903Z</time></trkpt><trkpt lat="43.6174981" lon="10.600706"><ele>14.0</ele><time>2026-04-29T09:30:05.906Z</time></trkpt><trkpt lat="43.6175326" lon="10.6006202"><ele>14.0</ele><time>2026-04-29T09:30:06.907Z</time></trkpt><trkpt lat="43.6175656" lon="10.6005258"><ele>14.0</ele><time>2026-04-29T09:30:07.929Z</time></trkpt><trkpt lat="43.6175996" lon="10.6004348"><ele>14.0</ele><time>2026-04-29T09:30:08.908Z</time></trkpt><trkpt lat="43.6176312" lon="10.6003509"><ele>14.0</ele><time>2026-04-29T09:30:09.912Z</time></trkpt><trkpt lat="43.6176635" lon="10.6002691"><ele>14.0</ele><time>2026-04-29T09:30:10.91Z</time></trkpt><trkpt lat="43.6176953" lon="10.6001826"><ele>14.0</ele><time>2026-04-29T09:30:11.91Z</time></trkpt><trkpt lat="43.6177315" lon="10.6001053"><ele>14.0</ele><time>2026-04-29T09:30:12.901Z</time></trkpt><trkpt lat="43.617766" lon="10.6000267"><ele>14.0</ele><time>2026-04-29T09:30:13.901Z</time></trkpt><trkpt lat="43.6177969" lon="10.5999419"><ele>14.0</ele><time>2026-04-29T09:30:14.911Z</time></trkpt><trkpt lat="43.6178259" lon="10.5998569"><ele>14.0</ele><time>2026-04-29T09:30:15.913Z</time></trkpt><trkpt lat="43.617858" lon="10.5997735"><ele>14.0</ele><time>2026-04-29T09:30:16.919Z</time></trkpt><trkpt lat="43.6178909" lon="10.5996908"><ele>14.0</ele><time>2026-04-29T09:30:17.915Z</time></trkpt><trkpt lat="43.6179239" lon="10.5996075"><ele>14.0</ele><time>2026-04-29T09:30:18.91Z</time></trkpt><trkpt lat="43.6179563" lon="10.5995261"><ele>14.0</ele><time>2026-04-29T09:30:19.908Z</time></trkpt><trkpt lat="43.617992" lon="10.5994454"><ele>14.0</ele><time>2026-04-29T09:30:20.904Z</time></trkpt><trkpt lat="43.618033" lon="10.59937"><ele>14.0</ele><time>2026-04-29T09:30:21.923Z</time></trkpt><trkpt lat="43.6180757" lon="10.5992911"><ele>14.0</ele><time>2026-04-29T09:30:22.906Z</time></trkpt><trkpt lat="43.6181233" lon="10.5992187"><ele>14.0</ele><time>2026-04-29T09:30:23.904Z</time></trkpt><trkpt lat="43.6181743" lon="10.5991563"><ele>14.0</ele><time>2026-04-29T09:30:24.899Z</time></trkpt><trkpt lat="43.618227" lon="10.5991031"><ele>14.0</ele><time>2026-04-29T09:30:25.903Z</time></trkpt><trkpt lat="43.6182834" lon="10.5990603"><ele>14.0</ele><time>2026-04-29T09:30:26.902Z</time></trkpt><trkpt lat="43.6183423" lon="10.599027"><ele>14.0</ele><time>2026-04-29T09:30:27.912Z</time></trkpt><trkpt lat="43.618404" lon="10.5990027"><ele>14.0</ele><time>2026-04-29T09:30:28.911Z</time></trkpt><trkpt lat="43.6184673" lon="10.5989951"><ele>14.0</ele><time>2026-04-29T09:30:29.919Z</time></trkpt><trkpt lat="43.6185309" lon="10.5990155"><ele>14.0</ele><time>2026-04-29T09:30:30.905Z</time></trkpt><trkpt lat="43.6185962" lon="10.599032"><ele>14.0</ele><time>2026-04-29T09:30:31.907Z</time></trkpt><trkpt lat="43.6186634" lon="10.5990456"><ele>14.0</ele><time>2026-04-29T09:30:32.908Z</time></trkpt><trkpt lat="43.6187363" lon="10.5990541"><ele>14.0</ele><time>2026-04-29T09:30:33.908Z</time></trkpt><trkpt lat="43.6188107" lon="10.5990408"><ele>14.0</ele><time>2026-04-29T09:30:34.902Z</time></trkpt><trkpt lat="43.6188864" lon="10.5990071"><ele>14.000000000000002</ele><time>2026-04-29T09:30:35.903Z</time></trkpt><trkpt lat="43.6189552" lon="10.5989577"><ele>14.0</ele><time>2026-04-29T09:30:36.898Z</time></trkpt><trkpt lat="43.6190081" lon="10.5988872"><ele>14.0</ele><time>2026-04-29T09:30:37.908Z</time></trkpt><trkpt lat="43.6190451" lon="10.5987971"><ele>14.0</ele><time>2026-04-29T09:30:38.908Z</time></trkpt><trkpt lat="43.619064" lon="10.5986908"><ele>14.000000000000002</ele><time>2026-04-29T09:30:39.914Z</time></trkpt><trkpt lat="43.6190651" lon="10.5985698"><ele>14.0</ele><time>2026-04-29T09:30:40.905Z</time></trkpt><trkpt lat="43.6190526" lon="10.5984569"><ele>14.000000000000002</ele><time>2026-04-29T09:30:41.9Z</time></trkpt><trkpt lat="43.619027" lon="10.5983475"><ele>14.0</ele><time>2026-04-29T09:30:42.904Z</time></trkpt><trkpt lat="43.6189864" lon="10.5982433"><ele>14.0</ele><time>2026-04-29T09:30:43.9Z</time></trkpt><trkpt lat="43.6189411" lon="10.5981508"><ele>14.0</ele><time>2026-04-29T09:30:44.904Z</time></trkpt><trkpt lat="43.6188935" lon="10.598065"><ele>14.000000000000002</ele><time>2026-04-29T09:30:45.906Z</time></trkpt><trkpt lat="43.6188497" lon="10.5979754"><ele>14.0</ele><time>2026-04-29T09:30:46.908Z</time></trkpt><trkpt lat="43.6188276" lon="10.5978685"><ele>14.000000000000002</ele><time>2026-04-29T09:30:47.902Z</time></trkpt><trkpt lat="43.6188244" lon="10.5977581"><ele>14.0</ele><time>2026-04-29T09:30:48.899Z</time></trkpt><trkpt lat="43.6188343" lon="10.5976506"><ele>14.0</ele><time>2026-04-29T09:30:49.907Z</time></trkpt><trkpt lat="43.6188479" lon="10.5975443"><ele>14.0</ele><time>2026-04-29T09:30:50.909Z</time></trkpt><trkpt lat="43.6188622" lon="10.5974407"><ele>14.000000000000002</ele><time>2026-04-29T09:30:51.914Z</time></trkpt><trkpt lat="43.6188734" lon="10.5973368"><ele>14.0</ele><time>2026-04-29T09:30:52.909Z</time></trkpt><trkpt lat="43.6188844" lon="10.5972327"><ele>14.0</ele><time>2026-04-29T09:30:53.909Z</time></trkpt><trkpt lat="43.6188972" lon="10.5971305"><ele>14.0</ele><time>2026-04-29T09:30:54.913Z</time></trkpt><trkpt lat="43.6189084" lon="10.5970274"><ele>14.0</ele><time>2026-04-29T09:30:55.924Z</time></trkpt><trkpt lat="43.6189189" lon="10.5969289"><ele>14.0</ele><time>2026-04-29T09:30:56.909Z</time></trkpt><trkpt lat="43.6189278" lon="10.5968287"><ele>14.0</ele><time>2026-04-29T09:30:57.911Z</time></trkpt><trkpt lat="43.6189397" lon="10.596729"><ele>14.0</ele><time>2026-04-29T09:30:58.91Z</time></trkpt><trkpt lat="43.6189542" lon="10.5966326"><ele>14.0</ele><time>2026-04-29T09:30:59.912Z</time></trkpt><trkpt lat="43.6189667" lon="10.5965328"><ele>14.0</ele><time>2026-04-29T09:31:00.908Z</time></trkpt><trkpt lat="43.6189789" lon="10.5964326"><ele>14.0</ele><time>2026-04-29T09:31:01.908Z</time></trkpt><trkpt lat="43.6189909" lon="10.5963313"><ele>14.0</ele><time>2026-04-29T09:31:02.909Z</time></trkpt><trkpt lat="43.619001" lon="10.5962294"><ele>14.0</ele><time>2026-04-29T09:31:03.909Z</time></trkpt><trkpt lat="43.6190107" lon="10.596132"><ele>14.0</ele><time>2026-04-29T09:31:04.91Z</time></trkpt><trkpt lat="43.6190193" lon="10.5960332"><ele>14.0</ele><time>2026-04-29T09:31:05.92Z</time></trkpt><trkpt lat="43.6190321" lon="10.595937"><ele>14.0</ele><time>2026-04-29T09:31:06.908Z</time></trkpt><trkpt lat="43.6190411" lon="10.5958379"><ele>14.0</ele><time>2026-04-29T09:31:07.934Z</time></trkpt><trkpt lat="43.6190518" lon="10.595738"><ele>14.0</ele><time>2026-04-29T09:31:08.91Z</time></trkpt><trkpt lat="43.6190613" lon="10.5956429"><ele>14.0</ele><time>2026-04-29T09:31:09.92Z</time></trkpt><trkpt lat="43.6190698" lon="10.5955435"><ele>14.0</ele><time>2026-04-29T09:31:10.914Z</time></trkpt><trkpt lat="43.6190798" lon="10.5954445"><ele>14.0</ele><time>2026-04-29T09:31:11.912Z</time></trkpt><trkpt lat="43.6190891" lon="10.59535"><ele>14.0</ele><time>2026-04-29T09:31:12.914Z</time></trkpt><trkpt lat="43.6191" lon="10.5952527"><ele>14.0</ele><time>2026-04-29T09:31:13.917Z</time></trkpt><trkpt lat="43.6191136" lon="10.5951542"><ele>14.0</ele><time>2026-04-29T09:31:14.911Z</time></trkpt><trkpt lat="43.6191281" lon="10.595059"><ele>14.0</ele><time>2026-04-29T09:31:15.928Z</time></trkpt><trkpt lat="43.6191432" lon="10.5949639"><ele>14.0</ele><time>2026-04-29T09:31:16.92Z</time></trkpt><trkpt lat="43.6191586" lon="10.5948673"><ele>14.0</ele><time>2026-04-29T09:31:17.912Z</time></trkpt><trkpt lat="43.6191752" lon="10.5947719"><ele>14.0</ele><time>2026-04-29T09:31:18.914Z</time></trkpt><trkpt lat="43.6191886" lon="10.5946764"><ele>14.0</ele><time>2026-04-29T09:31:19.91Z</time></trkpt><trkpt lat="43.6192018" lon="10.5945835"><ele>14.0</ele><time>2026-04-29T09:31:20.913Z</time></trkpt><trkpt lat="43.6192163" lon="10.5944875"><ele>14.0</ele><time>2026-04-29T09:31:21.912Z</time></trkpt><trkpt lat="43.6192319" lon="10.594394"><ele>14.0</ele><time>2026-04-29T09:31:22.917Z</time></trkpt><trkpt lat="43.6192477" lon="10.5943013"><ele>14.0</ele><time>2026-04-29T09:31:23.913Z</time></trkpt><trkpt lat="43.6192643" lon="10.5942098"><ele>14.0</ele><time>2026-04-29T09:31:24.911Z</time></trkpt><trkpt lat="43.6192809" lon="10.5941178"><ele>14.0</ele><time>2026-04-29T09:31:25.926Z</time></trkpt><trkpt lat="43.6192968" lon="10.5940254"><ele>14.0</ele><time>2026-04-29T09:31:26.912Z</time></trkpt><trkpt lat="43.6193099" lon="10.5939317"><ele>14.0</ele><time>2026-04-29T09:31:27.914Z</time></trkpt><trkpt lat="43.6193236" lon="10.5938398"><ele>14.0</ele><time>2026-04-29T09:31:28.913Z</time></trkpt><trkpt lat="43.6193401" lon="10.593746"><ele>14.0</ele><time>2026-04-29T09:31:29.913Z</time></trkpt><trkpt lat="43.6193577" lon="10.5936517"><ele>14.0</ele><time>2026-04-29T09:31:30.912Z</time></trkpt><trkpt lat="43.6193764" lon="10.5935624"><ele>14.0</ele><time>2026-04-29T09:31:31.91Z</time></trkpt><trkpt lat="43.6193938" lon="10.59347"><ele>14.0</ele><time>2026-04-29T09:31:32.912Z</time></trkpt><trkpt lat="43.6194135" lon="10.5933787"><ele>14.0</ele><time>2026-04-29T09:31:33.91Z</time></trkpt><trkpt lat="43.6194281" lon="10.5932829"><ele>14.0</ele><time>2026-04-29T09:31:34.915Z</time></trkpt><trkpt lat="43.6194445" lon="10.5931885"><ele>14.0</ele><time>2026-04-29T09:31:35.924Z</time></trkpt><trkpt lat="43.6194615" lon="10.593096"><ele>14.0</ele><time>2026-04-29T09:31:36.911Z</time></trkpt><trkpt lat="43.6194799" lon="10.5929993"><ele>14.0</ele><time>2026-04-29T09:31:37.912Z</time></trkpt><trkpt lat="43.6194999" lon="10.5929066"><ele>14.0</ele><time>2026-04-29T09:31:38.911Z</time></trkpt><trkpt lat="43.6195218" lon="10.5928163"><ele>14.0</ele><time>2026-04-29T09:31:39.913Z</time></trkpt><trkpt lat="43.6195421" lon="10.5927226"><ele>14.0</ele><time>2026-04-29T09:31:40.911Z</time></trkpt><trkpt lat="43.6195588" lon="10.5926313"><ele>14.0</ele><time>2026-04-29T09:31:41.911Z</time></trkpt><trkpt lat="43.6195765" lon="10.5925397"><ele>14.0</ele><time>2026-04-29T09:31:42.913Z</time></trkpt><trkpt lat="43.6195988" lon="10.5924484"><ele>14.0</ele><time>2026-04-29T09:31:43.914Z</time></trkpt><trkpt lat="43.6196174" lon="10.5923562"><ele>14.0</ele><time>2026-04-29T09:31:44.912Z</time></trkpt><trkpt lat="43.619635" lon="10.5922636"><ele>14.0</ele><time>2026-04-29T09:31:45.925Z</time></trkpt><trkpt lat="43.6196561" lon="10.5921743"><ele>14.0</ele><time>2026-04-29T09:31:46.918Z</time></trkpt><trkpt lat="43.6196773" lon="10.592081"><ele>14.0</ele><time>2026-04-29T09:31:47.913Z</time></trkpt><trkpt lat="43.6196987" lon="10.5919892"><ele>14.0</ele><time>2026-04-29T09:31:48.914Z</time></trkpt><trkpt lat="43.6197213" lon="10.5918972"><ele>14.0</ele><time>2026-04-29T09:31:49.912Z</time></trkpt><trkpt lat="43.6197433" lon="10.5918057"><ele>14.0</ele><time>2026-04-29T09:31:50.915Z</time></trkpt><trkpt lat="43.6197656" lon="10.5917153"><ele>14.0</ele><time>2026-04-29T09:31:51.914Z</time></trkpt><trkpt lat="43.6197881" lon="10.5916252"><ele>14.0</ele><time>2026-04-29T09:31:52.914Z</time></trkpt><trkpt lat="43.6198132" lon="10.5915363"><ele>14.0</ele><time>2026-04-29T09:31:53.927Z</time></trkpt><trkpt lat="43.6198336" lon="10.5914451"><ele>14.0</ele><time>2026-04-29T09:31:54.91Z</time></trkpt><trkpt lat="43.6198551" lon="10.591352"><ele>14.0</ele><time>2026-04-29T09:31:55.926Z</time></trkpt><trkpt lat="43.6198747" lon="10.5912566"><ele>14.0</ele><time>2026-04-29T09:31:56.913Z</time></trkpt><trkpt lat="43.6198988" lon="10.5911639"><ele>14.0</ele><time>2026-04-29T09:31:57.915Z</time></trkpt><trkpt lat="43.6199224" lon="10.5910758"><ele>14.0</ele><time>2026-04-29T09:31:58.912Z</time></trkpt><trkpt lat="43.6199472" lon="10.5909855"><ele>14.0</ele><time>2026-04-29T09:31:59.913Z</time></trkpt><trkpt lat="43.6199697" lon="10.5908958"><ele>14.0</ele><time>2026-04-29T09:32:00.914Z</time></trkpt><trkpt lat="43.6199932" lon="10.5908053"><ele>14.0</ele><time>2026-04-29T09:32:01.911Z</time></trkpt><trkpt lat="43.6200169" lon="10.5907137"><ele>14.0</ele><time>2026-04-29T09:32:02.91Z</time></trkpt><trkpt lat="43.6200384" lon="10.5906237"><ele>14.0</ele><time>2026-04-29T09:32:03.914Z</time></trkpt><trkpt lat="43.6200633" lon="10.590534"><ele>14.0</ele><time>2026-04-29T09:32:04.912Z</time></trkpt><trkpt lat="43.6200882" lon="10.5904427"><ele>14.0</ele><time>2026-04-29T09:32:05.924Z</time></trkpt><trkpt lat="43.6201143" lon="10.5903466"><ele>14.0</ele><time>2026-04-29T09:32:06.912Z</time></trkpt><trkpt lat="43.6201387" lon="10.5902548"><ele>14.0</ele><time>2026-04-29T09:32:07.909Z</time></trkpt><trkpt lat="43.6201619" lon="10.5901654"><ele>14.0</ele><time>2026-04-29T09:32:08.911Z</time></trkpt><trkpt lat="43.6201866" lon="10.5900741"><ele>14.0</ele><time>2026-04-29T09:32:09.915Z</time></trkpt><trkpt lat="43.6202109" lon="10.5899802"><ele>14.0</ele><time>2026-04-29T09:32:10.91Z</time></trkpt><trkpt lat="43.6202367" lon="10.5898882"><ele>14.0</ele><time>2026-04-29T09:32:11.91Z</time></trkpt><trkpt lat="43.6202621" lon="10.5897952"><ele>14.0</ele><time>2026-04-29T09:32:12.914Z</time></trkpt><trkpt lat="43.6202885" lon="10.5897043"><ele>14.0</ele><time>2026-04-29T09:32:13.91Z</time></trkpt><trkpt lat="43.6203132" lon="10.5896101"><ele>14.0</ele><time>2026-04-29T09:32:14.912Z</time></trkpt><trkpt lat="43.6203361" lon="10.5895194"><ele>14.0</ele><time>2026-04-29T09:32:15.913Z</time></trkpt><trkpt lat="43.6203582" lon="10.5894229"><ele>14.0</ele><time>2026-04-29T09:32:16.914Z</time></trkpt><trkpt lat="43.62038" lon="10.5893271"><ele>13.714285714285714</ele><time>2026-04-29T09:32:17.912Z</time></trkpt><trkpt lat="43.6204044" lon="10.5892326"><ele>13.428571428571429</ele><time>2026-04-29T09:32:18.913Z</time></trkpt><trkpt lat="43.6204307" lon="10.5891426"><ele>13.142857142857142</ele><time>2026-04-29T09:32:19.911Z</time></trkpt><trkpt lat="43.6204533" lon="10.589048"><ele>12.857142857142858</ele><time>2026-04-29T09:32:20.913Z</time></trkpt><trkpt lat="43.620477" lon="10.588956"><ele>12.571428571428571</ele><time>2026-04-29T09:32:21.914Z</time></trkpt><trkpt lat="43.6205016" lon="10.5888631"><ele>12.285714285714285</ele><time>2026-04-29T09:32:22.913Z</time></trkpt><trkpt lat="43.620525" lon="10.5887719"><ele>12.0</ele><time>2026-04-29T09:32:23.912Z</time></trkpt><trkpt lat="43.6205492" lon="10.5886831"><ele>11.999999999999998</ele><time>2026-04-29T09:32:24.915Z</time></trkpt><trkpt lat="43.6205703" lon="10.5885887"><ele>12.0</ele><time>2026-04-29T09:32:25.913Z</time></trkpt><trkpt lat="43.6205912" lon="10.5884915"><ele>12.0</ele><time>2026-04-29T09:32:26.909Z</time></trkpt><trkpt lat="43.6206164" lon="10.5883968"><ele>12.0</ele><time>2026-04-29T09:32:27.914Z</time></trkpt><trkpt lat="43.6206388" lon="10.5883008"><ele>12.0</ele><time>2026-04-29T09:32:28.917Z</time></trkpt><trkpt lat="43.6206626" lon="10.588205"><ele>11.999999999999998</ele><time>2026-04-29T09:32:29.915Z</time></trkpt><trkpt lat="43.620685" lon="10.58811"><ele>12.0</ele><time>2026-04-29T09:32:30.908Z</time></trkpt><trkpt lat="43.6207096" lon="10.5880148"><ele>11.999999999999998</ele><time>2026-04-29T09:32:31.912Z</time></trkpt><trkpt lat="43.6207321" lon="10.587921"><ele>12.0</ele><time>2026-04-29T09:32:32.912Z</time></trkpt><trkpt lat="43.6207555" lon="10.5878243"><ele>12.0</ele><time>2026-04-29T09:32:33.911Z</time></trkpt><trkpt lat="43.6207794" lon="10.5877278"><ele>12.0</ele><time>2026-04-29T09:32:34.91Z</time></trkpt><trkpt lat="43.6208077" lon="10.5876323"><ele>12.0</ele><time>2026-04-29T09:32:35.91Z</time></trkpt><trkpt lat="43.6208347" lon="10.5875386"><ele>11.999999999999998</ele><time>2026-04-29T09:32:36.91Z</time></trkpt><trkpt lat="43.6208605" lon="10.5874439"><ele>12.0</ele><time>2026-04-29T09:32:37.91Z</time></trkpt><trkpt lat="43.6208865" lon="10.5873513"><ele>11.999999999999998</ele><time>2026-04-29T09:32:38.911Z</time></trkpt><trkpt lat="43.6209123" lon="10.5872604"><ele>12.0</ele><time>2026-04-29T09:32:39.912Z</time></trkpt><trkpt lat="43.6209353" lon="10.5871656"><ele>12.0</ele><time>2026-04-29T09:32:40.911Z</time></trkpt><trkpt lat="43.6209586" lon="10.5870728"><ele>12.0</ele><time>2026-04-29T09:32:41.911Z</time></trkpt><trkpt lat="43.6209839" lon="10.5869807"><ele>12.0</ele><time>2026-04-29T09:32:42.911Z</time></trkpt><trkpt lat="43.62101" lon="10.5868871"><ele>11.999999999999998</ele><time>2026-04-29T09:32:43.91Z</time></trkpt><trkpt lat="43.6210348" lon="10.5867943"><ele>12.0</ele><time>2026-04-29T09:32:44.913Z</time></trkpt><trkpt lat="43.6210587" lon="10.5866983"><ele>11.999999999999998</ele><time>2026-04-29T09:32:45.911Z</time></trkpt><trkpt lat="43.6210812" lon="10.5866033"><ele>12.0</ele><time>2026-04-29T09:32:46.912Z</time></trkpt><trkpt lat="43.6211047" lon="10.586511"><ele>12.0</ele><time>2026-04-29T09:32:47.912Z</time></trkpt><trkpt lat="43.6211288" lon="10.5864194"><ele>12.0</ele><time>2026-04-29T09:32:48.911Z</time></trkpt><trkpt lat="43.6211516" lon="10.5863286"><ele>12.0</ele><time>2026-04-29T09:32:49.915Z</time></trkpt><trkpt lat="43.6211737" lon="10.58624"><ele>11.999999999999998</ele><time>2026-04-29T09:32:50.914Z</time></trkpt><trkpt lat="43.6211962" lon="10.5861467"><ele>12.0</ele><time>2026-04-29T09:32:51.913Z</time></trkpt><trkpt lat="43.6212209" lon="10.5860558"><ele>11.999999999999998</ele><time>2026-04-29T09:32:52.913Z</time></trkpt><trkpt lat="43.6212444" lon="10.5859628"><ele>12.0</ele><time>2026-04-29T09:32:53.91Z</time></trkpt><trkpt lat="43.6212692" lon="10.5858733"><ele>12.0</ele><time>2026-04-29T09:32:54.91Z</time></trkpt><trkpt lat="43.6212922" lon="10.5857838"><ele>12.0</ele><time>2026-04-29T09:32:55.916Z</time></trkpt><trkpt lat="43.6213163" lon="10.5856962"><ele>12.0</ele><time>2026-04-29T09:32:56.911Z</time></trkpt><trkpt lat="43.6213419" lon="10.585605"><ele>11.999999999999998</ele><time>2026-04-29T09:32:57.916Z</time></trkpt><trkpt lat="43.6213662" lon="10.5855121"><ele>12.0</ele><time>2026-04-29T09:32:58.91Z</time></trkpt><trkpt lat="43.6213884" lon="10.5854172"><ele>11.857142857142856</ele><time>2026-04-29T09:32:59.91Z</time></trkpt><trkpt lat="43.6214136" lon="10.5853271"><ele>11.714285714285714</ele><time>2026-04-29T09:33:00.909Z</time></trkpt><trkpt lat="43.6214383" lon="10.5852354"><ele>11.571428571428571</ele><time>2026-04-29T09:33:01.91Z</time></trkpt><trkpt lat="43.6214646" lon="10.5851406"><ele>11.428571428571427</ele><time>2026-04-29T09:33:02.913Z</time></trkpt><trkpt lat="43.6214878" lon="10.5850461"><ele>11.285714285714285</ele><time>2026-04-29T09:33:03.911Z</time></trkpt><trkpt lat="43.6215126" lon="10.5849482"><ele>11.142857142857142</ele><time>2026-04-29T09:33:04.91Z</time></trkpt><trkpt lat="43.6215374" lon="10.5848531"><ele>11.0</ele><time>2026-04-29T09:33:05.912Z</time></trkpt><trkpt lat="43.621563" lon="10.584757"><ele>11.0</ele><time>2026-04-29T09:33:06.911Z</time></trkpt><trkpt lat="43.6215905" lon="10.5846586"><ele>11.0</ele><time>2026-04-29T09:33:07.908Z</time></trkpt><trkpt lat="43.6216167" lon="10.5845607"><ele>11.0</ele><time>2026-04-29T09:33:08.91Z</time></trkpt><trkpt lat="43.6216452" lon="10.584467"><ele>11.0</ele><time>2026-04-29T09:33:09.916Z</time></trkpt><trkpt lat="43.6216753" lon="10.5843734"><ele>11.0</ele><time>2026-04-29T09:33:10.909Z</time></trkpt><trkpt lat="43.6217047" lon="10.5842794"><ele>11.0</ele><time>2026-04-29T09:33:11.908Z</time></trkpt><trkpt lat="43.621741" lon="10.5841891"><ele>11.0</ele><time>2026-04-29T09:33:12.913Z</time></trkpt><trkpt lat="43.6217789" lon="10.5841025"><ele>11.0</ele><time>2026-04-29T09:33:13.908Z</time></trkpt><trkpt lat="43.6218177" lon="10.5840164"><ele>11.0</ele><time>2026-04-29T09:33:14.908Z</time></trkpt><trkpt lat="43.6218558" lon="10.5839339"><ele>11.0</ele><time>2026-04-29T09:33:15.911Z</time></trkpt><trkpt lat="43.6218919" lon="10.5838507"><ele>11.0</ele><time>2026-04-29T09:33:16.911Z</time></trkpt><trkpt lat="43.6219288" lon="10.583768"><ele>11.0</ele><time>2026-04-29T09:33:17.911Z</time></trkpt><trkpt lat="43.6219683" lon="10.5836863"><ele>11.0</ele><time>2026-04-29T09:33:18.907Z</time></trkpt><trkpt lat="43.6220066" lon="10.5836055"><ele>11.0</ele><time>2026-04-29T09:33:19.911Z</time></trkpt><trkpt lat="43.6220449" lon="10.5835249"><ele>11.0</ele><time>2026-04-29T09:33:20.916Z</time></trkpt><trkpt lat="43.6220828" lon="10.5834422"><ele>11.0</ele><time>2026-04-29T09:33:21.913Z</time></trkpt><trkpt lat="43.6221238" lon="10.5833677"><ele>11.0</ele><time>2026-04-29T09:33:22.903Z</time></trkpt><trkpt lat="43.622176" lon="10.5833068"><ele>11.0</ele><time>2026-04-29T09:33:23.923Z</time></trkpt><trkpt lat="43.6222442" lon="10.5832708"><ele>11.0</ele><time>2026-04-29T09:33:24.914Z</time></trkpt><trkpt lat="43.6223176" lon="10.5832478"><ele>11.0</ele><time>2026-04-29T09:33:25.916Z</time></trkpt><trkpt lat="43.6223942" lon="10.5832523"><ele>11.0</ele><time>2026-04-29T09:33:26.915Z</time></trkpt><trkpt lat="43.6224738" lon="10.5832689"><ele>11.0</ele><time>2026-04-29T09:33:27.917Z</time></trkpt><trkpt lat="43.6225524" lon="10.5832853"><ele>11.0</ele><time>2026-04-29T09:33:28.915Z</time></trkpt><trkpt lat="43.6226332" lon="10.5832879"><ele>11.0</ele><time>2026-04-29T09:33:29.91Z</time></trkpt><trkpt lat="43.6227046" lon="10.5832574"><ele>11.0</ele><time>2026-04-29T09:33:30.909Z</time></trkpt><trkpt lat="43.6227662" lon="10.5831864"><ele>11.0</ele><time>2026-04-29T09:33:31.91Z</time></trkpt><trkpt lat="43.6228001" lon="10.5830945"><ele>11.0</ele><time>2026-04-29T09:33:32.909Z</time></trkpt><trkpt lat="43.6228143" lon="10.5829888"><ele>11.0</ele><time>2026-04-29T09:33:33.901Z</time></trkpt><trkpt lat="43.6228095" lon="10.5828822"><ele>11.0</ele><time>2026-04-29T09:33:34.91Z</time></trkpt><trkpt lat="43.6227782" lon="10.5827852"><ele>11.0</ele><time>2026-04-29T09:33:35.911Z</time></trkpt><trkpt lat="43.622737" lon="10.5826992"><ele>11.0</ele><time>2026-04-29T09:33:36.919Z</time></trkpt><trkpt lat="43.6226943" lon="10.582609"><ele>11.0</ele><time>2026-04-29T09:33:37.917Z</time></trkpt><trkpt lat="43.6226646" lon="10.5825196"><ele>11.0</ele><time>2026-04-29T09:33:38.913Z</time></trkpt><trkpt lat="43.6226495" lon="10.5824251"><ele>11.0</ele><time>2026-04-29T09:33:39.913Z</time></trkpt><trkpt lat="43.6226532" lon="10.582328"><ele>10.857142857142858</ele><time>2026-04-29T09:33:40.912Z</time></trkpt><trkpt lat="43.6226726" lon="10.5822294"><ele>10.714285714285714</ele><time>2026-04-29T09:33:41.913Z</time></trkpt><trkpt lat="43.6227066" lon="10.5821411"><ele>10.571428571428571</ele><time>2026-04-29T09:33:42.913Z</time></trkpt><trkpt lat="43.622745" lon="10.5820577"><ele>10.428571428571429</ele><time>2026-04-29T09:33:43.918Z</time></trkpt><trkpt lat="43.6227841" lon="10.5819767"><ele>10.285714285714286</ele><time>2026-04-29T09:33:44.91Z</time></trkpt><trkpt lat="43.6228267" lon="10.5818961"><ele>10.142857142857142</ele><time>2026-04-29T09:33:45.912Z</time></trkpt><trkpt lat="43.6228668" lon="10.5818124"><ele>10.0</ele><time>2026-04-29T09:33:46.92Z</time></trkpt><trkpt lat="43.622907" lon="10.5817292"><ele>10.0</ele><time>2026-04-29T09:33:47.92Z</time></trkpt><trkpt lat="43.6229492" lon="10.5816454"><ele>10.0</ele><time>2026-04-29T09:33:48.918Z</time></trkpt><trkpt lat="43.622989" lon="10.5815578"><ele>10.0</ele><time>2026-04-29T09:33:49.916Z</time></trkpt><trkpt lat="43.6230268" lon="10.5814703"><ele>10.0</ele><time>2026-04-29T09:33:50.918Z</time></trkpt><trkpt lat="43.623067" lon="10.5813827"><ele>10.0</ele><time>2026-04-29T09:33:51.92Z</time></trkpt><trkpt lat="43.623103" lon="10.5812952"><ele>10.0</ele><time>2026-04-29T09:33:52.917Z</time></trkpt><trkpt lat="43.6231376" lon="10.5812081"><ele>10.0</ele><time>2026-04-29T09:33:53.919Z</time></trkpt><trkpt lat="43.6231744" lon="10.5811215"><ele>10.0</ele><time>2026-04-29T09:33:54.921Z</time></trkpt><trkpt lat="43.6232144" lon="10.5810364"><ele>10.0</ele><time>2026-04-29T09:33:55.92Z</time></trkpt><trkpt lat="43.623253" lon="10.5809496"><ele>10.0</ele><time>2026-04-29T09:33:56.915Z</time></trkpt><trkpt lat="43.6232906" lon="10.5808628"><ele>10.0</ele><time>2026-04-29T09:33:57.922Z</time></trkpt><trkpt lat="43.6233283" lon="10.5807777"><ele>10.0</ele><time>2026-04-29T09:33:58.92Z</time></trkpt><trkpt lat="43.6233657" lon="10.5806913"><ele>10.0</ele><time>2026-04-29T09:33:59.918Z</time></trkpt><trkpt lat="43.6234022" lon="10.5806064"><ele>10.0</ele><time>2026-04-29T09:34:00.917Z</time></trkpt><trkpt lat="43.6234406" lon="10.5805216"><ele>10.0</ele><time>2026-04-29T09:34:01.917Z</time></trkpt><trkpt lat="43.623476" lon="10.580436"><ele>10.0</ele><time>2026-04-29T09:34:02.921Z</time></trkpt><trkpt lat="43.6235139" lon="10.5803505"><ele>10.0</ele><time>2026-04-29T09:34:03.917Z</time></trkpt><trkpt lat="43.6235517" lon="10.5802705"><ele>10.0</ele><time>2026-04-29T09:34:04.92Z</time></trkpt><trkpt lat="43.6235896" lon="10.5801896"><ele>10.0</ele><time>2026-04-29T09:34:05.917Z</time></trkpt><trkpt lat="43.623628" lon="10.5801034"><ele>10.0</ele><time>2026-04-29T09:34:06.917Z</time></trkpt><trkpt lat="43.6236661" lon="10.5800177"><ele>10.0</ele><time>2026-04-29T09:34:07.916Z</time></trkpt><trkpt lat="43.623707" lon="10.5799357"><ele>9.857142857142858</ele><time>2026-04-29T09:34:08.917Z</time></trkpt><trkpt lat="43.623747" lon="10.5798572"><ele>9.714285714285715</ele><time>2026-04-29T09:34:09.922Z</time></trkpt><trkpt lat="43.6237923" lon="10.5797813"><ele>9.571428571428573</ele><time>2026-04-29T09:34:10.917Z</time></trkpt><trkpt lat="43.6238409" lon="10.5797119"><ele>9.428571428571429</ele><time>2026-04-29T09:34:11.905Z</time></trkpt><trkpt lat="43.6238995" lon="10.5796519"><ele>9.285714285714286</ele><time>2026-04-29T09:34:12.906Z</time></trkpt><trkpt lat="43.6239617" lon="10.5796058"><ele>9.142857142857144</ele><time>2026-04-29T09:34:13.904Z</time></trkpt><trkpt lat="43.6240285" lon="10.5795701"><ele>9.0</ele><time>2026-04-29T09:34:14.919Z</time></trkpt><trkpt lat="43.6240963" lon="10.5795239"><ele>8.714285714285715</ele><time>2026-04-29T09:34:15.913Z</time></trkpt><trkpt lat="43.6241574" lon="10.5794638"><ele>8.428571428571429</ele><time>2026-04-29T09:34:16.914Z</time></trkpt><trkpt lat="43.6242059" lon="10.5793898"><ele>8.142857142857142</ele><time>2026-04-29T09:34:17.918Z</time></trkpt><trkpt lat="43.6242361" lon="10.5793035"><ele>7.857142857142858</ele><time>2026-04-29T09:34:18.903Z</time></trkpt><trkpt lat="43.6242478" lon="10.5792101"><ele>7.571428571428571</ele><time>2026-04-29T09:34:19.901Z</time></trkpt><trkpt lat="43.6242495" lon="10.5791122"><ele>7.285714285714286</ele><time>2026-04-29T09:34:20.911Z</time></trkpt><trkpt lat="43.6242317" lon="10.5790172"><ele>7.0</ele><time>2026-04-29T09:34:21.908Z</time></trkpt><trkpt lat="43.6241938" lon="10.57893"><ele>7.000000000000001</ele><time>2026-04-29T09:34:22.915Z</time></trkpt><trkpt lat="43.624137" lon="10.578857"><ele>7.0</ele><time>2026-04-29T09:34:23.916Z</time></trkpt><trkpt lat="43.6240681" lon="10.5787996"><ele>7.0</ele><time>2026-04-29T09:34:24.911Z</time></trkpt><trkpt lat="43.6239922" lon="10.5787679"><ele>7.0</ele><time>2026-04-29T09:34:25.912Z</time></trkpt><trkpt lat="43.6239167" lon="10.5787574"><ele>7.000000000000001</ele><time>2026-04-29T09:34:26.912Z</time></trkpt><trkpt lat="43.6238404" lon="10.578761"><ele>7.0</ele><time>2026-04-29T09:34:27.907Z</time></trkpt><trkpt lat="43.6237683" lon="10.5787805"><ele>7.0</ele><time>2026-04-29T09:34:28.913Z</time></trkpt><trkpt lat="43.6236975" lon="10.5788082"><ele>7.0</ele><time>2026-04-29T09:34:29.911Z</time></trkpt><trkpt lat="43.623626" lon="10.5788189"><ele>7.0</ele><time>2026-04-29T09:34:30.901Z</time></trkpt><trkpt lat="43.6235577" lon="10.5788124"><ele>7.0</ele><time>2026-04-29T09:34:31.91Z</time></trkpt><trkpt lat="43.6234913" lon="10.5787947"><ele>7.0</ele><time>2026-04-29T09:34:32.91Z</time></trkpt><trkpt lat="43.6234234" lon="10.5787688"><ele>7.0</ele><time>2026-04-29T09:34:33.907Z</time></trkpt><trkpt lat="43.6233601" lon="10.5787286"><ele>7.0</ele><time>2026-04-29T09:34:34.908Z</time></trkpt><trkpt lat="43.6233042" lon="10.5786714"><ele>7.285714285714286</ele><time>2026-04-29T09:34:35.909Z</time></trkpt><trkpt lat="43.6232529" lon="10.5786127"><ele>7.571428571428571</ele><time>2026-04-29T09:34:36.911Z</time></trkpt><trkpt lat="43.6232012" lon="10.5785494"><ele>7.857142857142858</ele><time>2026-04-29T09:34:37.909Z</time></trkpt><trkpt lat="43.6231483" lon="10.5784916"><ele>8.142857142857142</ele><time>2026-04-29T09:34:38.912Z</time></trkpt><trkpt lat="43.6230952" lon="10.5784344"><ele>8.428571428571429</ele><time>2026-04-29T09:34:39.914Z</time></trkpt><trkpt lat="43.6230417" lon="10.5783766"><ele>8.714285714285715</ele><time>2026-04-29T09:34:40.908Z</time></trkpt><trkpt lat="43.6229873" lon="10.5783212"><ele>9.0</ele><time>2026-04-29T09:34:41.908Z</time></trkpt><trkpt lat="43.6229315" lon="10.5782691"><ele>9.000000000000002</ele><time>2026-04-29T09:34:42.907Z</time></trkpt><trkpt lat="43.6228764" lon="10.5782143"><ele>9.0</ele><time>2026-04-29T09:34:43.906Z</time></trkpt><trkpt lat="43.6228191" lon="10.5781609"><ele>9.0</ele><time>2026-04-29T09:34:44.908Z</time></trkpt><trkpt lat="43.6227609" lon="10.5781061"><ele>9.0</ele><time>2026-04-29T09:34:45.908Z</time></trkpt><trkpt lat="43.6226998" lon="10.5780471"><ele>9.0</ele><time>2026-04-29T09:34:46.911Z</time></trkpt><trkpt lat="43.62264" lon="10.5779909"><ele>9.000000000000002</ele><time>2026-04-29T09:34:47.914Z</time></trkpt><trkpt lat="43.6225786" lon="10.5779364"><ele>9.0</ele><time>2026-04-29T09:34:48.907Z</time></trkpt><trkpt lat="43.6225196" lon="10.5778792"><ele>9.000000000000002</ele><time>2026-04-29T09:34:49.907Z</time></trkpt><trkpt lat="43.6224625" lon="10.5778261"><ele>9.0</ele><time>2026-04-29T09:34:50.908Z</time></trkpt><trkpt lat="43.6224069" lon="10.5777714"><ele>9.0</ele><time>2026-04-29T09:34:51.91Z</time></trkpt><trkpt lat="43.6223517" lon="10.5777158"><ele>9.0</ele><time>2026-04-29T09:34:52.916Z</time></trkpt><trkpt lat="43.622296" lon="10.5776598"><ele>9.0</ele><time>2026-04-29T09:34:53.908Z</time></trkpt><trkpt lat="43.6222401" lon="10.5776061"><ele>9.000000000000002</ele><time>2026-04-29T09:34:54.914Z</time></trkpt><trkpt lat="43.6221833" lon="10.5775517"><ele>9.0</ele><time>2026-04-29T09:34:55.918Z</time></trkpt><trkpt lat="43.6221257" lon="10.5775006"><ele>9.000000000000002</ele><time>2026-04-29T09:34:56.906Z</time></trkpt><trkpt lat="43.6220723" lon="10.5774516"><ele>9.0</ele><time>2026-04-29T09:34:57.913Z</time></trkpt><trkpt lat="43.6220179" lon="10.5774032"><ele>9.0</ele><time>2026-04-29T09:34:58.919Z</time></trkpt><trkpt lat="43.6219602" lon="10.5773524"><ele>9.0</ele><time>2026-04-29T09:34:59.924Z</time></trkpt><trkpt lat="43.6219043" lon="10.5772956"><ele>9.0</ele><time>2026-04-29T09:35:00.909Z</time></trkpt><trkpt lat="43.6218491" lon="10.5772437"><ele>9.000000000000002</ele><time>2026-04-29T09:35:01.904Z</time></trkpt><trkpt lat="43.6217926" lon="10.5771898"><ele>9.0</ele><time>2026-04-29T09:35:02.908Z</time></trkpt><trkpt lat="43.6217325" lon="10.5771359"><ele>9.285714285714286</ele><time>2026-04-29T09:35:03.911Z</time></trkpt><trkpt lat="43.6216758" lon="10.5770872"><ele>9.571428571428571</ele><time>2026-04-29T09:35:04.91Z</time></trkpt><trkpt lat="43.621619" lon="10.5770367"><ele>9.857142857142858</ele><time>2026-04-29T09:35:05.909Z</time></trkpt><trkpt lat="43.621561" lon="10.5769852"><ele>10.142857142857142</ele><time>2026-04-29T09:35:06.917Z</time></trkpt><trkpt lat="43.6215084" lon="10.576932"><ele>10.428571428571429</ele><time>2026-04-29T09:35:07.909Z</time></trkpt><trkpt lat="43.6214558" lon="10.5768795"><ele>10.714285714285715</ele><time>2026-04-29T09:35:08.906Z</time></trkpt><trkpt lat="43.6214035" lon="10.5768257"><ele>11.0</ele><time>2026-04-29T09:35:09.909Z</time></trkpt><trkpt lat="43.6213482" lon="10.57677"><ele>11.0</ele><time>2026-04-29T09:35:10.92Z</time></trkpt><trkpt lat="43.6212926" lon="10.5767138"><ele>11.0</ele><time>2026-04-29T09:35:11.913Z</time></trkpt><trkpt lat="43.6212391" lon="10.5766634"><ele>11.0</ele><time>2026-04-29T09:35:12.91Z</time></trkpt><trkpt lat="43.6211843" lon="10.5766119"><ele>11.0</ele><time>2026-04-29T09:35:13.911Z</time></trkpt><trkpt lat="43.6211324" lon="10.5765617"><ele>11.0</ele><time>2026-04-29T09:35:14.912Z</time></trkpt><trkpt lat="43.6210771" lon="10.5765111"><ele>11.0</ele><time>2026-04-29T09:35:15.909Z</time></trkpt><trkpt lat="43.6210194" lon="10.5764574"><ele>11.0</ele><time>2026-04-29T09:35:16.918Z</time></trkpt><trkpt lat="43.6209624" lon="10.5764017"><ele>11.166666666666666</ele><time>2026-04-29T09:35:17.911Z</time></trkpt><trkpt lat="43.6209066" lon="10.576349"><ele>11.333333333333332</ele><time>2026-04-29T09:35:18.905Z</time></trkpt><trkpt lat="43.6208549" lon="10.5762949"><ele>11.5</ele><time>2026-04-29T09:35:19.91Z</time></trkpt><trkpt lat="43.6208032" lon="10.5762424"><ele>11.666666666666666</ele><time>2026-04-29T09:35:20.908Z</time></trkpt><trkpt lat="43.6207007" lon="10.5761493"><ele>11.833333333333334</ele><time>2026-04-29T09:35:22.911Z</time></trkpt><trkpt lat="43.6206003" lon="10.5760542"><ele>12.0</ele><time>2026-04-29T09:35:24.909Z</time></trkpt><trkpt lat="43.620498" lon="10.5759581"><ele>12.0</ele><time>2026-04-29T09:35:26.919Z</time></trkpt><trkpt lat="43.6203959" lon="10.575862"><ele>12.0</ele><time>2026-04-29T09:35:28.908Z</time></trkpt><trkpt lat="43.6203435" lon="10.575811"><ele>12.0</ele><time>2026-04-29T09:35:29.912Z</time></trkpt><trkpt lat="43.6202922" lon="10.5757601"><ele>12.0</ele><time>2026-04-29T09:35:30.912Z</time></trkpt><trkpt lat="43.6201908" lon="10.5756548"><ele>12.0</ele><time>2026-04-29T09:35:32.907Z</time></trkpt><trkpt lat="43.6201395" lon="10.5756039"><ele>12.0</ele><time>2026-04-29T09:35:33.908Z</time></trkpt><trkpt lat="43.6200848" lon="10.5755554"><ele>11.999999999999998</ele><time>2026-04-29T09:35:34.917Z</time></trkpt><trkpt lat="43.620028" lon="10.5755064"><ele>12.0</ele><time>2026-04-29T09:35:35.916Z</time></trkpt><trkpt lat="43.619974" lon="10.5754552"><ele>12.0</ele><time>2026-04-29T09:35:36.919Z</time></trkpt><trkpt lat="43.6199209" lon="10.5754032"><ele>12.0</ele><time>2026-04-29T09:35:37.91Z</time></trkpt><trkpt lat="43.6198676" lon="10.5753519"><ele>12.0</ele><time>2026-04-29T09:35:38.91Z</time></trkpt><trkpt lat="43.6198144" lon="10.5753045"><ele>11.999999999999998</ele><time>2026-04-29T09:35:39.91Z</time></trkpt><trkpt lat="43.6197617" lon="10.5752561"><ele>12.0</ele><time>2026-04-29T09:35:40.911Z</time></trkpt><trkpt lat="43.6196623" lon="10.5751652"><ele>12.0</ele><time>2026-04-29T09:35:42.908Z</time></trkpt><trkpt lat="43.6195602" lon="10.5750705"><ele>12.0</ele><time>2026-04-29T09:35:44.915Z</time></trkpt><trkpt lat="43.6194593" lon="10.5749649"><ele>12.0</ele><time>2026-04-29T09:35:46.931Z</time></trkpt><trkpt lat="43.6194067" lon="10.5749071"><ele>12.0</ele><time>2026-04-29T09:35:47.908Z</time></trkpt><trkpt lat="43.6193031" lon="10.5748098"><ele>12.0</ele><time>2026-04-29T09:35:49.91Z</time></trkpt><trkpt lat="43.6192513" lon="10.5747583"><ele>11.999999999999998</ele><time>2026-04-29T09:35:50.914Z</time></trkpt><trkpt lat="43.6191511" lon="10.5746656"><ele>12.0</ele><time>2026-04-29T09:35:52.913Z</time></trkpt><trkpt lat="43.6190965" lon="10.5746136"><ele>12.0</ele><time>2026-04-29T09:35:53.906Z</time></trkpt><trkpt lat="43.6190448" lon="10.5745621"><ele>12.0</ele><time>2026-04-29T09:35:54.915Z</time></trkpt><trkpt lat="43.6189925" lon="10.5745135"><ele>12.0</ele><time>2026-04-29T09:35:55.915Z</time></trkpt><trkpt lat="43.6189398" lon="10.5744637"><ele>11.999999999999998</ele><time>2026-04-29T09:35:56.913Z</time></trkpt><trkpt lat="43.6188876" lon="10.5744088"><ele>12.0</ele><time>2026-04-29T09:35:57.903Z</time></trkpt><trkpt lat="43.618835" lon="10.5743563"><ele>12.0</ele><time>2026-04-29T09:35:58.902Z</time></trkpt><trkpt lat="43.6187802" lon="10.57431"><ele>12.0</ele><time>2026-04-29T09:35:59.904Z</time></trkpt><trkpt lat="43.6187236" lon="10.5742593"><ele>12.0</ele><time>2026-04-29T09:36:00.908Z</time></trkpt><trkpt lat="43.6186704" lon="10.5742034"><ele>12.0</ele><time>2026-04-29T09:36:01.912Z</time></trkpt><trkpt lat="43.6186168" lon="10.5741508"><ele>12.0</ele><time>2026-04-29T09:36:02.905Z</time></trkpt><trkpt lat="43.6185192" lon="10.5740434"><ele>12.0</ele><time>2026-04-29T09:36:04.908Z</time></trkpt><trkpt lat="43.6184677" lon="10.5739916"><ele>12.166666666666666</ele><time>2026-04-29T09:36:05.92Z</time></trkpt><trkpt lat="43.6184157" lon="10.5739423"><ele>12.333333333333332</ele><time>2026-04-29T09:36:06.922Z</time></trkpt><trkpt lat="43.6183177" lon="10.573843"><ele>12.5</ele><time>2026-04-29T09:36:08.92Z</time></trkpt><trkpt lat="43.6182138" lon="10.5737487"><ele>12.666666666666666</ele><time>2026-04-29T09:36:10.916Z</time></trkpt><trkpt lat="43.618163" lon="10.573697"><ele>12.833333333333332</ele><time>2026-04-29T09:36:11.91Z</time></trkpt><trkpt lat="43.6181124" lon="10.5736444"><ele>13.0</ele><time>2026-04-29T09:36:12.913Z</time></trkpt><trkpt lat="43.6180607" lon="10.5735946"><ele>13.166666666666666</ele><time>2026-04-29T09:36:13.914Z</time></trkpt><trkpt lat="43.6180082" lon="10.5735447"><ele>13.333333333333332</ele><time>2026-04-29T09:36:14.909Z</time></trkpt><trkpt lat="43.6179035" lon="10.5734496"><ele>13.5</ele><time>2026-04-29T09:36:16.931Z</time></trkpt><trkpt lat="43.6178493" lon="10.5734"><ele>13.666666666666668</ele><time>2026-04-29T09:36:17.922Z</time></trkpt><trkpt lat="43.6177963" lon="10.5733487"><ele>13.833333333333334</ele><time>2026-04-29T09:36:18.908Z</time></trkpt><trkpt lat="43.617695" lon="10.5732516"><ele>14.0</ele><time>2026-04-29T09:36:20.925Z</time></trkpt><trkpt lat="43.6175972" lon="10.5731506"><ele>13.5</ele><time>2026-04-29T09:36:22.913Z</time></trkpt><trkpt lat="43.6174977" lon="10.5730628"><ele>13.0</ele><time>2026-04-29T09:36:24.908Z</time></trkpt><trkpt lat="43.6174006" lon="10.5729777"><ele>12.5</ele><time>2026-04-29T09:36:26.916Z</time></trkpt><trkpt lat="43.617314" lon="10.5728816"><ele>12.0</ele><time>2026-04-29T09:36:28.916Z</time></trkpt><trkpt lat="43.6172183" lon="10.5727986"><ele>11.75</ele><time>2026-04-29T09:36:30.925Z</time></trkpt><trkpt lat="43.6171184" lon="10.5727096"><ele>11.5</ele><time>2026-04-29T09:36:32.929Z</time></trkpt><trkpt lat="43.6170236" lon="10.5726118"><ele>11.25</ele><time>2026-04-29T09:36:34.93Z</time></trkpt><trkpt lat="43.6169213" lon="10.5725472"><ele>11.0</ele><time>2026-04-29T09:36:36.914Z</time></trkpt><trkpt lat="43.6168145" lon="10.5724973"><ele>11.0</ele><time>2026-04-29T09:36:38.907Z</time></trkpt><trkpt lat="43.6166975" lon="10.5724662"><ele>11.0</ele><time>2026-04-29T09:36:40.912Z</time></trkpt><trkpt lat="43.6165778" lon="10.5724512"><ele>11.0</ele><time>2026-04-29T09:36:42.906Z</time></trkpt><trkpt lat="43.616453" lon="10.5724514"><ele>11.0</ele><time>2026-04-29T09:36:44.906Z</time></trkpt><trkpt lat="43.6163363" lon="10.5724577"><ele>11.0</ele><time>2026-04-29T09:36:46.909Z</time></trkpt><trkpt lat="43.6162111" lon="10.5724507"><ele>11.0</ele><time>2026-04-29T09:36:48.906Z</time></trkpt><trkpt lat="43.6161454" lon="10.5724485"><ele>11.0</ele><time>2026-04-29T09:36:49.906Z</time></trkpt><trkpt lat="43.6160814" lon="10.5724443"><ele>11.0</ele><time>2026-04-29T09:36:50.908Z</time></trkpt><trkpt lat="43.6160151" lon="10.5724403"><ele>11.0</ele><time>2026-04-29T09:36:51.908Z</time></trkpt><trkpt lat="43.6159505" lon="10.5724384"><ele>11.0</ele><time>2026-04-29T09:36:52.905Z</time></trkpt><trkpt lat="43.6158844" lon="10.5724364"><ele>11.0</ele><time>2026-04-29T09:36:53.904Z</time></trkpt><trkpt lat="43.6158171" lon="10.5724346"><ele>11.0</ele><time>2026-04-29T09:36:54.905Z</time></trkpt><trkpt lat="43.6157489" lon="10.5724329"><ele>11.0</ele><time>2026-04-29T09:36:55.905Z</time></trkpt><trkpt lat="43.6156822" lon="10.5724286"><ele>11.0</ele><time>2026-04-29T09:36:56.903Z</time></trkpt><trkpt lat="43.6156174" lon="10.5724248"><ele>11.0</ele><time>2026-04-29T09:36:57.911Z</time></trkpt><trkpt lat="43.6155538" lon="10.5724222"><ele>11.0</ele><time>2026-04-29T09:36:58.915Z</time></trkpt><trkpt lat="43.6154909" lon="10.5724174"><ele>11.0</ele><time>2026-04-29T09:36:59.905Z</time></trkpt><trkpt lat="43.6154253" lon="10.5724135"><ele>11.0</ele><time>2026-04-29T09:37:00.907Z</time></trkpt><trkpt lat="43.6153604" lon="10.5724083"><ele>11.0</ele><time>2026-04-29T09:37:01.912Z</time></trkpt><trkpt lat="43.6152944" lon="10.5724031"><ele>11.0</ele><time>2026-04-29T09:37:02.907Z</time></trkpt><trkpt lat="43.615228" lon="10.5723988"><ele>11.0</ele><time>2026-04-29T09:37:03.919Z</time></trkpt><trkpt lat="43.6151579" lon="10.572392"><ele>11.0</ele><time>2026-04-29T09:37:04.914Z</time></trkpt><trkpt lat="43.6150911" lon="10.5723905"><ele>11.0</ele><time>2026-04-29T09:37:05.913Z</time></trkpt><trkpt lat="43.6150217" lon="10.5723904"><ele>11.0</ele><time>2026-04-29T09:37:06.9Z</time></trkpt><trkpt lat="43.614953" lon="10.5723884"><ele>11.285714285714286</ele><time>2026-04-29T09:37:07.909Z</time></trkpt><trkpt lat="43.6148815" lon="10.5723871"><ele>11.571428571428571</ele><time>2026-04-29T09:37:08.908Z</time></trkpt><trkpt lat="43.6148095" lon="10.5723845"><ele>11.857142857142858</ele><time>2026-04-29T09:37:09.909Z</time></trkpt><trkpt lat="43.6147368" lon="10.5723775"><ele>12.142857142857142</ele><time>2026-04-29T09:37:10.905Z</time></trkpt><trkpt lat="43.6146659" lon="10.5723709"><ele>12.428571428571429</ele><time>2026-04-29T09:37:11.903Z</time></trkpt><trkpt lat="43.6145959" lon="10.5723677"><ele>12.714285714285714</ele><time>2026-04-29T09:37:12.902Z</time></trkpt><trkpt lat="43.6145291" lon="10.572365"><ele>13.0</ele><time>2026-04-29T09:37:13.903Z</time></trkpt><trkpt lat="43.6144627" lon="10.5723591"><ele>13.285714285714285</ele><time>2026-04-29T09:37:14.902Z</time></trkpt><trkpt lat="43.6143958" lon="10.572354"><ele>13.571428571428573</ele><time>2026-04-29T09:37:15.901Z</time></trkpt><trkpt lat="43.6143292" lon="10.5723529"><ele>13.857142857142858</ele><time>2026-04-29T09:37:16.912Z</time></trkpt><trkpt lat="43.6142613" lon="10.5723523"><ele>14.142857142857142</ele><time>2026-04-29T09:37:17.907Z</time></trkpt><trkpt lat="43.614194" lon="10.5723528"><ele>14.428571428571427</ele><time>2026-04-29T09:37:18.902Z</time></trkpt><trkpt lat="43.6141274" lon="10.572349"><ele>14.714285714285715</ele><time>2026-04-29T09:37:19.904Z</time></trkpt><trkpt lat="43.6140599" lon="10.5723425"><ele>15.0</ele><time>2026-04-29T09:37:20.904Z</time></trkpt><trkpt lat="43.613992" lon="10.5723381"><ele>15.0</ele><time>2026-04-29T09:37:21.912Z</time></trkpt><trkpt lat="43.6139244" lon="10.5723351"><ele>15.0</ele><time>2026-04-29T09:37:22.909Z</time></trkpt><trkpt lat="43.6138571" lon="10.5723309"><ele>15.0</ele><time>2026-04-29T09:37:23.913Z</time></trkpt><trkpt lat="43.6137861" lon="10.5723299"><ele>15.0</ele><time>2026-04-29T09:37:24.914Z</time></trkpt><trkpt lat="43.6137182" lon="10.5723282"><ele>15.0</ele><time>2026-04-29T09:37:25.917Z</time></trkpt><trkpt lat="43.61365" lon="10.572329"><ele>15.0</ele><time>2026-04-29T09:37:26.907Z</time></trkpt><trkpt lat="43.6135808" lon="10.5723262"><ele>15.0</ele><time>2026-04-29T09:37:27.923Z</time></trkpt><trkpt lat="43.6135137" lon="10.5723238"><ele>15.0</ele><time>2026-04-29T09:37:28.914Z</time></trkpt><trkpt lat="43.6134468" lon="10.5723212"><ele>15.0</ele><time>2026-04-29T09:37:29.912Z</time></trkpt><trkpt lat="43.6133807" lon="10.5723173"><ele>15.0</ele><time>2026-04-29T09:37:30.91Z</time></trkpt><trkpt lat="43.6133157" lon="10.5723126"><ele>15.0</ele><time>2026-04-29T09:37:31.914Z</time></trkpt><trkpt lat="43.6132513" lon="10.5723092"><ele>15.0</ele><time>2026-04-29T09:37:32.908Z</time></trkpt><trkpt lat="43.6131876" lon="10.5723039"><ele>15.0</ele><time>2026-04-29T09:37:33.907Z</time></trkpt><trkpt lat="43.6130594" lon="10.5722969"><ele>15.0</ele><time>2026-04-29T09:37:35.909Z</time></trkpt><trkpt lat="43.6129928" lon="10.5722894"><ele>15.0</ele><time>2026-04-29T09:37:36.905Z</time></trkpt><trkpt lat="43.6129241" lon="10.5722834"><ele>15.0</ele><time>2026-04-29T09:37:37.907Z</time></trkpt><trkpt lat="43.6128529" lon="10.572281"><ele>15.0</ele><time>2026-04-29T09:37:38.907Z</time></trkpt><trkpt lat="43.6127862" lon="10.5722778"><ele>15.0</ele><time>2026-04-29T09:37:39.917Z</time></trkpt><trkpt lat="43.6127174" lon="10.5722747"><ele>15.0</ele><time>2026-04-29T09:37:40.92Z</time></trkpt><trkpt lat="43.6126503" lon="10.5722696"><ele>15.0</ele><time>2026-04-29T09:37:41.909Z</time></trkpt><trkpt lat="43.6125839" lon="10.572265"><ele>14.833333333333334</ele><time>2026-04-29T09:37:42.907Z</time></trkpt><trkpt lat="43.6125163" lon="10.5722605"><ele>14.666666666666668</ele><time>2026-04-29T09:37:43.912Z</time></trkpt><trkpt lat="43.6124485" lon="10.5722578"><ele>14.5</ele><time>2026-04-29T09:37:44.921Z</time></trkpt><trkpt lat="43.6123817" lon="10.5722535"><ele>14.333333333333334</ele><time>2026-04-29T09:37:45.919Z</time></trkpt><trkpt lat="43.6123175" lon="10.5722482"><ele>14.166666666666668</ele><time>2026-04-29T09:37:46.922Z</time></trkpt><trkpt lat="43.6122541" lon="10.5722433"><ele>14.0</ele><time>2026-04-29T09:37:47.918Z</time></trkpt><trkpt lat="43.6121297" lon="10.5722402"><ele>14.0</ele><time>2026-04-29T09:37:49.919Z</time></trkpt><trkpt lat="43.6120094" lon="10.5722404"><ele>14.0</ele><time>2026-04-29T09:37:51.926Z</time></trkpt><trkpt lat="43.6118916" lon="10.5722429"><ele>14.0</ele><time>2026-04-29T09:37:53.925Z</time></trkpt><trkpt lat="43.6117749" lon="10.5722366"><ele>14.0</ele><time>2026-04-29T09:37:55.916Z</time></trkpt><trkpt lat="43.611661" lon="10.5722354"><ele>14.0</ele><time>2026-04-29T09:37:57.912Z</time></trkpt><trkpt lat="43.6115548" lon="10.5722382"><ele>13.999999999999998</ele><time>2026-04-29T09:37:59.916Z</time></trkpt><trkpt lat="43.6114508" lon="10.5722372"><ele>13.999999999999998</ele><time>2026-04-29T09:38:01.908Z</time></trkpt><trkpt lat="43.6113504" lon="10.5722291"><ele>14.0</ele><time>2026-04-29T09:38:03.916Z</time></trkpt><trkpt lat="43.6112485" lon="10.5722094"><ele>14.0</ele><time>2026-04-29T09:38:05.914Z</time></trkpt><trkpt lat="43.6111409" lon="10.5721921"><ele>14.25</ele><time>2026-04-29T09:38:07.92Z</time></trkpt><trkpt lat="43.6110307" lon="10.5721684"><ele>14.5</ele><time>2026-04-29T09:38:09.913Z</time></trkpt><trkpt lat="43.6109189" lon="10.5721433"><ele>14.75</ele><time>2026-04-29T09:38:11.906Z</time></trkpt><trkpt lat="43.6108082" lon="10.5721168"><ele>15.0</ele><time>2026-04-29T09:38:13.911Z</time></trkpt><trkpt lat="43.6106963" lon="10.5720895"><ele>15.0</ele><time>2026-04-29T09:38:15.906Z</time></trkpt><trkpt lat="43.6105892" lon="10.5720684"><ele>15.0</ele><time>2026-04-29T09:38:17.91Z</time></trkpt><trkpt lat="43.6104765" lon="10.5720492"><ele>15.0</ele><time>2026-04-29T09:38:19.911Z</time></trkpt><trkpt lat="43.6103679" lon="10.5720246"><ele>15.0</ele><time>2026-04-29T09:38:21.917Z</time></trkpt><trkpt lat="43.6102637" lon="10.5720018"><ele>15.0</ele><time>2026-04-29T09:38:23.917Z</time></trkpt><trkpt lat="43.6101606" lon="10.5719791"><ele>15.2</ele><time>2026-04-29T09:38:25.911Z</time></trkpt><trkpt lat="43.6100599" lon="10.571958"><ele>15.4</ele><time>2026-04-29T09:38:27.92Z</time></trkpt><trkpt lat="43.6099632" lon="10.5719341"><ele>15.600000000000001</ele><time>2026-04-29T09:38:29.92Z</time></trkpt><trkpt lat="43.6098625" lon="10.5719115"><ele>15.8</ele><time>2026-04-29T09:38:31.915Z</time></trkpt><trkpt lat="43.6097663" lon="10.5718891"><ele>16.0</ele><time>2026-04-29T09:38:33.91Z</time></trkpt><trkpt lat="43.6096716" lon="10.5718736"><ele>16.0</ele><time>2026-04-29T09:38:35.905Z</time></trkpt><trkpt lat="43.6095716" lon="10.5718537"><ele>16.0</ele><time>2026-04-29T09:38:37.905Z</time></trkpt><trkpt lat="43.6094722" lon="10.5718294"><ele>16.0</ele><time>2026-04-29T09:38:39.907Z</time></trkpt><trkpt lat="43.6093732" lon="10.571804"><ele>16.0</ele><time>2026-04-29T09:38:41.906Z</time></trkpt><trkpt lat="43.6092757" lon="10.5717829"><ele>16.0</ele><time>2026-04-29T09:38:43.905Z</time></trkpt><trkpt lat="43.6091789" lon="10.5717581"><ele>16.2</ele><time>2026-04-29T09:38:45.908Z</time></trkpt><trkpt lat="43.6090765" lon="10.5717349"><ele>16.400000000000002</ele><time>2026-04-29T09:38:47.91Z</time></trkpt><trkpt lat="43.6089769" lon="10.5717075"><ele>16.6</ele><time>2026-04-29T09:38:49.908Z</time></trkpt><trkpt lat="43.6088694" lon="10.5716864"><ele>16.8</ele><time>2026-04-29T09:38:51.908Z</time></trkpt><trkpt lat="43.608762" lon="10.5716678"><ele>17.0</ele><time>2026-04-29T09:38:53.907Z</time></trkpt><trkpt lat="43.608661" lon="10.5716516"><ele>17.2</ele><time>2026-04-29T09:38:55.907Z</time></trkpt><trkpt lat="43.6085635" lon="10.571631"><ele>17.4</ele><time>2026-04-29T09:38:57.907Z</time></trkpt><trkpt lat="43.6084684" lon="10.5716143"><ele>17.6</ele><time>2026-04-29T09:38:59.909Z</time></trkpt><trkpt lat="43.608371" lon="10.5716003"><ele>17.8</ele><time>2026-04-29T09:39:01.908Z</time></trkpt><trkpt lat="43.6082688" lon="10.5715781"><ele>18.0</ele><time>2026-04-29T09:39:03.906Z</time></trkpt><trkpt lat="43.6081647" lon="10.5715554"><ele>18.0</ele><time>2026-04-29T09:39:05.907Z</time></trkpt><trkpt lat="43.6080582" lon="10.5715342"><ele>18.0</ele><time>2026-04-29T09:39:07.912Z</time></trkpt><trkpt lat="43.6079495" lon="10.5715108"><ele>18.0</ele><time>2026-04-29T09:39:09.908Z</time></trkpt><trkpt lat="43.6078447" lon="10.5714802"><ele>18.0</ele><time>2026-04-29T09:39:11.903Z</time></trkpt><trkpt lat="43.6077264" lon="10.57144"><ele>18.0</ele><time>2026-04-29T09:39:13.903Z</time></trkpt><trkpt lat="43.6076221" lon="10.5713941"><ele>18.5</ele><time>2026-04-29T09:39:15.908Z</time></trkpt><trkpt lat="43.6075255" lon="10.5713329"><ele>19.0</ele><time>2026-04-29T09:39:17.918Z</time></trkpt><trkpt lat="43.6074246" lon="10.5712542"><ele>19.5</ele><time>2026-04-29T09:39:19.906Z</time></trkpt><trkpt lat="43.6073281" lon="10.5711645"><ele>20.0</ele><time>2026-04-29T09:39:21.906Z</time></trkpt><trkpt lat="43.6072273" lon="10.5710787"><ele>20.2</ele><time>2026-04-29T09:39:23.906Z</time></trkpt><trkpt lat="43.6071312" lon="10.5710022"><ele>20.4</ele><time>2026-04-29T09:39:25.905Z</time></trkpt><trkpt lat="43.6070396" lon="10.5709182"><ele>20.6</ele><time>2026-04-29T09:39:27.919Z</time></trkpt><trkpt lat="43.6069554" lon="10.5708248"><ele>20.8</ele><time>2026-04-29T09:39:29.905Z</time></trkpt><trkpt lat="43.6068683" lon="10.5707349"><ele>21.0</ele><time>2026-04-29T09:39:31.907Z</time></trkpt><trkpt lat="43.6067788" lon="10.5706567"><ele>21.4</ele><time>2026-04-29T09:39:33.907Z</time></trkpt><trkpt lat="43.6066882" lon="10.570583"><ele>21.8</ele><time>2026-04-29T09:39:35.907Z</time></trkpt><trkpt lat="43.606589" lon="10.5705081"><ele>22.2</ele><time>2026-04-29T09:39:37.912Z</time></trkpt><trkpt lat="43.6064947" lon="10.5704379"><ele>22.599999999999998</ele><time>2026-04-29T09:39:39.904Z</time></trkpt><trkpt lat="43.6063942" lon="10.57038"><ele>23.0</ele><time>2026-04-29T09:39:41.901Z</time></trkpt><trkpt lat="43.6062898" lon="10.5703267"><ele>23.0</ele><time>2026-04-29T09:39:43.916Z</time></trkpt><trkpt lat="43.6061835" lon="10.5702717"><ele>23.0</ele><time>2026-04-29T09:39:45.921Z</time></trkpt><trkpt lat="43.6060774" lon="10.5702115"><ele>23.0</ele><time>2026-04-29T09:39:47.921Z</time></trkpt><trkpt lat="43.6059685" lon="10.5701465"><ele>23.0</ele><time>2026-04-29T09:39:49.91Z</time></trkpt><trkpt lat="43.6058602" lon="10.5700712"><ele>23.25</ele><time>2026-04-29T09:39:51.908Z</time></trkpt><trkpt lat="43.6057523" lon="10.5700064"><ele>23.5</ele><time>2026-04-29T09:39:53.914Z</time></trkpt><trkpt lat="43.6056423" lon="10.5699576"><ele>23.75</ele><time>2026-04-29T09:39:55.911Z</time></trkpt><trkpt lat="43.6055267" lon="10.5699145"><ele>24.0</ele><time>2026-04-29T09:39:57.919Z</time></trkpt><trkpt lat="43.6054103" lon="10.5698741"><ele>24.0</ele><time>2026-04-29T09:39:59.909Z</time></trkpt><trkpt lat="43.6053013" lon="10.5698224"><ele>24.0</ele><time>2026-04-29T09:40:01.903Z</time></trkpt><trkpt lat="43.6051973" lon="10.569764"><ele>24.0</ele><time>2026-04-29T09:40:03.912Z</time></trkpt><trkpt lat="43.6050861" lon="10.5697192"><ele>24.0</ele><time>2026-04-29T09:40:05.907Z</time></trkpt><trkpt lat="43.6049779" lon="10.5696796"><ele>24.0</ele><time>2026-04-29T09:40:07.921Z</time></trkpt><trkpt lat="43.6048676" lon="10.5696405"><ele>24.0</ele><time>2026-04-29T09:40:09.928Z</time></trkpt><trkpt lat="43.6047549" lon="10.5696063"><ele>24.0</ele><time>2026-04-29T09:40:11.906Z</time></trkpt><trkpt lat="43.6046419" lon="10.5695703"><ele>24.0</ele><time>2026-04-29T09:40:13.914Z</time></trkpt><trkpt lat="43.6045321" lon="10.5695237"><ele>24.2</ele><time>2026-04-29T09:40:15.912Z</time></trkpt><trkpt lat="43.6044289" lon="10.569494"><ele>24.4</ele><time>2026-04-29T09:40:17.921Z</time></trkpt><trkpt lat="43.6043255" lon="10.56946"><ele>24.6</ele><time>2026-04-29T09:40:19.908Z</time></trkpt><trkpt lat="43.604218" lon="10.5694199"><ele>24.8</ele><time>2026-04-29T09:40:21.909Z</time></trkpt><trkpt lat="43.6041168" lon="10.5693771"><ele>25.0</ele><time>2026-04-29T09:40:23.917Z</time></trkpt><trkpt lat="43.6040225" lon="10.5693385"><ele>25.000000000000004</ele><time>2026-04-29T09:40:25.905Z</time></trkpt><trkpt lat="43.6039266" lon="10.5692937"><ele>25.0</ele><time>2026-04-29T09:40:27.919Z</time></trkpt><trkpt lat="43.6038408" lon="10.5692626"><ele>25.0</ele><time>2026-04-29T09:40:29.91Z</time></trkpt><trkpt lat="43.6037604" lon="10.5692343"><ele>25.0</ele><time>2026-04-29T09:40:31.921Z</time></trkpt><trkpt lat="43.6036813" lon="10.5692024"><ele>25.000000000000004</ele><time>2026-04-29T09:40:33.923Z</time></trkpt><trkpt lat="43.6036121" lon="10.5691761"><ele>25.0</ele><time>2026-04-29T09:40:35.922Z</time></trkpt><trkpt lat="43.6035429" lon="10.5691332"><ele>25.166666666666668</ele><time>2026-04-29T09:40:37.934Z</time></trkpt><trkpt lat="43.6034744" lon="10.5690825"><ele>25.333333333333336</ele><time>2026-04-29T09:40:40.931Z</time></trkpt><trkpt lat="43.6034348" lon="10.568994"><ele>25.5</ele><time>2026-04-29T09:40:44.926Z</time></trkpt><trkpt lat="43.6033896" lon="10.568889"><ele>25.666666666666664</ele><time>2026-04-29T09:40:47.929Z</time></trkpt><trkpt lat="43.6033231" lon="10.5688517"><ele>25.833333333333332</ele><time>2026-04-29T09:40:49.913Z</time></trkpt><trkpt lat="43.603234" lon="10.5689013"><ele>26.0</ele><time>2026-04-29T09:40:51.923Z</time></trkpt><trkpt lat="43.6031325" lon="10.5689014"><ele>26.0</ele><time>2026-04-29T09:40:53.917Z</time></trkpt><trkpt lat="43.6030313" lon="10.5688442"><ele>26.0</ele><time>2026-04-29T09:40:55.911Z</time></trkpt><trkpt lat="43.6029244" lon="10.5687844"><ele>26.0</ele><time>2026-04-29T09:40:57.916Z</time></trkpt><trkpt lat="43.6028182" lon="10.5687306"><ele>26.0</ele><time>2026-04-29T09:40:59.917Z</time></trkpt><trkpt lat="43.6027146" lon="10.5686788"><ele>26.0</ele><time>2026-04-29T09:41:01.918Z</time></trkpt><trkpt lat="43.6026105" lon="10.56863"><ele>26.0</ele><time>2026-04-29T09:41:03.916Z</time></trkpt><trkpt lat="43.6025054" lon="10.5685859"><ele>26.0</ele><time>2026-04-29T09:41:05.914Z</time></trkpt><trkpt lat="43.6024016" lon="10.5685387"><ele>26.0</ele><time>2026-04-29T09:41:07.913Z</time></trkpt><trkpt lat="43.6022968" lon="10.5684855"><ele>26.0</ele><time>2026-04-29T09:41:09.914Z</time></trkpt><trkpt lat="43.6021891" lon="10.5684373"><ele>26.0</ele><time>2026-04-29T09:41:11.912Z</time></trkpt><trkpt lat="43.6020807" lon="10.5683942"><ele>25.5</ele><time>2026-04-29T09:41:13.908Z</time></trkpt><trkpt lat="43.6019719" lon="10.5683439"><ele>25.0</ele><time>2026-04-29T09:41:15.907Z</time></trkpt><trkpt lat="43.6018637" lon="10.5683015"><ele>24.5</ele><time>2026-04-29T09:41:17.909Z</time></trkpt><trkpt lat="43.601754" lon="10.5682556"><ele>24.0</ele><time>2026-04-29T09:41:19.905Z</time></trkpt><trkpt lat="43.6016434" lon="10.5682131"><ele>24.0</ele><time>2026-04-29T09:41:21.907Z</time></trkpt><trkpt lat="43.6015337" lon="10.5681718"><ele>24.0</ele><time>2026-04-29T09:41:23.909Z</time></trkpt><trkpt lat="43.6014269" lon="10.5681166"><ele>24.0</ele><time>2026-04-29T09:41:25.91Z</time></trkpt><trkpt lat="43.6013226" lon="10.5680505"><ele>24.0</ele><time>2026-04-29T09:41:27.913Z</time></trkpt><trkpt lat="43.6012168" lon="10.5679862"><ele>24.6</ele><time>2026-04-29T09:41:29.914Z</time></trkpt><trkpt lat="43.6011227" lon="10.5679082"><ele>25.2</ele><time>2026-04-29T09:41:31.905Z</time></trkpt><trkpt lat="43.6010342" lon="10.567824"><ele>25.800000000000004</ele><time>2026-04-29T09:41:33.907Z</time></trkpt><trkpt lat="43.6009536" lon="10.567735"><ele>26.400000000000002</ele><time>2026-04-29T09:41:35.904Z</time></trkpt><trkpt lat="43.6008738" lon="10.5676484"><ele>27.0</ele><time>2026-04-29T09:41:37.908Z</time></trkpt><trkpt lat="43.6007903" lon="10.5675594"><ele>27.200000000000003</ele><time>2026-04-29T09:41:39.907Z</time></trkpt><trkpt lat="43.6007061" lon="10.5674692"><ele>27.400000000000002</ele><time>2026-04-29T09:41:41.905Z</time></trkpt><trkpt lat="43.60063" lon="10.5673783"><ele>27.599999999999998</ele><time>2026-04-29T09:41:43.903Z</time></trkpt><trkpt lat="43.600551" lon="10.5672855"><ele>27.799999999999997</ele><time>2026-04-29T09:41:45.903Z</time></trkpt><trkpt lat="43.60047" lon="10.5671968"><ele>28.0</ele><time>2026-04-29T09:41:47.904Z</time></trkpt><trkpt lat="43.6003878" lon="10.5671042"><ele>28.0</ele><time>2026-04-29T09:41:49.912Z</time></trkpt><trkpt lat="43.6003031" lon="10.5670104"><ele>27.999999999999996</ele><time>2026-04-29T09:41:51.905Z</time></trkpt><trkpt lat="43.6002167" lon="10.5669256"><ele>27.999999999999996</ele><time>2026-04-29T09:41:53.902Z</time></trkpt><trkpt lat="43.6001359" lon="10.5668418"><ele>28.0</ele><time>2026-04-29T09:41:55.897Z</time></trkpt><trkpt lat="43.6000517" lon="10.5667559"><ele>28.0</ele><time>2026-04-29T09:41:57.908Z</time></trkpt><trkpt lat="43.5999674" lon="10.5666694"><ele>28.0</ele><time>2026-04-29T09:41:59.903Z</time></trkpt><trkpt lat="43.5998816" lon="10.5665809"><ele>27.999999999999996</ele><time>2026-04-29T09:42:01.908Z</time></trkpt><trkpt lat="43.5997958" lon="10.56649"><ele>27.999999999999996</ele><time>2026-04-29T09:42:03.916Z</time></trkpt><trkpt lat="43.5997086" lon="10.5664107"><ele>28.0</ele><time>2026-04-29T09:42:05.913Z</time></trkpt><trkpt lat="43.5996216" lon="10.5663303"><ele>28.0</ele><time>2026-04-29T09:42:07.912Z</time></trkpt><trkpt lat="43.5995314" lon="10.5662574"><ele>28.2</ele><time>2026-04-29T09:42:09.915Z</time></trkpt><trkpt lat="43.5994422" lon="10.5661937"><ele>28.4</ele><time>2026-04-29T09:42:11.903Z</time></trkpt><trkpt lat="43.5993477" lon="10.5661516"><ele>28.599999999999998</ele><time>2026-04-29T09:42:13.911Z</time></trkpt><trkpt lat="43.5992481" lon="10.5661208"><ele>28.799999999999997</ele><time>2026-04-29T09:42:15.913Z</time></trkpt><trkpt lat="43.5991431" lon="10.5660914"><ele>29.0</ele><time>2026-04-29T09:42:17.908Z</time></trkpt><trkpt lat="43.5990314" lon="10.5660549"><ele>29.0</ele><time>2026-04-29T09:42:19.907Z</time></trkpt><trkpt lat="43.598919" lon="10.5660169"><ele>29.0</ele><time>2026-04-29T09:42:21.908Z</time></trkpt><trkpt lat="43.5988122" lon="10.5659828"><ele>29.0</ele><time>2026-04-29T09:42:23.915Z</time></trkpt><trkpt lat="43.5986975" lon="10.565943"><ele>29.0</ele><time>2026-04-29T09:42:25.91Z</time></trkpt><trkpt lat="43.598586" lon="10.5659052"><ele>29.0</ele><time>2026-04-29T09:42:27.905Z</time></trkpt><trkpt lat="43.5984733" lon="10.565875"><ele>29.0</ele><time>2026-04-29T09:42:29.913Z</time></trkpt><trkpt lat="43.5983577" lon="10.5658365"><ele>29.0</ele><time>2026-04-29T09:42:31.906Z</time></trkpt><trkpt lat="43.5982441" lon="10.5658005"><ele>29.0</ele><time>2026-04-29T09:42:33.909Z</time></trkpt><trkpt lat="43.5981325" lon="10.5657612"><ele>29.0</ele><time>2026-04-29T09:42:35.923Z</time></trkpt><trkpt lat="43.5980211" lon="10.5657221"><ele>29.0</ele><time>2026-04-29T09:42:37.918Z</time></trkpt><trkpt lat="43.5979064" lon="10.5656833"><ele>29.0</ele><time>2026-04-29T09:42:39.915Z</time></trkpt><trkpt lat="43.5977951" lon="10.5656378"><ele>29.0</ele><time>2026-04-29T09:42:41.915Z</time></trkpt><trkpt lat="43.5976843" lon="10.5656078"><ele>29.25</ele><time>2026-04-29T09:42:43.911Z</time></trkpt><trkpt lat="43.5975714" lon="10.5655811"><ele>29.5</ele><time>2026-04-29T09:42:45.914Z</time></trkpt><trkpt lat="43.5974513" lon="10.56555"><ele>29.75</ele><time>2026-04-29T09:42:47.916Z</time></trkpt><trkpt lat="43.5973401" lon="10.5655131"><ele>30.0</ele><time>2026-04-29T09:42:49.916Z</time></trkpt><trkpt lat="43.5972293" lon="10.5654762"><ele>30.0</ele><time>2026-04-29T09:42:51.913Z</time></trkpt><trkpt lat="43.5971195" lon="10.5654379"><ele>30.0</ele><time>2026-04-29T09:42:53.933Z</time></trkpt><trkpt lat="43.5970147" lon="10.5654054"><ele>30.0</ele><time>2026-04-29T09:42:55.934Z</time></trkpt><trkpt lat="43.5969065" lon="10.5653684"><ele>30.0</ele><time>2026-04-29T09:42:57.91Z</time></trkpt><trkpt lat="43.5967936" lon="10.5653231"><ele>30.0</ele><time>2026-04-29T09:42:59.915Z</time></trkpt><trkpt lat="43.5966844" lon="10.5652865"><ele>30.0</ele><time>2026-04-29T09:43:01.906Z</time></trkpt><trkpt lat="43.596575" lon="10.5652519"><ele>30.0</ele><time>2026-04-29T09:43:03.908Z</time></trkpt><trkpt lat="43.5964713" lon="10.5652194"><ele>30.0</ele><time>2026-04-29T09:43:05.908Z</time></trkpt><trkpt lat="43.5963596" lon="10.5651774"><ele>30.0</ele><time>2026-04-29T09:43:07.909Z</time></trkpt><trkpt lat="43.5962579" lon="10.5651538"><ele>30.2</ele><time>2026-04-29T09:43:09.91Z</time></trkpt><trkpt lat="43.5961605" lon="10.5651243"><ele>30.4</ele><time>2026-04-29T09:43:11.908Z</time></trkpt><trkpt lat="43.5960566" lon="10.5650955"><ele>30.6</ele><time>2026-04-29T09:43:13.909Z</time></trkpt><trkpt lat="43.5959565" lon="10.5650624"><ele>30.8</ele><time>2026-04-29T09:43:15.908Z</time></trkpt><trkpt lat="43.5958634" lon="10.5650346"><ele>31.0</ele><time>2026-04-29T09:43:17.909Z</time></trkpt><trkpt lat="43.5957692" lon="10.5650051"><ele>31.0</ele><time>2026-04-29T09:43:19.91Z</time></trkpt><trkpt lat="43.5956723" lon="10.564978"><ele>31.0</ele><time>2026-04-29T09:43:21.913Z</time></trkpt><trkpt lat="43.5955709" lon="10.5649458"><ele>31.0</ele><time>2026-04-29T09:43:23.911Z</time></trkpt><trkpt lat="43.5954682" lon="10.5649122"><ele>31.0</ele><time>2026-04-29T09:43:25.909Z</time></trkpt><trkpt lat="43.5953676" lon="10.564881"><ele>31.0</ele><time>2026-04-29T09:43:27.911Z</time></trkpt><trkpt lat="43.5952616" lon="10.564847"><ele>30.500000000000004</ele><time>2026-04-29T09:43:29.911Z</time></trkpt><trkpt lat="43.5951549" lon="10.5648128"><ele>30.0</ele><time>2026-04-29T09:43:31.92Z</time></trkpt><trkpt lat="43.5950454" lon="10.5647799"><ele>29.5</ele><time>2026-04-29T09:43:33.92Z</time></trkpt><trkpt lat="43.5949821" lon="10.5647615"><ele>29.0</ele><time>2026-04-29T09:43:34.921Z</time></trkpt><trkpt lat="43.5949192" lon="10.5647415"><ele>28.500000000000004</ele><time>2026-04-29T09:43:35.92Z</time></trkpt><trkpt lat="43.594855" lon="10.5647225"><ele>28.0</ele><time>2026-04-29T09:43:36.917Z</time></trkpt><trkpt lat="43.5947891" lon="10.5647025"><ele>28.0</ele><time>2026-04-29T09:43:37.914Z</time></trkpt><trkpt lat="43.5947214" lon="10.5646791"><ele>28.0</ele><time>2026-04-29T09:43:38.925Z</time></trkpt><trkpt lat="43.594652" lon="10.5646571"><ele>28.0</ele><time>2026-04-29T09:43:39.916Z</time></trkpt><trkpt lat="43.5945834" lon="10.5646341"><ele>28.0</ele><time>2026-04-29T09:43:40.918Z</time></trkpt><trkpt lat="43.5945163" lon="10.5646161"><ele>28.0</ele><time>2026-04-29T09:43:41.923Z</time></trkpt><trkpt lat="43.5944485" lon="10.5645981"><ele>28.0</ele><time>2026-04-29T09:43:42.911Z</time></trkpt><trkpt lat="43.5943825" lon="10.5645814"><ele>28.0</ele><time>2026-04-29T09:43:43.913Z</time></trkpt><trkpt lat="43.5943153" lon="10.5645602"><ele>28.142857142857142</ele><time>2026-04-29T09:43:44.913Z</time></trkpt><trkpt lat="43.5942487" lon="10.5645382"><ele>28.285714285714285</ele><time>2026-04-29T09:43:45.921Z</time></trkpt><trkpt lat="43.5941796" lon="10.5645137"><ele>28.42857142857143</ele><time>2026-04-29T09:43:46.914Z</time></trkpt><trkpt lat="43.5941101" lon="10.5644881"><ele>28.571428571428573</ele><time>2026-04-29T09:43:47.914Z</time></trkpt><trkpt lat="43.594044" lon="10.5644608"><ele>28.714285714285715</ele><time>2026-04-29T09:43:48.921Z</time></trkpt><trkpt lat="43.5939812" lon="10.5644343"><ele>28.85714285714286</ele><time>2026-04-29T09:43:49.914Z</time></trkpt><trkpt lat="43.593918" lon="10.5644074"><ele>29.000000000000004</ele><time>2026-04-29T09:43:50.917Z</time></trkpt><trkpt lat="43.5938553" lon="10.5643806"><ele>29.285714285714292</ele><time>2026-04-29T09:43:51.913Z</time></trkpt><trkpt lat="43.5937946" lon="10.5643543"><ele>29.571428571428573</ele><time>2026-04-29T09:43:52.915Z</time></trkpt><trkpt lat="43.5937337" lon="10.5643242"><ele>29.85714285714286</ele><time>2026-04-29T09:43:53.92Z</time></trkpt><trkpt lat="43.5936748" lon="10.5642917"><ele>30.142857142857146</ele><time>2026-04-29T09:43:54.913Z</time></trkpt><trkpt lat="43.5936166" lon="10.5642581"><ele>30.42857142857143</ele><time>2026-04-29T09:43:55.914Z</time></trkpt><trkpt lat="43.5935578" lon="10.5642254"><ele>30.714285714285715</ele><time>2026-04-29T09:43:56.914Z</time></trkpt><trkpt lat="43.5934466" lon="10.564161"><ele>31.0</ele><time>2026-04-29T09:43:58.919Z</time></trkpt><trkpt lat="43.5933367" lon="10.5640919"><ele>31.5</ele><time>2026-04-29T09:44:00.908Z</time></trkpt><trkpt lat="43.5932277" lon="10.5640225"><ele>32.0</ele><time>2026-04-29T09:44:02.907Z</time></trkpt><trkpt lat="43.5931191" lon="10.5639628"><ele>32.5</ele><time>2026-04-29T09:44:04.905Z</time></trkpt><trkpt lat="43.5930073" lon="10.5639021"><ele>33.0</ele><time>2026-04-29T09:44:06.911Z</time></trkpt><trkpt lat="43.5929014" lon="10.5638357"><ele>32.75</ele><time>2026-04-29T09:44:08.921Z</time></trkpt><trkpt lat="43.5927973" lon="10.5637708"><ele>32.5</ele><time>2026-04-29T09:44:10.909Z</time></trkpt><trkpt lat="43.5926971" lon="10.5637026"><ele>32.25</ele><time>2026-04-29T09:44:12.913Z</time></trkpt><trkpt lat="43.5926009" lon="10.563627"><ele>32.0</ele><time>2026-04-29T09:44:14.911Z</time></trkpt><trkpt lat="43.5925093" lon="10.5635358"><ele>31.666666666666664</ele><time>2026-04-29T09:44:16.916Z</time></trkpt><trkpt lat="43.5924158" lon="10.5634271"><ele>31.333333333333332</ele><time>2026-04-29T09:44:18.918Z</time></trkpt><trkpt lat="43.5923647" lon="10.5633667"><ele>31.0</ele><time>2026-04-29T09:44:19.908Z</time></trkpt><trkpt lat="43.5923107" lon="10.5633052"><ele>30.666666666666664</ele><time>2026-04-29T09:44:20.91Z</time></trkpt><trkpt lat="43.5922553" lon="10.5632429"><ele>30.333333333333332</ele><time>2026-04-29T09:44:21.912Z</time></trkpt><trkpt lat="43.5921985" lon="10.5631788"><ele>30.0</ele><time>2026-04-29T09:44:22.912Z</time></trkpt><trkpt lat="43.5921377" lon="10.5631124"><ele>30.0</ele><time>2026-04-29T09:44:23.916Z</time></trkpt><trkpt lat="43.5920763" lon="10.5630439"><ele>30.0</ele><time>2026-04-29T09:44:24.91Z</time></trkpt><trkpt lat="43.5920127" lon="10.5629748"><ele>30.0</ele><time>2026-04-29T09:44:25.91Z</time></trkpt><trkpt lat="43.5919497" lon="10.5629014"><ele>30.0</ele><time>2026-04-29T09:44:26.923Z</time></trkpt><trkpt lat="43.5918879" lon="10.562831"><ele>30.0</ele><time>2026-04-29T09:44:27.922Z</time></trkpt><trkpt lat="43.5918257" lon="10.5627633"><ele>30.0</ele><time>2026-04-29T09:44:28.933Z</time></trkpt><trkpt lat="43.5917608" lon="10.5626949"><ele>29.833333333333332</ele><time>2026-04-29T09:44:29.918Z</time></trkpt><trkpt lat="43.5916962" lon="10.5626231"><ele>29.666666666666664</ele><time>2026-04-29T09:44:30.913Z</time></trkpt><trkpt lat="43.5916297" lon="10.5625556"><ele>29.5</ele><time>2026-04-29T09:44:31.912Z</time></trkpt><trkpt lat="43.5915631" lon="10.562493"><ele>29.333333333333332</ele><time>2026-04-29T09:44:32.913Z</time></trkpt><trkpt lat="43.5914985" lon="10.5624362"><ele>29.166666666666664</ele><time>2026-04-29T09:44:33.918Z</time></trkpt><trkpt lat="43.5914348" lon="10.5623828"><ele>29.0</ele><time>2026-04-29T09:44:34.91Z</time></trkpt><trkpt lat="43.5913724" lon="10.5623302"><ele>29.000000000000004</ele><time>2026-04-29T09:44:35.912Z</time></trkpt><trkpt lat="43.591311" lon="10.5622848"><ele>29.0</ele><time>2026-04-29T09:44:36.914Z</time></trkpt><trkpt lat="43.5912506" lon="10.5622444"><ele>29.000000000000004</ele><time>2026-04-29T09:44:37.913Z</time></trkpt><trkpt lat="43.5911902" lon="10.5622051"><ele>29.000000000000004</ele><time>2026-04-29T09:44:38.922Z</time></trkpt><trkpt lat="43.5911265" lon="10.5621672"><ele>29.0</ele><time>2026-04-29T09:44:39.916Z</time></trkpt><trkpt lat="43.5910618" lon="10.562129"><ele>29.000000000000004</ele><time>2026-04-29T09:44:40.909Z</time></trkpt><trkpt lat="43.5909975" lon="10.5620884"><ele>29.000000000000004</ele><time>2026-04-29T09:44:41.91Z</time></trkpt><trkpt lat="43.5909313" lon="10.5620469"><ele>28.71428571428572</ele><time>2026-04-29T09:44:42.909Z</time></trkpt><trkpt lat="43.590868" lon="10.5620065"><ele>28.42857142857143</ele><time>2026-04-29T09:44:43.911Z</time></trkpt><trkpt lat="43.5908021" lon="10.5619659"><ele>28.142857142857146</ele><time>2026-04-29T09:44:44.919Z</time></trkpt><trkpt lat="43.5907369" lon="10.5619246"><ele>27.85714285714286</ele><time>2026-04-29T09:44:45.913Z</time></trkpt><trkpt lat="43.5906727" lon="10.5618824"><ele>27.57142857142857</ele><time>2026-04-29T09:44:46.915Z</time></trkpt><trkpt lat="43.5906123" lon="10.5618387"><ele>27.285714285714285</ele><time>2026-04-29T09:44:47.916Z</time></trkpt><trkpt lat="43.5905499" lon="10.561797"><ele>27.0</ele><time>2026-04-29T09:44:48.91Z</time></trkpt><trkpt lat="43.5904897" lon="10.561757"><ele>27.0</ele><time>2026-04-29T09:44:49.916Z</time></trkpt><trkpt lat="43.59043" lon="10.5617124"><ele>27.0</ele><time>2026-04-29T09:44:50.911Z</time></trkpt><trkpt lat="43.5903702" lon="10.5616721"><ele>27.0</ele><time>2026-04-29T09:44:51.911Z</time></trkpt><trkpt lat="43.5903118" lon="10.5616309"><ele>27.0</ele><time>2026-04-29T09:44:52.908Z</time></trkpt><trkpt lat="43.5902537" lon="10.5615922"><ele>27.0</ele><time>2026-04-29T09:44:53.916Z</time></trkpt><trkpt lat="43.5901945" lon="10.5615506"><ele>27.0</ele><time>2026-04-29T09:44:54.911Z</time></trkpt><trkpt lat="43.590136" lon="10.5615075"><ele>27.0</ele><time>2026-04-29T09:44:55.917Z</time></trkpt><trkpt lat="43.5900799" lon="10.5614629"><ele>27.166666666666668</ele><time>2026-04-29T09:44:56.914Z</time></trkpt><trkpt lat="43.5900237" lon="10.5614195"><ele>27.333333333333336</ele><time>2026-04-29T09:44:57.913Z</time></trkpt><trkpt lat="43.5899184" lon="10.5613404"><ele>27.5</ele><time>2026-04-29T09:44:59.894Z</time></trkpt><trkpt lat="43.5898053" lon="10.5612575"><ele>27.666666666666668</ele><time>2026-04-29T09:45:01.884Z</time></trkpt><trkpt lat="43.5897446" lon="10.5612142"><ele>27.833333333333336</ele><time>2026-04-29T09:45:02.879Z</time></trkpt><trkpt lat="43.5896894" lon="10.5611706"><ele>28.0</ele><time>2026-04-29T09:45:03.884Z</time></trkpt><trkpt lat="43.5896283" lon="10.561123"><ele>28.000000000000004</ele><time>2026-04-29T09:45:04.883Z</time></trkpt><trkpt lat="43.5895697" lon="10.561077"><ele>28.0</ele><time>2026-04-29T09:45:05.882Z</time></trkpt><trkpt lat="43.589455" lon="10.5609923"><ele>28.0</ele><time>2026-04-29T09:45:07.888Z</time></trkpt><trkpt lat="43.5893946" lon="10.5609474"><ele>28.0</ele><time>2026-04-29T09:45:08.889Z</time></trkpt><trkpt lat="43.5893344" lon="10.5609006"><ele>28.000000000000004</ele><time>2026-04-29T09:45:09.893Z</time></trkpt><trkpt lat="43.5892776" lon="10.5608571"><ele>28.0</ele><time>2026-04-29T09:45:10.89Z</time></trkpt><trkpt lat="43.5891657" lon="10.5607765"><ele>28.4</ele><time>2026-04-29T09:45:12.891Z</time></trkpt><trkpt lat="43.5890585" lon="10.5606961"><ele>28.799999999999997</ele><time>2026-04-29T09:45:14.893Z</time></trkpt><trkpt lat="43.5889578" lon="10.5606078"><ele>29.2</ele><time>2026-04-29T09:45:16.893Z</time></trkpt><trkpt lat="43.5888641" lon="10.5605273"><ele>29.6</ele><time>2026-04-29T09:45:18.898Z</time></trkpt><trkpt lat="43.5887924" lon="10.560442"><ele>30.0</ele><time>2026-04-29T09:45:20.89Z</time></trkpt><trkpt lat="43.5887262" lon="10.5603633"><ele>30.4</ele><time>2026-04-29T09:45:22.887Z</time></trkpt><trkpt lat="43.5886314" lon="10.5603507"><ele>30.8</ele><time>2026-04-29T09:45:24.888Z</time></trkpt><trkpt lat="43.5885278" lon="10.5604043"><ele>31.200000000000003</ele><time>2026-04-29T09:45:26.89Z</time></trkpt><trkpt lat="43.5884334" lon="10.5604732"><ele>31.6</ele><time>2026-04-29T09:45:28.889Z</time></trkpt><trkpt lat="43.5883385" lon="10.5605442"><ele>32.0</ele><time>2026-04-29T09:45:30.886Z</time></trkpt><trkpt lat="43.5882374" lon="10.5606096"><ele>32.0</ele><time>2026-04-29T09:45:32.889Z</time></trkpt><trkpt lat="43.5881392" lon="10.5606553"><ele>32.0</ele><time>2026-04-29T09:45:34.883Z</time></trkpt><trkpt lat="43.5880303" lon="10.5607159"><ele>32.0</ele><time>2026-04-29T09:45:36.891Z</time></trkpt><trkpt lat="43.5879202" lon="10.5607802"><ele>32.0</ele><time>2026-04-29T09:45:38.892Z</time></trkpt><trkpt lat="43.5878052" lon="10.5608427"><ele>32.0</ele><time>2026-04-29T09:45:40.892Z</time></trkpt><trkpt lat="43.5876886" lon="10.5609048"><ele>32.0</ele><time>2026-04-29T09:45:42.896Z</time></trkpt><trkpt lat="43.5876302" lon="10.5609413"><ele>32.0</ele><time>2026-04-29T09:45:43.895Z</time></trkpt><trkpt lat="43.5875715" lon="10.5609773"><ele>32.0</ele><time>2026-04-29T09:45:44.894Z</time></trkpt><trkpt lat="43.5874607" lon="10.5610403"><ele>32.0</ele><time>2026-04-29T09:45:46.894Z</time></trkpt><trkpt lat="43.5873472" lon="10.5610946"><ele>32.0</ele><time>2026-04-29T09:45:48.894Z</time></trkpt><trkpt lat="43.5872358" lon="10.561152"><ele>32.0</ele><time>2026-04-29T09:45:50.893Z</time></trkpt><trkpt lat="43.5871193" lon="10.5611786"><ele>32.0</ele><time>2026-04-29T09:45:52.894Z</time></trkpt><trkpt lat="43.5869973" lon="10.5611745"><ele>32.0</ele><time>2026-04-29T09:45:54.892Z</time></trkpt><trkpt lat="43.5868787" lon="10.5611514"><ele>34.6</ele><time>2026-04-29T09:45:56.896Z</time></trkpt><trkpt lat="43.5868171" lon="10.5611318"><ele>37.2</ele><time>2026-04-29T09:45:57.894Z</time></trkpt><trkpt lat="43.5867005" lon="10.5610843"><ele>39.8</ele><time>2026-04-29T09:45:59.887Z</time></trkpt><trkpt lat="43.5865861" lon="10.5610428"><ele>42.4</ele><time>2026-04-29T09:46:01.896Z</time></trkpt><trkpt lat="43.5864677" lon="10.5610039"><ele>45.0</ele><time>2026-04-29T09:46:03.9Z</time></trkpt><trkpt lat="43.5863492" lon="10.5609659"><ele>45.0</ele><time>2026-04-29T09:46:05.895Z</time></trkpt><trkpt lat="43.586236" lon="10.5609227"><ele>45.0</ele><time>2026-04-29T09:46:07.902Z</time></trkpt><trkpt lat="43.5861244" lon="10.5608843"><ele>45.0</ele><time>2026-04-29T09:46:09.895Z</time></trkpt><trkpt lat="43.5860055" lon="10.5608656"><ele>45.0</ele><time>2026-04-29T09:46:11.892Z</time></trkpt><trkpt lat="43.5858835" lon="10.5608918"><ele>44.0</ele><time>2026-04-29T09:46:13.897Z</time></trkpt><trkpt lat="43.5858212" lon="10.5609174"><ele>43.0</ele><time>2026-04-29T09:46:14.897Z</time></trkpt><trkpt lat="43.585764" lon="10.5609641"><ele>42.0</ele><time>2026-04-29T09:46:15.899Z</time></trkpt><trkpt lat="43.585711" lon="10.5610222"><ele>41.0</ele><time>2026-04-29T09:46:16.897Z</time></trkpt><trkpt lat="43.5856581" lon="10.5610899"><ele>40.0</ele><time>2026-04-29T09:46:17.894Z</time></trkpt><trkpt lat="43.5856108" lon="10.5611523"><ele>39.0</ele><time>2026-04-29T09:46:18.893Z</time></trkpt><trkpt lat="43.5855691" lon="10.5612247"><ele>38.0</ele><time>2026-04-29T09:46:19.892Z</time></trkpt><trkpt lat="43.5855233" lon="10.5613005"><ele>37.57142857142857</ele><time>2026-04-29T09:46:20.898Z</time></trkpt><trkpt lat="43.5854787" lon="10.5613676"><ele>37.142857142857146</ele><time>2026-04-29T09:46:21.889Z</time></trkpt><trkpt lat="43.5854244" lon="10.5614278"><ele>36.714285714285715</ele><time>2026-04-29T09:46:22.888Z</time></trkpt><trkpt lat="43.5853697" lon="10.5614849"><ele>36.285714285714285</ele><time>2026-04-29T09:46:23.894Z</time></trkpt><trkpt lat="43.5853107" lon="10.5615318"><ele>35.85714285714286</ele><time>2026-04-29T09:46:24.894Z</time></trkpt><trkpt lat="43.5852543" lon="10.5615716"><ele>35.42857142857143</ele><time>2026-04-29T09:46:25.9Z</time></trkpt><trkpt lat="43.5851534" lon="10.5616274"><ele>35.0</ele><time>2026-04-29T09:46:27.896Z</time></trkpt><trkpt lat="43.5850574" lon="10.5616734"><ele>35.0</ele><time>2026-04-29T09:46:29.886Z</time></trkpt><trkpt lat="43.5849805" lon="10.56172"><ele>35.0</ele><time>2026-04-29T09:46:31.887Z</time></trkpt><trkpt lat="43.5848892" lon="10.561746"><ele>35.0</ele><time>2026-04-29T09:46:33.895Z</time></trkpt><trkpt lat="43.584804" lon="10.5617728"><ele>35.0</ele><time>2026-04-29T09:46:35.918Z</time></trkpt><trkpt lat="43.5847269" lon="10.5618041"><ele>35.0</ele><time>2026-04-29T09:46:37.914Z</time></trkpt><trkpt lat="43.5846646" lon="10.5618345"><ele>35.0</ele><time>2026-04-29T09:46:39.913Z</time></trkpt><trkpt lat="43.5846039" lon="10.5618632"><ele>35.0</ele><time>2026-04-29T09:46:41.905Z</time></trkpt><trkpt lat="43.5845365" lon="10.5618857"><ele>35.0</ele><time>2026-04-29T09:46:43.896Z</time></trkpt><trkpt lat="43.584471" lon="10.5619091"><ele>35.0</ele><time>2026-04-29T09:46:45.907Z</time></trkpt><trkpt lat="43.5844055" lon="10.56194"><ele>35.0</ele><time>2026-04-29T09:46:47.917Z</time></trkpt><trkpt lat="43.5843387" lon="10.5619671"><ele>35.0</ele><time>2026-04-29T09:46:49.903Z</time></trkpt><trkpt lat="43.5842726" lon="10.5619987"><ele>35.0</ele><time>2026-04-29T09:46:51.901Z</time></trkpt><trkpt lat="43.5841977" lon="10.5620301"><ele>35.0</ele><time>2026-04-29T09:46:53.894Z</time></trkpt><trkpt lat="43.584138" lon="10.5620723"><ele>37.142857142857146</ele><time>2026-04-29T09:46:55.889Z</time></trkpt><trkpt lat="43.5840493" lon="10.5621211"><ele>39.285714285714285</ele><time>2026-04-29T09:46:58.891Z</time></trkpt><trkpt lat="43.5839891" lon="10.5621586"><ele>41.42857142857143</ele><time>2026-04-29T09:47:00.9Z</time></trkpt><trkpt lat="43.5839289" lon="10.5622124"><ele>43.57142857142857</ele><time>2026-04-29T09:47:02.908Z</time></trkpt><trkpt lat="43.5838588" lon="10.562247"><ele>45.714285714285715</ele><time>2026-04-29T09:47:04.903Z</time></trkpt><trkpt lat="43.5837884" lon="10.5622711"><ele>47.85714285714286</ele><time>2026-04-29T09:47:06.909Z</time></trkpt><trkpt lat="43.5837277" lon="10.5623015"><ele>50.0</ele><time>2026-04-29T09:47:08.897Z</time></trkpt><trkpt lat="43.5836669" lon="10.5623292"><ele>50.00000000000001</ele><time>2026-04-29T09:47:10.902Z</time></trkpt><trkpt lat="43.5836058" lon="10.5623517"><ele>50.0</ele><time>2026-04-29T09:47:12.896Z</time></trkpt><trkpt lat="43.5835262" lon="10.5623816"><ele>50.0</ele><time>2026-04-29T09:47:15.884Z</time></trkpt><trkpt lat="43.5834565" lon="10.562418"><ele>50.0</ele><time>2026-04-29T09:47:18.875Z</time></trkpt><trkpt lat="43.583379" lon="10.5624482"><ele>50.00000000000001</ele><time>2026-04-29T09:47:21.888Z</time></trkpt><trkpt lat="43.5833021" lon="10.5624672"><ele>50.0</ele><time>2026-04-29T09:47:24.886Z</time></trkpt><trkpt lat="43.5832214" lon="10.562484"><ele>50.00000000000001</ele><time>2026-04-29T09:47:27.891Z</time></trkpt><trkpt lat="43.5831347" lon="10.5625057"><ele>50.0</ele><time>2026-04-29T09:47:30.9Z</time></trkpt><trkpt lat="43.5830508" lon="10.5625298"><ele>50.0</ele><time>2026-04-29T09:47:33.902Z</time></trkpt><trkpt lat="43.5829709" lon="10.5625446"><ele>50.0</ele><time>2026-04-29T09:47:36.9Z</time></trkpt><trkpt lat="43.5828891" lon="10.5625434"><ele>50.00000000000001</ele><time>2026-04-29T09:47:39.901Z</time></trkpt><trkpt lat="43.5827982" lon="10.5625402"><ele>50.0</ele><time>2026-04-29T09:47:42.896Z</time></trkpt><trkpt lat="43.5827298" lon="10.562535"><ele>50.833333333333336</ele><time>2026-04-29T09:47:44.901Z</time></trkpt><trkpt lat="43.5826625" lon="10.5625189"><ele>51.66666666666667</ele><time>2026-04-29T09:47:46.904Z</time></trkpt><trkpt lat="43.5825852" lon="10.5624869"><ele>52.5</ele><time>2026-04-29T09:47:49.909Z</time></trkpt><trkpt lat="43.5824972" lon="10.5624754"><ele>53.33333333333333</ele><time>2026-04-29T09:47:52.913Z</time></trkpt><trkpt lat="43.5824159" lon="10.562467"><ele>54.166666666666664</ele><time>2026-04-29T09:47:55.901Z</time></trkpt><trkpt lat="43.5823498" lon="10.5624427"><ele>55.0</ele><time>2026-04-29T09:47:57.901Z</time></trkpt><trkpt lat="43.5822663" lon="10.5624087"><ele>54.99999999999999</ele><time>2026-04-29T09:48:00.903Z</time></trkpt><trkpt lat="43.5822049" lon="10.5623863"><ele>55.0</ele><time>2026-04-29T09:48:02.927Z</time></trkpt><trkpt lat="43.5821154" lon="10.5623629"><ele>55.0</ele><time>2026-04-29T09:48:05.923Z</time></trkpt><trkpt lat="43.5820481" lon="10.5623472"><ele>55.0</ele><time>2026-04-29T09:48:08.912Z</time></trkpt><trkpt lat="43.58197" lon="10.5623329"><ele>54.99999999999999</ele><time>2026-04-29T09:48:11.915Z</time></trkpt><trkpt lat="43.5818931" lon="10.5623209"><ele>55.0</ele><time>2026-04-29T09:48:14.906Z</time></trkpt><trkpt lat="43.5818223" lon="10.5623061"><ele>55.666666666666664</ele><time>2026-04-29T09:48:17.909Z</time></trkpt><trkpt lat="43.5817474" lon="10.5622877"><ele>56.33333333333333</ele><time>2026-04-29T09:48:20.921Z</time></trkpt><trkpt lat="43.5816735" lon="10.5622674"><ele>57.0</ele><time>2026-04-29T09:48:23.912Z</time></trkpt><trkpt lat="43.5815852" lon="10.5622479"><ele>57.66666666666667</ele><time>2026-04-29T09:48:26.908Z</time></trkpt><trkpt lat="43.5815211" lon="10.5622544"><ele>58.333333333333336</ele><time>2026-04-29T09:48:28.905Z</time></trkpt><trkpt lat="43.5814363" lon="10.5622616"><ele>59.0</ele><time>2026-04-29T09:48:31.909Z</time></trkpt><trkpt lat="43.5813591" lon="10.562277"><ele>59.00000000000001</ele><time>2026-04-29T09:48:35.906Z</time></trkpt><trkpt lat="43.5812955" lon="10.5622756"><ele>59.0</ele><time>2026-04-29T09:48:38.927Z</time></trkpt><trkpt lat="43.5812159" lon="10.5622591"><ele>59.0</ele><time>2026-04-29T09:48:41.931Z</time></trkpt><trkpt lat="43.5811253" lon="10.5622461"><ele>59.0</ele><time>2026-04-29T09:48:44.911Z</time></trkpt><trkpt lat="43.5810597" lon="10.5622282"><ele>59.00000000000001</ele><time>2026-04-29T09:48:46.917Z</time></trkpt><trkpt lat="43.5809712" lon="10.5621921"><ele>59.0</ele><time>2026-04-29T09:48:49.935Z</time></trkpt><trkpt lat="43.5809064" lon="10.5621602"><ele>59.00000000000001</ele><time>2026-04-29T09:48:51.927Z</time></trkpt><trkpt lat="43.5808291" lon="10.5620868"><ele>59.0</ele><time>2026-04-29T09:48:54.918Z</time></trkpt><trkpt lat="43.5807755" lon="10.5620337"><ele>59.0</ele><time>2026-04-29T09:48:56.922Z</time></trkpt><trkpt lat="43.5807026" lon="10.5619744"><ele>59.0</ele><time>2026-04-29T09:48:59.909Z</time></trkpt><trkpt lat="43.5806229" lon="10.5619215"><ele>59.00000000000001</ele><time>2026-04-29T09:49:02.913Z</time></trkpt><trkpt lat="43.5805408" lon="10.5618681"><ele>59.0</ele><time>2026-04-29T09:49:05.908Z</time></trkpt><trkpt lat="43.5804829" lon="10.5618288"><ele>59.00000000000001</ele><time>2026-04-29T09:49:07.926Z</time></trkpt><trkpt lat="43.580408" lon="10.561777"><ele>59.0</ele><time>2026-04-29T09:49:10.901Z</time></trkpt><trkpt lat="43.5803292" lon="10.5617093"><ele>59.0</ele><time>2026-04-29T09:49:13.907Z</time></trkpt><trkpt lat="43.580273" lon="10.5616643"><ele>59.0</ele><time>2026-04-29T09:49:15.893Z</time></trkpt><trkpt lat="43.5802024" lon="10.5616154"><ele>59.00000000000001</ele><time>2026-04-29T09:49:18.891Z</time></trkpt><trkpt lat="43.5801273" lon="10.5615515"><ele>59.0</ele><time>2026-04-29T09:49:21.89Z</time></trkpt><trkpt lat="43.5800637" lon="10.5614994"><ele>60.50000000000001</ele><time>2026-04-29T09:49:24.898Z</time></trkpt><trkpt lat="43.579995" lon="10.5614521"><ele>62.0</ele><time>2026-04-29T09:49:27.898Z</time></trkpt><trkpt lat="43.5799328" lon="10.5613942"><ele>63.5</ele><time>2026-04-29T09:49:30.905Z</time></trkpt><trkpt lat="43.5798676" lon="10.5613576"><ele>65.0</ele><time>2026-04-29T09:49:33.912Z</time></trkpt><trkpt lat="43.5797971" lon="10.5613002"><ele>66.5</ele><time>2026-04-29T09:49:36.911Z</time></trkpt><trkpt lat="43.5797176" lon="10.5612702"><ele>68.0</ele><time>2026-04-29T09:49:39.915Z</time></trkpt><trkpt lat="43.5796465" lon="10.5612274"><ele>68.16666666666667</ele><time>2026-04-29T09:49:42.919Z</time></trkpt><trkpt lat="43.5795716" lon="10.5611824"><ele>68.33333333333334</ele><time>2026-04-29T09:49:45.907Z</time></trkpt><trkpt lat="43.5795143" lon="10.5611413"><ele>68.5</ele><time>2026-04-29T09:49:47.914Z</time></trkpt><trkpt lat="43.5794657" lon="10.5610836"><ele>68.66666666666667</ele><time>2026-04-29T09:49:49.906Z</time></trkpt><trkpt lat="43.5794027" lon="10.5609914"><ele>68.83333333333333</ele><time>2026-04-29T09:49:52.897Z</time></trkpt><trkpt lat="43.5793538" lon="10.5608848"><ele>69.0</ele><time>2026-04-29T09:49:55.906Z</time></trkpt><trkpt lat="43.5792929" lon="10.5607929"><ele>69.66666666666667</ele><time>2026-04-29T09:49:58.905Z</time></trkpt><trkpt lat="43.579247" lon="10.560699"><ele>70.33333333333333</ele><time>2026-04-29T09:50:01.897Z</time></trkpt><trkpt lat="43.5791945" lon="10.5606201"><ele>71.0</ele><time>2026-04-29T09:50:04.9Z</time></trkpt><trkpt lat="43.5791359" lon="10.5605224"><ele>71.66666666666666</ele><time>2026-04-29T09:50:07.9Z</time></trkpt><trkpt lat="43.5790863" lon="10.5604157"><ele>72.33333333333333</ele><time>2026-04-29T09:50:10.902Z</time></trkpt><trkpt lat="43.5790518" lon="10.5603405"><ele>73.0</ele><time>2026-04-29T09:50:12.896Z</time></trkpt><trkpt lat="43.5789982" lon="10.5602457"><ele>73.83333333333333</ele><time>2026-04-29T09:50:15.903Z</time></trkpt><trkpt lat="43.5789415" lon="10.5601753"><ele>74.66666666666666</ele><time>2026-04-29T09:50:18.897Z</time></trkpt><trkpt lat="43.5788842" lon="10.560102"><ele>75.5</ele><time>2026-04-29T09:50:21.897Z</time></trkpt><trkpt lat="43.5788228" lon="10.560027"><ele>76.33333333333333</ele><time>2026-04-29T09:50:24.899Z</time></trkpt><trkpt lat="43.5787704" lon="10.5599699"><ele>77.16666666666667</ele><time>2026-04-29T09:50:27.901Z</time></trkpt><trkpt lat="43.5787106" lon="10.5599162"><ele>78.0</ele><time>2026-04-29T09:50:30.902Z</time></trkpt><trkpt lat="43.5786332" lon="10.559891"><ele>78.16666666666667</ele><time>2026-04-29T09:50:33.902Z</time></trkpt><trkpt lat="43.5785533" lon="10.5598954"><ele>78.33333333333333</ele><time>2026-04-29T09:50:36.895Z</time></trkpt><trkpt lat="43.5784566" lon="10.559919"><ele>78.5</ele><time>2026-04-29T09:50:39.897Z</time></trkpt><trkpt lat="43.5783894" lon="10.5599311"><ele>78.66666666666666</ele><time>2026-04-29T09:50:41.892Z</time></trkpt><trkpt lat="43.5783245" lon="10.5599427"><ele>78.83333333333333</ele><time>2026-04-29T09:50:43.897Z</time></trkpt><trkpt lat="43.5782371" lon="10.5599684"><ele>79.0</ele><time>2026-04-29T09:50:46.9Z</time></trkpt><trkpt lat="43.5781739" lon="10.5599853"><ele>79.0</ele><time>2026-04-29T09:50:48.903Z</time></trkpt><trkpt lat="43.5781067" lon="10.5599943"><ele>79.0</ele><time>2026-04-29T09:50:50.914Z</time></trkpt><trkpt lat="43.5780159" lon="10.5600294"><ele>79.0</ele><time>2026-04-29T09:50:53.902Z</time></trkpt><trkpt lat="43.5779507" lon="10.5600462"><ele>79.0</ele><time>2026-04-29T09:50:55.91Z</time></trkpt><trkpt lat="43.5778826" lon="10.560083"><ele>79.0</ele><time>2026-04-29T09:50:57.921Z</time></trkpt><trkpt lat="43.5778072" lon="10.5601358"><ele>79.0</ele><time>2026-04-29T09:50:59.91Z</time></trkpt><trkpt lat="43.577739" lon="10.5602004"><ele>79.6</ele><time>2026-04-29T09:51:01.908Z</time></trkpt><trkpt lat="43.5776692" lon="10.5602845"><ele>80.2</ele><time>2026-04-29T09:51:03.906Z</time></trkpt><trkpt lat="43.5776053" lon="10.5603837"><ele>80.8</ele><time>2026-04-29T09:51:05.918Z</time></trkpt><trkpt lat="43.5775494" lon="10.5604768"><ele>81.39999999999999</ele><time>2026-04-29T09:51:07.908Z</time></trkpt><trkpt lat="43.5774809" lon="10.5605691"><ele>82.0</ele><time>2026-04-29T09:51:09.909Z</time></trkpt><trkpt lat="43.5774046" lon="10.5606617"><ele>80.8</ele><time>2026-04-29T09:51:11.905Z</time></trkpt><trkpt lat="43.577327" lon="10.5607481"><ele>79.6</ele><time>2026-04-29T09:51:13.904Z</time></trkpt><trkpt lat="43.5772477" lon="10.5608306"><ele>78.39999999999999</ele><time>2026-04-29T09:51:15.929Z</time></trkpt><trkpt lat="43.5771691" lon="10.5609109"><ele>77.19999999999999</ele><time>2026-04-29T09:51:17.907Z</time></trkpt><trkpt lat="43.5771102" lon="10.5610031"><ele>76.0</ele><time>2026-04-29T09:51:19.91Z</time></trkpt><trkpt lat="43.5770438" lon="10.561095"><ele>76.8</ele><time>2026-04-29T09:51:21.901Z</time></trkpt><trkpt lat="43.5769752" lon="10.5611699"><ele>77.6</ele><time>2026-04-29T09:51:23.907Z</time></trkpt><trkpt lat="43.5769092" lon="10.5612416"><ele>78.4</ele><time>2026-04-29T09:51:25.904Z</time></trkpt><trkpt lat="43.5768403" lon="10.5613165"><ele>79.2</ele><time>2026-04-29T09:51:27.903Z</time></trkpt><trkpt lat="43.576775" lon="10.5614098"><ele>80.0</ele><time>2026-04-29T09:51:29.908Z</time></trkpt><trkpt lat="43.5767022" lon="10.5615121"><ele>81.2</ele><time>2026-04-29T09:51:31.898Z</time></trkpt><trkpt lat="43.5766334" lon="10.5616007"><ele>82.4</ele><time>2026-04-29T09:51:33.9Z</time></trkpt><trkpt lat="43.5765709" lon="10.5616919"><ele>83.6</ele><time>2026-04-29T09:51:35.906Z</time></trkpt><trkpt lat="43.5765" lon="10.5617663"><ele>84.8</ele><time>2026-04-29T09:51:37.918Z</time></trkpt><trkpt lat="43.5764188" lon="10.5618134"><ele>86.0</ele><time>2026-04-29T09:51:39.917Z</time></trkpt><trkpt lat="43.5763351" lon="10.5618593"><ele>86.0</ele><time>2026-04-29T09:51:41.909Z</time></trkpt><trkpt lat="43.5762546" lon="10.5618956"><ele>86.0</ele><time>2026-04-29T09:51:43.908Z</time></trkpt><trkpt lat="43.5761644" lon="10.5619265"><ele>86.0</ele><time>2026-04-29T09:51:45.912Z</time></trkpt><trkpt lat="43.5760639" lon="10.5619607"><ele>86.0</ele><time>2026-04-29T09:51:47.92Z</time></trkpt><trkpt lat="43.5759685" lon="10.5620069"><ele>86.0</ele><time>2026-04-29T09:51:49.908Z</time></trkpt><trkpt lat="43.5758696" lon="10.5620625"><ele>84.8</ele><time>2026-04-29T09:51:51.888Z</time></trkpt><trkpt lat="43.5757815" lon="10.5621306"><ele>83.6</ele><time>2026-04-29T09:51:53.888Z</time></trkpt><trkpt lat="43.5756921" lon="10.5621965"><ele>82.4</ele><time>2026-04-29T09:51:55.892Z</time></trkpt><trkpt lat="43.5755856" lon="10.5622831"><ele>81.2</ele><time>2026-04-29T09:51:57.913Z</time></trkpt><trkpt lat="43.5754833" lon="10.5623604"><ele>80.0</ele><time>2026-04-29T09:51:59.89Z</time></trkpt><trkpt lat="43.5753856" lon="10.5624364"><ele>80.66666666666667</ele><time>2026-04-29T09:52:01.892Z</time></trkpt><trkpt lat="43.5752865" lon="10.5625247"><ele>81.33333333333334</ele><time>2026-04-29T09:52:03.891Z</time></trkpt><trkpt lat="43.5751844" lon="10.5626187"><ele>82.0</ele><time>2026-04-29T09:52:05.906Z</time></trkpt><trkpt lat="43.5751306" lon="10.5626733"><ele>82.66666666666667</ele><time>2026-04-29T09:52:06.895Z</time></trkpt><trkpt lat="43.5750776" lon="10.5627291"><ele>83.33333333333333</ele><time>2026-04-29T09:52:07.895Z</time></trkpt><trkpt lat="43.5750246" lon="10.5627847"><ele>84.0</ele><time>2026-04-29T09:52:08.907Z</time></trkpt><trkpt lat="43.5749723" lon="10.5628406"><ele>82.66666666666667</ele><time>2026-04-29T09:52:09.906Z</time></trkpt><trkpt lat="43.5749166" lon="10.5629007"><ele>81.33333333333333</ele><time>2026-04-29T09:52:10.914Z</time></trkpt><trkpt lat="43.5748646" lon="10.5629624"><ele>80.0</ele><time>2026-04-29T09:52:11.906Z</time></trkpt><trkpt lat="43.5748144" lon="10.563018"><ele>78.66666666666666</ele><time>2026-04-29T09:52:12.9Z</time></trkpt><trkpt lat="43.5747241" lon="10.5631304"><ele>77.33333333333333</ele><time>2026-04-29T09:52:14.898Z</time></trkpt><trkpt lat="43.5746415" lon="10.5632435"><ele>76.0</ele><time>2026-04-29T09:52:16.915Z</time></trkpt><trkpt lat="43.5745669" lon="10.5633589"><ele>77.75</ele><time>2026-04-29T09:52:18.887Z</time></trkpt><trkpt lat="43.5744922" lon="10.5634806"><ele>79.5</ele><time>2026-04-29T09:52:20.902Z</time></trkpt><trkpt lat="43.5744225" lon="10.5636058"><ele>81.25</ele><time>2026-04-29T09:52:22.902Z</time></trkpt><trkpt lat="43.5743462" lon="10.5637264"><ele>83.0</ele><time>2026-04-29T09:52:24.889Z</time></trkpt><trkpt lat="43.5742657" lon="10.5638371"><ele>83.0</ele><time>2026-04-29T09:52:26.9Z</time></trkpt><trkpt lat="43.5742009" lon="10.5639246"><ele>83.0</ele><time>2026-04-29T09:52:28.904Z</time></trkpt><trkpt lat="43.5741278" lon="10.5640356"><ele>83.0</ele><time>2026-04-29T09:52:30.908Z</time></trkpt><trkpt lat="43.5740808" lon="10.5641897"><ele>83.0</ele><time>2026-04-29T09:52:32.896Z</time></trkpt><trkpt lat="43.5739902" lon="10.5643167"><ele>83.0</ele><time>2026-04-29T09:52:34.9Z</time></trkpt><trkpt lat="43.5739259" lon="10.5643495"><ele>83.0</ele><time>2026-04-29T09:52:35.898Z</time></trkpt><trkpt lat="43.5738603" lon="10.5643693"><ele>83.0</ele><time>2026-04-29T09:52:36.895Z</time></trkpt><trkpt lat="43.5737888" lon="10.5643779"><ele>83.0</ele><time>2026-04-29T09:52:37.891Z</time></trkpt><trkpt lat="43.5737121" lon="10.5643804"><ele>83.0</ele><time>2026-04-29T09:52:38.885Z</time></trkpt><trkpt lat="43.5736273" lon="10.5643781"><ele>83.0</ele><time>2026-04-29T09:52:39.882Z</time></trkpt><trkpt lat="43.5735437" lon="10.564373"><ele>82.0</ele><time>2026-04-29T09:52:40.89Z</time></trkpt><trkpt lat="43.5734606" lon="10.5643682"><ele>81.0</ele><time>2026-04-29T09:52:41.879Z</time></trkpt><trkpt lat="43.5733804" lon="10.5643676"><ele>80.0</ele><time>2026-04-29T09:52:42.879Z</time></trkpt><trkpt lat="43.5732988" lon="10.5643556"><ele>79.0</ele><time>2026-04-29T09:52:43.884Z</time></trkpt><trkpt lat="43.573222" lon="10.564358"><ele>78.0</ele><time>2026-04-29T09:52:44.881Z</time></trkpt><trkpt lat="43.5731489" lon="10.5643547"><ele>77.0</ele><time>2026-04-29T09:52:45.884Z</time></trkpt><trkpt lat="43.5730825" lon="10.5643696"><ele>77.0</ele><time>2026-04-29T09:52:46.887Z</time></trkpt><trkpt lat="43.5730164" lon="10.5643889"><ele>77.0</ele><time>2026-04-29T09:52:47.885Z</time></trkpt><trkpt lat="43.5729533" lon="10.5644158"><ele>77.0</ele><time>2026-04-29T09:52:48.881Z</time></trkpt><trkpt lat="43.572885" lon="10.5644361"><ele>77.0</ele><time>2026-04-29T09:52:49.88Z</time></trkpt><trkpt lat="43.5728121" lon="10.5644538"><ele>77.0</ele><time>2026-04-29T09:52:50.88Z</time></trkpt><trkpt lat="43.5727435" lon="10.5644702"><ele>77.0</ele><time>2026-04-29T09:52:51.879Z</time></trkpt><trkpt lat="43.5726706" lon="10.5644835"><ele>77.0</ele><time>2026-04-29T09:52:52.876Z</time></trkpt><trkpt lat="43.572596" lon="10.5644716"><ele>75.8</ele><time>2026-04-29T09:52:53.878Z</time></trkpt><trkpt lat="43.5725244" lon="10.5644217"><ele>74.6</ele><time>2026-04-29T09:52:54.886Z</time></trkpt><trkpt lat="43.5724639" lon="10.5643235"><ele>73.39999999999999</ele><time>2026-04-29T09:52:55.891Z</time></trkpt><trkpt lat="43.5724291" lon="10.564185"><ele>72.2</ele><time>2026-04-29T09:52:56.886Z</time></trkpt><trkpt lat="43.5723988" lon="10.564044"><ele>71.0</ele><time>2026-04-29T09:52:57.892Z</time></trkpt><trkpt lat="43.5723687" lon="10.5639313"><ele>71.0</ele><time>2026-04-29T09:52:58.891Z</time></trkpt><trkpt lat="43.572317" lon="10.5638559"><ele>71.0</ele><time>2026-04-29T09:52:59.9Z</time></trkpt><trkpt lat="43.5722379" lon="10.5638102"><ele>71.0</ele><time>2026-04-29T09:53:00.892Z</time></trkpt><trkpt lat="43.5721489" lon="10.5638249"><ele>71.0</ele><time>2026-04-29T09:53:01.908Z</time></trkpt><trkpt lat="43.5720654" lon="10.563864"><ele>71.0</ele><time>2026-04-29T09:53:02.9Z</time></trkpt><trkpt lat="43.5719935" lon="10.5638928"><ele>71.0</ele><time>2026-04-29T09:53:03.897Z</time></trkpt><trkpt lat="43.57189" lon="10.5639522"><ele>71.0</ele><time>2026-04-29T09:53:05.915Z</time></trkpt><trkpt lat="43.5718841" lon="10.5640726"><ele>71.0</ele><time>2026-04-29T09:53:09.923Z</time></trkpt><trkpt lat="43.5719668" lon="10.5641575"><ele>71.0</ele><time>2026-04-29T09:53:11.919Z</time></trkpt><trkpt lat="43.5720669" lon="10.564232"><ele>71.0</ele><time>2026-04-29T09:53:13.898Z</time></trkpt><trkpt lat="43.5721204" lon="10.5642789"><ele>71.0</ele><time>2026-04-29T09:53:14.888Z</time></trkpt><trkpt lat="43.5721827" lon="10.5643285"><ele>71.0</ele><time>2026-04-29T09:53:15.889Z</time></trkpt><trkpt lat="43.5722465" lon="10.5643791"><ele>71.0</ele><time>2026-04-29T09:53:16.9Z</time></trkpt><trkpt lat="43.5723063" lon="10.5644248"><ele>71.0</ele><time>2026-04-29T09:53:17.893Z</time></trkpt><trkpt lat="43.5723584" lon="10.5644877"><ele>71.0</ele><time>2026-04-29T09:53:18.89Z</time></trkpt><trkpt lat="43.572391" lon="10.5645679"><ele>71.0</ele><time>2026-04-29T09:53:19.899Z</time></trkpt><trkpt lat="43.5723858" lon="10.5646603"><ele>71.0</ele><time>2026-04-29T09:53:20.893Z</time></trkpt><trkpt lat="43.5722547" lon="10.5647098"><ele>71.0</ele><time>2026-04-29T09:53:22.884Z</time></trkpt><trkpt lat="43.5721607" lon="10.564707"><ele>69.5</ele><time>2026-04-29T09:53:23.89Z</time></trkpt><trkpt lat="43.5720668" lon="10.5646967"><ele>68.0</ele><time>2026-04-29T09:53:24.886Z</time></trkpt><trkpt lat="43.5719779" lon="10.5646859"><ele>66.5</ele><time>2026-04-29T09:53:25.886Z</time></trkpt><trkpt lat="43.5718901" lon="10.5646721"><ele>65.0</ele><time>2026-04-29T09:53:26.885Z</time></trkpt><trkpt lat="43.571805" lon="10.564663"><ele>63.50000000000001</ele><time>2026-04-29T09:53:27.885Z</time></trkpt><trkpt lat="43.5717303" lon="10.5646819"><ele>62.0</ele><time>2026-04-29T09:53:28.888Z</time></trkpt><trkpt lat="43.5716923" lon="10.5647513"><ele>62.0</ele><time>2026-04-29T09:53:29.89Z</time></trkpt><trkpt lat="43.5717039" lon="10.5648634"><ele>62.0</ele><time>2026-04-29T09:53:30.885Z</time></trkpt><trkpt lat="43.5717604" lon="10.5649785"><ele>62.0</ele><time>2026-04-29T09:53:31.88Z</time></trkpt><trkpt lat="43.571835" lon="10.5650574"><ele>62.0</ele><time>2026-04-29T09:53:32.883Z</time></trkpt><trkpt lat="43.5719352" lon="10.5650883"><ele>62.0</ele><time>2026-04-29T09:53:33.889Z</time></trkpt><trkpt lat="43.572027" lon="10.5651152"><ele>62.0</ele><time>2026-04-29T09:53:34.883Z</time></trkpt><trkpt lat="43.5721156" lon="10.5651391"><ele>62.0</ele><time>2026-04-29T09:53:35.886Z</time></trkpt><trkpt lat="43.572202" lon="10.5651663"><ele>62.0</ele><time>2026-04-29T09:53:36.881Z</time></trkpt><trkpt lat="43.5722863" lon="10.5651986"><ele>62.0</ele><time>2026-04-29T09:53:37.882Z</time></trkpt><trkpt lat="43.5723709" lon="10.5652434"><ele>62.0</ele><time>2026-04-29T09:53:38.881Z</time></trkpt><trkpt lat="43.572454" lon="10.5653027"><ele>60.0</ele><time>2026-04-29T09:53:39.881Z</time></trkpt><trkpt lat="43.5725269" lon="10.5653874"><ele>58.0</ele><time>2026-04-29T09:53:40.874Z</time></trkpt><trkpt lat="43.5725855" lon="10.5654912"><ele>56.0</ele><time>2026-04-29T09:53:41.879Z</time></trkpt><trkpt lat="43.5726179" lon="10.5656198"><ele>54.0</ele><time>2026-04-29T09:53:42.877Z</time></trkpt><trkpt lat="43.5726141" lon="10.5657701"><ele>52.0</ele><time>2026-04-29T09:53:43.887Z</time></trkpt><trkpt lat="43.5726015" lon="10.5659295"><ele>52.0</ele><time>2026-04-29T09:53:44.881Z</time></trkpt><trkpt lat="43.5725889" lon="10.5660995"><ele>52.0</ele><time>2026-04-29T09:53:45.882Z</time></trkpt><trkpt lat="43.5725747" lon="10.5662643"><ele>52.0</ele><time>2026-04-29T09:53:46.882Z</time></trkpt><trkpt lat="43.5725638" lon="10.5664184"><ele>52.0</ele><time>2026-04-29T09:53:47.883Z</time></trkpt><trkpt lat="43.5725586" lon="10.5665616"><ele>50.99999999999999</ele><time>2026-04-29T09:53:48.886Z</time></trkpt><trkpt lat="43.5725588" lon="10.5666814"><ele>50.0</ele><time>2026-04-29T09:53:49.889Z</time></trkpt><trkpt lat="43.572583" lon="10.5668422"><ele>49.0</ele><time>2026-04-29T09:53:51.899Z</time></trkpt><trkpt lat="43.5726599" lon="10.5669268"><ele>48.0</ele><time>2026-04-29T09:53:53.898Z</time></trkpt><trkpt lat="43.5727244" lon="10.5669257"><ele>47.0</ele><time>2026-04-29T09:53:54.888Z</time></trkpt><trkpt lat="43.57279" lon="10.5669124"><ele>46.0</ele><time>2026-04-29T09:53:55.891Z</time></trkpt><trkpt lat="43.5728583" lon="10.5668993"><ele>45.85714285714286</ele><time>2026-04-29T09:53:56.898Z</time></trkpt><trkpt lat="43.5729264" lon="10.5668847"><ele>45.71428571428571</ele><time>2026-04-29T09:53:57.893Z</time></trkpt><trkpt lat="43.5729925" lon="10.5668631"><ele>45.57142857142857</ele><time>2026-04-29T09:53:58.889Z</time></trkpt><trkpt lat="43.5730608" lon="10.5668391"><ele>45.42857142857143</ele><time>2026-04-29T09:53:59.893Z</time></trkpt><trkpt lat="43.5731301" lon="10.5668071"><ele>45.28571428571429</ele><time>2026-04-29T09:54:00.891Z</time></trkpt><trkpt lat="43.5731954" lon="10.5667802"><ele>45.14285714285714</ele><time>2026-04-29T09:54:01.894Z</time></trkpt><trkpt lat="43.5732616" lon="10.5667643"><ele>45.0</ele><time>2026-04-29T09:54:02.888Z</time></trkpt><trkpt lat="43.5733264" lon="10.5667554"><ele>45.0</ele><time>2026-04-29T09:54:03.893Z</time></trkpt><trkpt lat="43.5733941" lon="10.566762"><ele>45.0</ele><time>2026-04-29T09:54:04.895Z</time></trkpt><trkpt lat="43.5734575" lon="10.5667812"><ele>45.0</ele><time>2026-04-29T09:54:05.886Z</time></trkpt><trkpt lat="43.5735276" lon="10.5667997"><ele>45.0</ele><time>2026-04-29T09:54:06.889Z</time></trkpt><trkpt lat="43.5735972" lon="10.5668243"><ele>45.0</ele><time>2026-04-29T09:54:07.894Z</time></trkpt><trkpt lat="43.5736674" lon="10.566847"><ele>45.0</ele><time>2026-04-29T09:54:08.887Z</time></trkpt><trkpt lat="43.5737403" lon="10.5668664"><ele>45.0</ele><time>2026-04-29T09:54:09.888Z</time></trkpt><trkpt lat="43.5738104" lon="10.5668746"><ele>45.0</ele><time>2026-04-29T09:54:10.888Z</time></trkpt><trkpt lat="43.573884" lon="10.5668734"><ele>45.0</ele><time>2026-04-29T09:54:11.89Z</time></trkpt><trkpt lat="43.5739538" lon="10.5668632"><ele>45.0</ele><time>2026-04-29T09:54:12.893Z</time></trkpt><trkpt lat="43.5740251" lon="10.5668513"><ele>45.0</ele><time>2026-04-29T09:54:13.892Z</time></trkpt><trkpt lat="43.5740918" lon="10.5668433"><ele>45.0</ele><time>2026-04-29T09:54:14.89Z</time></trkpt><trkpt lat="43.5741626" lon="10.566839"><ele>45.0</ele><time>2026-04-29T09:54:15.896Z</time></trkpt><trkpt lat="43.5742357" lon="10.5668412"><ele>45.0</ele><time>2026-04-29T09:54:16.893Z</time></trkpt><trkpt lat="43.5743096" lon="10.566856"><ele>45.0</ele><time>2026-04-29T09:54:17.89Z</time></trkpt><trkpt lat="43.5743797" lon="10.5668825"><ele>45.0</ele><time>2026-04-29T09:54:18.893Z</time></trkpt><trkpt lat="43.5744466" lon="10.5669155"><ele>45.0</ele><time>2026-04-29T09:54:19.896Z</time></trkpt><trkpt lat="43.5745146" lon="10.566951"><ele>45.0</ele><time>2026-04-29T09:54:20.894Z</time></trkpt><trkpt lat="43.5745829" lon="10.5669787"><ele>45.0</ele><time>2026-04-29T09:54:21.898Z</time></trkpt><trkpt lat="43.5746504" lon="10.5670107"><ele>45.0</ele><time>2026-04-29T09:54:22.894Z</time></trkpt><trkpt lat="43.574717" lon="10.5670438"><ele>45.0</ele><time>2026-04-29T09:54:23.893Z</time></trkpt><trkpt lat="43.574785" lon="10.567083"><ele>44.714285714285715</ele><time>2026-04-29T09:54:24.895Z</time></trkpt><trkpt lat="43.5748489" lon="10.567125"><ele>44.42857142857143</ele><time>2026-04-29T09:54:25.891Z</time></trkpt><trkpt lat="43.5749122" lon="10.5671724"><ele>44.142857142857146</ele><time>2026-04-29T09:54:26.891Z</time></trkpt><trkpt lat="43.5749702" lon="10.5672287"><ele>43.85714285714286</ele><time>2026-04-29T09:54:27.892Z</time></trkpt><trkpt lat="43.5750252" lon="10.5672947"><ele>43.57142857142857</ele><time>2026-04-29T09:54:28.892Z</time></trkpt><trkpt lat="43.5750725" lon="10.5673624"><ele>43.28571428571429</ele><time>2026-04-29T09:54:29.894Z</time></trkpt><trkpt lat="43.5751207" lon="10.5674224"><ele>43.0</ele><time>2026-04-29T09:54:30.889Z</time></trkpt><trkpt lat="43.5751715" lon="10.567481"><ele>43.0</ele><time>2026-04-29T09:54:31.89Z</time></trkpt><trkpt lat="43.5752236" lon="10.5675403"><ele>43.0</ele><time>2026-04-29T09:54:32.897Z</time></trkpt><trkpt lat="43.5752768" lon="10.567591"><ele>43.0</ele><time>2026-04-29T09:54:33.889Z</time></trkpt><trkpt lat="43.5753795" lon="10.5676713"><ele>43.0</ele><time>2026-04-29T09:54:35.895Z</time></trkpt><trkpt lat="43.5754949" lon="10.5677138"><ele>43.0</ele><time>2026-04-29T09:54:37.896Z</time></trkpt><trkpt lat="43.575559" lon="10.5677209"><ele>43.0</ele><time>2026-04-29T09:54:38.894Z</time></trkpt><trkpt lat="43.5756231" lon="10.5677349"><ele>42.599999999999994</ele><time>2026-04-29T09:54:39.891Z</time></trkpt><trkpt lat="43.5756874" lon="10.5677486"><ele>42.199999999999996</ele><time>2026-04-29T09:54:40.888Z</time></trkpt><trkpt lat="43.5758084" lon="10.567774"><ele>41.8</ele><time>2026-04-29T09:54:42.901Z</time></trkpt><trkpt lat="43.5759203" lon="10.5678147"><ele>41.4</ele><time>2026-04-29T09:54:44.906Z</time></trkpt><trkpt lat="43.5760271" lon="10.567878"><ele>41.0</ele><time>2026-04-29T09:54:46.912Z</time></trkpt><trkpt lat="43.5761341" lon="10.5679354"><ele>42.0</ele><time>2026-04-29T09:54:48.913Z</time></trkpt><trkpt lat="43.5762426" lon="10.568004"><ele>43.0</ele><time>2026-04-29T09:54:50.914Z</time></trkpt><trkpt lat="43.5763575" lon="10.568052"><ele>44.0</ele><time>2026-04-29T09:54:52.918Z</time></trkpt><trkpt lat="43.5764751" lon="10.5680908"><ele>45.0</ele><time>2026-04-29T09:54:54.91Z</time></trkpt><trkpt lat="43.576595" lon="10.5681392"><ele>45.0</ele><time>2026-04-29T09:54:56.916Z</time></trkpt><trkpt lat="43.5766578" lon="10.5681674"><ele>45.0</ele><time>2026-04-29T09:54:57.91Z</time></trkpt><trkpt lat="43.5767211" lon="10.5681957"><ele>45.0</ele><time>2026-04-29T09:54:58.912Z</time></trkpt><trkpt lat="43.5768387" lon="10.56825"><ele>45.0</ele><time>2026-04-29T09:55:00.911Z</time></trkpt><trkpt lat="43.5769508" lon="10.568301"><ele>45.0</ele><time>2026-04-29T09:55:02.908Z</time></trkpt><trkpt lat="43.5770659" lon="10.5683509"><ele>45.5</ele><time>2026-04-29T09:55:04.907Z</time></trkpt><trkpt lat="43.5771834" lon="10.568412"><ele>46.0</ele><time>2026-04-29T09:55:06.916Z</time></trkpt><trkpt lat="43.5772432" lon="10.568444"><ele>46.5</ele><time>2026-04-29T09:55:07.91Z</time></trkpt><trkpt lat="43.5773044" lon="10.5684793"><ele>47.0</ele><time>2026-04-29T09:55:08.918Z</time></trkpt><trkpt lat="43.5773675" lon="10.5685099"><ele>47.5</ele><time>2026-04-29T09:55:09.913Z</time></trkpt><trkpt lat="43.5774345" lon="10.5685353"><ele>48.0</ele><time>2026-04-29T09:55:10.913Z</time></trkpt><trkpt lat="43.5775006" lon="10.5685615"><ele>47.99999999999999</ele><time>2026-04-29T09:55:11.915Z</time></trkpt><trkpt lat="43.5775669" lon="10.5685852"><ele>48.0</ele><time>2026-04-29T09:55:12.918Z</time></trkpt><trkpt lat="43.577634" lon="10.5686116"><ele>48.0</ele><time>2026-04-29T09:55:13.919Z</time></trkpt><trkpt lat="43.5776973" lon="10.5686299"><ele>48.0</ele><time>2026-04-29T09:55:14.914Z</time></trkpt><trkpt lat="43.5777601" lon="10.5686511"><ele>48.0</ele><time>2026-04-29T09:55:15.918Z</time></trkpt><trkpt lat="43.577826" lon="10.5686656"><ele>47.99999999999999</ele><time>2026-04-29T09:55:16.913Z</time></trkpt><trkpt lat="43.5778914" lon="10.5686827"><ele>48.0</ele><time>2026-04-29T09:55:17.916Z</time></trkpt><trkpt lat="43.5779588" lon="10.5687005"><ele>47.14285714285714</ele><time>2026-04-29T09:55:18.913Z</time></trkpt><trkpt lat="43.578022" lon="10.5687218"><ele>46.285714285714285</ele><time>2026-04-29T09:55:19.912Z</time></trkpt><trkpt lat="43.5780847" lon="10.5687498"><ele>45.42857142857143</ele><time>2026-04-29T09:55:20.915Z</time></trkpt><trkpt lat="43.5781479" lon="10.568787"><ele>44.57142857142857</ele><time>2026-04-29T09:55:21.913Z</time></trkpt><trkpt lat="43.5782114" lon="10.5688314"><ele>43.714285714285715</ele><time>2026-04-29T09:55:22.917Z</time></trkpt><trkpt lat="43.5782716" lon="10.5688806"><ele>42.857142857142854</ele><time>2026-04-29T09:55:23.911Z</time></trkpt><trkpt lat="43.5783321" lon="10.5689305"><ele>42.0</ele><time>2026-04-29T09:55:24.915Z</time></trkpt><trkpt lat="43.5783877" lon="10.5689817"><ele>42.0</ele><time>2026-04-29T09:55:25.912Z</time></trkpt><trkpt lat="43.5784436" lon="10.5690359"><ele>42.0</ele><time>2026-04-29T09:55:26.912Z</time></trkpt><trkpt lat="43.5784992" lon="10.569091"><ele>42.0</ele><time>2026-04-29T09:55:27.918Z</time></trkpt><trkpt lat="43.5785541" lon="10.5691378"><ele>42.0</ele><time>2026-04-29T09:55:28.917Z</time></trkpt><trkpt lat="43.5786131" lon="10.5691845"><ele>42.0</ele><time>2026-04-29T09:55:29.917Z</time></trkpt><trkpt lat="43.5786685" lon="10.5692262"><ele>42.0</ele><time>2026-04-29T09:55:30.909Z</time></trkpt><trkpt lat="43.5787788" lon="10.5692924"><ele>43.2</ele><time>2026-04-29T09:55:32.916Z</time></trkpt><trkpt lat="43.5788875" lon="10.5693554"><ele>44.400000000000006</ele><time>2026-04-29T09:55:34.914Z</time></trkpt><trkpt lat="43.5790051" lon="10.5693926"><ele>45.599999999999994</ele><time>2026-04-29T09:55:36.91Z</time></trkpt><trkpt lat="43.5790685" lon="10.5694063"><ele>46.8</ele><time>2026-04-29T09:55:37.924Z</time></trkpt><trkpt lat="43.5791895" lon="10.5694335"><ele>48.0</ele><time>2026-04-29T09:55:39.914Z</time></trkpt><trkpt lat="43.5792524" lon="10.569452"><ele>48.0</ele><time>2026-04-29T09:55:40.916Z</time></trkpt><trkpt lat="43.5793143" lon="10.5694734"><ele>48.0</ele><time>2026-04-29T09:55:41.914Z</time></trkpt><trkpt lat="43.5793746" lon="10.5694993"><ele>48.0</ele><time>2026-04-29T09:55:42.915Z</time></trkpt><trkpt lat="43.5794862" lon="10.5695448"><ele>48.0</ele><time>2026-04-29T09:55:44.915Z</time></trkpt><trkpt lat="43.5795928" lon="10.569594"><ele>48.0</ele><time>2026-04-29T09:55:46.93Z</time></trkpt><trkpt lat="43.5797125" lon="10.569649"><ele>46.199999999999996</ele><time>2026-04-29T09:55:48.913Z</time></trkpt><trkpt lat="43.5797738" lon="10.5696751"><ele>44.4</ele><time>2026-04-29T09:55:49.92Z</time></trkpt><trkpt lat="43.5798941" lon="10.5697185"><ele>42.599999999999994</ele><time>2026-04-29T09:55:51.927Z</time></trkpt><trkpt lat="43.5800126" lon="10.5697689"><ele>40.8</ele><time>2026-04-29T09:55:53.922Z</time></trkpt><trkpt lat="43.5801347" lon="10.5698248"><ele>39.0</ele><time>2026-04-29T09:55:55.919Z</time></trkpt><trkpt lat="43.5801946" lon="10.5698549"><ele>39.0</ele><time>2026-04-29T09:55:56.928Z</time></trkpt><trkpt lat="43.580255" lon="10.5698892"><ele>39.0</ele><time>2026-04-29T09:55:57.923Z</time></trkpt><trkpt lat="43.5803686" lon="10.5699613"><ele>39.0</ele><time>2026-04-29T09:55:59.918Z</time></trkpt><trkpt lat="43.5804227" lon="10.5700099"><ele>39.0</ele><time>2026-04-29T09:56:00.917Z</time></trkpt><trkpt lat="43.5805251" lon="10.5701042"><ele>39.0</ele><time>2026-04-29T09:56:02.925Z</time></trkpt><trkpt lat="43.5806331" lon="10.5701805"><ele>39.0</ele><time>2026-04-29T09:56:04.926Z</time></trkpt><trkpt lat="43.5806947" lon="10.570206"><ele>39.0</ele><time>2026-04-29T09:56:05.92Z</time></trkpt><trkpt lat="43.5808148" lon="10.570246"><ele>39.0</ele><time>2026-04-29T09:56:07.917Z</time></trkpt><trkpt lat="43.5809271" lon="10.570309"><ele>39.0</ele><time>2026-04-29T09:56:09.919Z</time></trkpt><trkpt lat="43.5810438" lon="10.5703727"><ele>39.0</ele><time>2026-04-29T09:56:11.92Z</time></trkpt><trkpt lat="43.5811642" lon="10.5704068"><ele>39.0</ele><time>2026-04-29T09:56:13.913Z</time></trkpt><trkpt lat="43.5812292" lon="10.5703952"><ele>39.0</ele><time>2026-04-29T09:56:14.91Z</time></trkpt><trkpt lat="43.5812914" lon="10.5703656"><ele>39.0</ele><time>2026-04-29T09:56:15.917Z</time></trkpt><trkpt lat="43.5813473" lon="10.5703234"><ele>39.0</ele><time>2026-04-29T09:56:16.908Z</time></trkpt><trkpt lat="43.5814421" lon="10.5702074"><ele>39.0</ele><time>2026-04-29T09:56:18.912Z</time></trkpt><trkpt lat="43.5815326" lon="10.570094"><ele>39.0</ele><time>2026-04-29T09:56:20.91Z</time></trkpt><trkpt lat="43.5815856" lon="10.5700446"><ele>39.0</ele><time>2026-04-29T09:56:21.912Z</time></trkpt><trkpt lat="43.5817036" lon="10.5699831"><ele>39.0</ele><time>2026-04-29T09:56:23.913Z</time></trkpt><trkpt lat="43.5817695" lon="10.5699709"><ele>39.0</ele><time>2026-04-29T09:56:24.917Z</time></trkpt><trkpt lat="43.5818907" lon="10.5699752"><ele>39.0</ele><time>2026-04-29T09:56:26.913Z</time></trkpt><trkpt lat="43.5820125" lon="10.5699822"><ele>39.0</ele><time>2026-04-29T09:56:28.914Z</time></trkpt><trkpt lat="43.5821296" lon="10.5700079"><ele>38.8</ele><time>2026-04-29T09:56:30.918Z</time></trkpt><trkpt lat="43.5822446" lon="10.5700331"><ele>38.599999999999994</ele><time>2026-04-29T09:56:32.915Z</time></trkpt><trkpt lat="43.5823529" lon="10.5700492"><ele>38.4</ele><time>2026-04-29T09:56:34.922Z</time></trkpt><trkpt lat="43.5824608" lon="10.5700489"><ele>38.199999999999996</ele><time>2026-04-29T09:56:36.921Z</time></trkpt><trkpt lat="43.5825645" lon="10.5700326"><ele>38.0</ele><time>2026-04-29T09:56:38.92Z</time></trkpt><trkpt lat="43.5826606" lon="10.5700009"><ele>38.0</ele><time>2026-04-29T09:56:40.923Z</time></trkpt><trkpt lat="43.5827589" lon="10.5699528"><ele>38.0</ele><time>2026-04-29T09:56:42.918Z</time></trkpt><trkpt lat="43.5828481" lon="10.5698791"><ele>38.0</ele><time>2026-04-29T09:56:44.922Z</time></trkpt><trkpt lat="43.5829208" lon="10.5697998"><ele>38.0</ele><time>2026-04-29T09:56:46.918Z</time></trkpt><trkpt lat="43.5830059" lon="10.5698248"><ele>38.0</ele><time>2026-04-29T09:56:48.92Z</time></trkpt><trkpt lat="43.5830407" lon="10.5699048"><ele>37.714285714285715</ele><time>2026-04-29T09:56:49.918Z</time></trkpt><trkpt lat="43.5830702" lon="10.5699988"><ele>37.42857142857143</ele><time>2026-04-29T09:56:50.919Z</time></trkpt><trkpt lat="43.5830946" lon="10.570094"><ele>37.142857142857146</ele><time>2026-04-29T09:56:51.92Z</time></trkpt><trkpt lat="43.5831215" lon="10.5701864"><ele>36.85714285714286</ele><time>2026-04-29T09:56:52.917Z</time></trkpt><trkpt lat="43.5831449" lon="10.570283"><ele>36.57142857142857</ele><time>2026-04-29T09:56:53.917Z</time></trkpt><trkpt lat="43.5831709" lon="10.5703755"><ele>36.28571428571429</ele><time>2026-04-29T09:56:54.918Z</time></trkpt><trkpt lat="43.5832026" lon="10.5704695"><ele>36.0</ele><time>2026-04-29T09:56:55.914Z</time></trkpt><trkpt lat="43.5832344" lon="10.5705638"><ele>35.666666666666664</ele><time>2026-04-29T09:56:56.915Z</time></trkpt><trkpt lat="43.5832673" lon="10.5706611"><ele>35.333333333333336</ele><time>2026-04-29T09:56:57.917Z</time></trkpt><trkpt lat="43.5832991" lon="10.5707623"><ele>35.0</ele><time>2026-04-29T09:56:58.92Z</time></trkpt><trkpt lat="43.5833284" lon="10.5708585"><ele>34.66666666666667</ele><time>2026-04-29T09:56:59.927Z</time></trkpt><trkpt lat="43.5833539" lon="10.5709577"><ele>34.333333333333336</ele><time>2026-04-29T09:57:00.92Z</time></trkpt><trkpt lat="43.5833727" lon="10.5710601"><ele>34.0</ele><time>2026-04-29T09:57:01.92Z</time></trkpt><trkpt lat="43.5833837" lon="10.5711621"><ele>33.99999999999999</ele><time>2026-04-29T09:57:02.922Z</time></trkpt><trkpt lat="43.5833913" lon="10.5712633"><ele>34.0</ele><time>2026-04-29T09:57:03.925Z</time></trkpt><trkpt lat="43.5833898" lon="10.5713654"><ele>34.0</ele><time>2026-04-29T09:57:04.926Z</time></trkpt><trkpt lat="43.5833874" lon="10.5714624"><ele>34.0</ele><time>2026-04-29T09:57:05.913Z</time></trkpt><trkpt lat="43.5833835" lon="10.5715571"><ele>34.0</ele><time>2026-04-29T09:57:06.914Z</time></trkpt><trkpt lat="43.5833784" lon="10.5716528"><ele>33.99999999999999</ele><time>2026-04-29T09:57:07.916Z</time></trkpt><trkpt lat="43.5833722" lon="10.5717528"><ele>34.0</ele><time>2026-04-29T09:57:08.913Z</time></trkpt><trkpt lat="43.5833687" lon="10.5718397"><ele>33.99999999999999</ele><time>2026-04-29T09:57:09.917Z</time></trkpt><trkpt lat="43.5833626" lon="10.5719342"><ele>34.0</ele><time>2026-04-29T09:57:10.918Z</time></trkpt><trkpt lat="43.583352" lon="10.5720315"><ele>34.0</ele><time>2026-04-29T09:57:11.913Z</time></trkpt><trkpt lat="43.5833354" lon="10.572131"><ele>34.0</ele><time>2026-04-29T09:57:12.908Z</time></trkpt><trkpt lat="43.5833127" lon="10.5722239"><ele>34.0</ele><time>2026-04-29T09:57:13.907Z</time></trkpt><trkpt lat="43.5832912" lon="10.5723139"><ele>33.99999999999999</ele><time>2026-04-29T09:57:14.909Z</time></trkpt><trkpt lat="43.5832624" lon="10.5723956"><ele>34.0</ele><time>2026-04-29T09:57:15.906Z</time></trkpt><trkpt lat="43.5832348" lon="10.5724745"><ele>35.0</ele><time>2026-04-29T09:57:16.913Z</time></trkpt><trkpt lat="43.5831727" lon="10.5726156"><ele>36.0</ele><time>2026-04-29T09:57:18.912Z</time></trkpt><trkpt lat="43.5831252" lon="10.5727527"><ele>37.0</ele><time>2026-04-29T09:57:20.917Z</time></trkpt><trkpt lat="43.5830908" lon="10.5728878"><ele>38.0</ele><time>2026-04-29T09:57:22.908Z</time></trkpt><trkpt lat="43.5830638" lon="10.5730357"><ele>39.0</ele><time>2026-04-29T09:57:24.905Z</time></trkpt><trkpt lat="43.5830363" lon="10.5731833"><ele>40.2</ele><time>2026-04-29T09:57:26.912Z</time></trkpt><trkpt lat="43.5830208" lon="10.5733332"><ele>41.4</ele><time>2026-04-29T09:57:28.912Z</time></trkpt><trkpt lat="43.5830004" lon="10.5734757"><ele>42.6</ele><time>2026-04-29T09:57:30.907Z</time></trkpt><trkpt lat="43.5829829" lon="10.5736064"><ele>43.8</ele><time>2026-04-29T09:57:32.912Z</time></trkpt><trkpt lat="43.5829744" lon="10.573735"><ele>45.0</ele><time>2026-04-29T09:57:34.914Z</time></trkpt><trkpt lat="43.5829729" lon="10.5738558"><ele>46.285714285714285</ele><time>2026-04-29T09:57:36.913Z</time></trkpt><trkpt lat="43.5829813" lon="10.5739588"><ele>47.57142857142858</ele><time>2026-04-29T09:57:38.913Z</time></trkpt><trkpt lat="43.5829914" lon="10.5740583"><ele>48.85714285714286</ele><time>2026-04-29T09:57:40.91Z</time></trkpt><trkpt lat="43.5830063" lon="10.574147"><ele>50.14285714285714</ele><time>2026-04-29T09:57:42.915Z</time></trkpt><trkpt lat="43.5830154" lon="10.5742409"><ele>51.42857142857143</ele><time>2026-04-29T09:57:44.908Z</time></trkpt><trkpt lat="43.5830259" lon="10.5743268"><ele>52.714285714285715</ele><time>2026-04-29T09:57:46.923Z</time></trkpt><trkpt lat="43.5830478" lon="10.57441"><ele>54.0</ele><time>2026-04-29T09:57:48.914Z</time></trkpt><trkpt lat="43.583081" lon="10.5745366"><ele>54.833333333333336</ele><time>2026-04-29T09:57:51.92Z</time></trkpt><trkpt lat="43.5831067" lon="10.5746252"><ele>55.66666666666667</ele><time>2026-04-29T09:57:53.918Z</time></trkpt><trkpt lat="43.5831412" lon="10.5747259"><ele>56.5</ele><time>2026-04-29T09:57:56.924Z</time></trkpt><trkpt lat="43.5831881" lon="10.5748235"><ele>57.333333333333336</ele><time>2026-04-29T09:57:59.913Z</time></trkpt><trkpt lat="43.5832386" lon="10.5749197"><ele>58.16666666666667</ele><time>2026-04-29T09:58:02.906Z</time></trkpt><trkpt lat="43.5833" lon="10.5750009"><ele>59.0</ele><time>2026-04-29T09:58:06.907Z</time></trkpt><trkpt lat="43.5833566" lon="10.5750685"><ele>59.00000000000001</ele><time>2026-04-29T09:58:09.914Z</time></trkpt><trkpt lat="43.5834177" lon="10.5751354"><ele>59.0</ele><time>2026-04-29T09:58:12.91Z</time></trkpt><trkpt lat="43.5834876" lon="10.5752007"><ele>59.0</ele><time>2026-04-29T09:58:15.91Z</time></trkpt><trkpt lat="43.583544" lon="10.5752664"><ele>59.0</ele><time>2026-04-29T09:58:19.908Z</time></trkpt><trkpt lat="43.5836054" lon="10.5753145"><ele>59.00000000000001</ele><time>2026-04-29T10:00:28.913Z</time></trkpt><trkpt lat="43.5836732" lon="10.5753761"><ele>59.0</ele><time>2026-04-29T10:00:31.911Z</time></trkpt><trkpt lat="43.5837478" lon="10.5754405"><ele>59.50000000000001</ele><time>2026-04-29T10:00:34.916Z</time></trkpt><trkpt lat="43.5838133" lon="10.5755146"><ele>60.0</ele><time>2026-04-29T10:00:37.918Z</time></trkpt><trkpt lat="43.5838614" lon="10.5755734"><ele>60.5</ele><time>2026-04-29T10:00:39.915Z</time></trkpt><trkpt lat="43.5839156" lon="10.5756308"><ele>61.0</ele><time>2026-04-29T10:00:41.918Z</time></trkpt><trkpt lat="43.5839878" lon="10.5756832"><ele>61.50000000000001</ele><time>2026-04-29T10:00:43.911Z</time></trkpt><trkpt lat="43.5840717" lon="10.5757676"><ele>62.0</ele><time>2026-04-29T10:00:45.915Z</time></trkpt><trkpt lat="43.5841538" lon="10.5758598"><ele>62.00000000000001</ele><time>2026-04-29T10:00:47.92Z</time></trkpt><trkpt lat="43.5842474" lon="10.5759831"><ele>62.0</ele><time>2026-04-29T10:00:49.906Z</time></trkpt><trkpt lat="43.5843045" lon="10.5760474"><ele>62.0</ele><time>2026-04-29T10:00:50.902Z</time></trkpt><trkpt lat="43.5843648" lon="10.5761143"><ele>62.0</ele><time>2026-04-29T10:00:51.912Z</time></trkpt><trkpt lat="43.5844292" lon="10.5761801"><ele>62.00000000000001</ele><time>2026-04-29T10:00:52.916Z</time></trkpt><trkpt lat="43.5845002" lon="10.5762446"><ele>62.0</ele><time>2026-04-29T10:00:53.915Z</time></trkpt><trkpt lat="43.5845751" lon="10.5763043"><ele>58.400000000000006</ele><time>2026-04-29T10:00:54.911Z</time></trkpt><trkpt lat="43.5846611" lon="10.5763598"><ele>54.800000000000004</ele><time>2026-04-29T10:00:55.912Z</time></trkpt><trkpt lat="43.5847536" lon="10.5764089"><ele>51.2</ele><time>2026-04-29T10:00:56.912Z</time></trkpt><trkpt lat="43.5848515" lon="10.5764536"><ele>47.6</ele><time>2026-04-29T10:00:57.907Z</time></trkpt><trkpt lat="43.584952" lon="10.576497"><ele>44.0</ele><time>2026-04-29T10:00:58.918Z</time></trkpt><trkpt lat="43.5850543" lon="10.5765425"><ele>44.0</ele><time>2026-04-29T10:00:59.916Z</time></trkpt><trkpt lat="43.5851581" lon="10.5765889"><ele>44.0</ele><time>2026-04-29T10:01:00.918Z</time></trkpt><trkpt lat="43.5852649" lon="10.576631"><ele>44.0</ele><time>2026-04-29T10:01:01.916Z</time></trkpt><trkpt lat="43.5853714" lon="10.5766645"><ele>44.0</ele><time>2026-04-29T10:01:02.91Z</time></trkpt><trkpt lat="43.5854833" lon="10.5766848"><ele>44.0</ele><time>2026-04-29T10:01:03.913Z</time></trkpt><trkpt lat="43.5855985" lon="10.5766843"><ele>43.5</ele><time>2026-04-29T10:01:04.913Z</time></trkpt><trkpt lat="43.5857143" lon="10.5766676"><ele>43.0</ele><time>2026-04-29T10:01:05.911Z</time></trkpt><trkpt lat="43.5858279" lon="10.5766506"><ele>42.5</ele><time>2026-04-29T10:01:06.917Z</time></trkpt><trkpt lat="43.5859396" lon="10.576637"><ele>42.0</ele><time>2026-04-29T10:01:07.921Z</time></trkpt><trkpt lat="43.5860481" lon="10.5766284"><ele>42.0</ele><time>2026-04-29T10:01:08.908Z</time></trkpt><trkpt lat="43.5861564" lon="10.5766321"><ele>42.0</ele><time>2026-04-29T10:01:09.916Z</time></trkpt><trkpt lat="43.5862658" lon="10.5766485"><ele>42.0</ele><time>2026-04-29T10:01:10.909Z</time></trkpt><trkpt lat="43.5863758" lon="10.5766795"><ele>42.0</ele><time>2026-04-29T10:01:11.91Z</time></trkpt><trkpt lat="43.5864784" lon="10.576715"><ele>42.0</ele><time>2026-04-29T10:01:12.923Z</time></trkpt><trkpt lat="43.5865782" lon="10.5767629"><ele>42.0</ele><time>2026-04-29T10:01:13.912Z</time></trkpt><trkpt lat="43.5866754" lon="10.5768152"><ele>42.0</ele><time>2026-04-29T10:01:14.916Z</time></trkpt><trkpt lat="43.5867689" lon="10.5768693"><ele>42.0</ele><time>2026-04-29T10:01:15.922Z</time></trkpt><trkpt lat="43.5868623" lon="10.5769285"><ele>42.0</ele><time>2026-04-29T10:01:16.925Z</time></trkpt><trkpt lat="43.5869524" lon="10.5769886"><ele>42.0</ele><time>2026-04-29T10:01:17.928Z</time></trkpt><trkpt lat="43.587043" lon="10.5770468"><ele>41.0</ele><time>2026-04-29T10:01:18.925Z</time></trkpt><trkpt lat="43.5871313" lon="10.5771049"><ele>40.0</ele><time>2026-04-29T10:01:19.924Z</time></trkpt><trkpt lat="43.5872208" lon="10.5771589"><ele>39.0</ele><time>2026-04-29T10:01:20.93Z</time></trkpt><trkpt lat="43.5873146" lon="10.5772111"><ele>38.0</ele><time>2026-04-29T10:01:21.928Z</time></trkpt><trkpt lat="43.5874062" lon="10.5772576"><ele>37.0</ele><time>2026-04-29T10:01:22.935Z</time></trkpt><trkpt lat="43.5874976" lon="10.5773068"><ele>37.0</ele><time>2026-04-29T10:01:23.919Z</time></trkpt><trkpt lat="43.5875848" lon="10.5773518"><ele>37.0</ele><time>2026-04-29T10:01:24.923Z</time></trkpt><trkpt lat="43.5876746" lon="10.5774005"><ele>37.0</ele><time>2026-04-29T10:01:25.925Z</time></trkpt><trkpt lat="43.5877633" lon="10.5774397"><ele>37.0</ele><time>2026-04-29T10:01:26.929Z</time></trkpt><trkpt lat="43.5878514" lon="10.5774846"><ele>37.0</ele><time>2026-04-29T10:01:27.923Z</time></trkpt><trkpt lat="43.5879385" lon="10.577533"><ele>37.0</ele><time>2026-04-29T10:01:28.927Z</time></trkpt><trkpt lat="43.5880245" lon="10.5775831"><ele>37.0</ele><time>2026-04-29T10:01:29.924Z</time></trkpt><trkpt lat="43.588111" lon="10.5776336"><ele>37.0</ele><time>2026-04-29T10:01:30.917Z</time></trkpt><trkpt lat="43.588197" lon="10.5776791"><ele>37.0</ele><time>2026-04-29T10:01:31.919Z</time></trkpt><trkpt lat="43.5882806" lon="10.5777255"><ele>37.0</ele><time>2026-04-29T10:01:32.929Z</time></trkpt><trkpt lat="43.5883656" lon="10.5777658"><ele>37.0</ele><time>2026-04-29T10:01:33.913Z</time></trkpt><trkpt lat="43.5884534" lon="10.5777952"><ele>37.0</ele><time>2026-04-29T10:01:34.92Z</time></trkpt><trkpt lat="43.5885363" lon="10.577818"><ele>37.0</ele><time>2026-04-29T10:01:35.918Z</time></trkpt><trkpt lat="43.5886199" lon="10.5778382"><ele>37.0</ele><time>2026-04-29T10:01:36.925Z</time></trkpt><trkpt lat="43.5887029" lon="10.5778547"><ele>37.0</ele><time>2026-04-29T10:01:37.925Z</time></trkpt><trkpt lat="43.5887836" lon="10.5778653"><ele>37.0</ele><time>2026-04-29T10:01:38.921Z</time></trkpt><trkpt lat="43.5888655" lon="10.5778758"><ele>37.16666666666667</ele><time>2026-04-29T10:01:39.924Z</time></trkpt><trkpt lat="43.5889452" lon="10.5778834"><ele>37.333333333333336</ele><time>2026-04-29T10:01:40.917Z</time></trkpt><trkpt lat="43.589026" lon="10.5778918"><ele>37.5</ele><time>2026-04-29T10:01:41.929Z</time></trkpt><trkpt lat="43.5891072" lon="10.5779016"><ele>37.666666666666664</ele><time>2026-04-29T10:01:42.922Z</time></trkpt><trkpt lat="43.5891873" lon="10.5779153"><ele>37.83333333333333</ele><time>2026-04-29T10:01:43.926Z</time></trkpt><trkpt lat="43.5892679" lon="10.5779421"><ele>38.0</ele><time>2026-04-29T10:01:44.931Z</time></trkpt><trkpt lat="43.5893448" lon="10.5779802"><ele>38.0</ele><time>2026-04-29T10:01:45.924Z</time></trkpt><trkpt lat="43.5894161" lon="10.5780209"><ele>38.0</ele><time>2026-04-29T10:01:46.939Z</time></trkpt><trkpt lat="43.5894868" lon="10.578071"><ele>38.0</ele><time>2026-04-29T10:01:47.927Z</time></trkpt><trkpt lat="43.5895571" lon="10.5781256"><ele>38.0</ele><time>2026-04-29T10:01:48.936Z</time></trkpt><trkpt lat="43.5896279" lon="10.5781792"><ele>38.0</ele><time>2026-04-29T10:01:49.932Z</time></trkpt><trkpt lat="43.5896988" lon="10.5782306"><ele>38.0</ele><time>2026-04-29T10:01:50.929Z</time></trkpt><trkpt lat="43.5897673" lon="10.5782806"><ele>37.666666666666664</ele><time>2026-04-29T10:01:51.927Z</time></trkpt><trkpt lat="43.5898352" lon="10.5783363"><ele>37.33333333333333</ele><time>2026-04-29T10:01:52.951Z</time></trkpt><trkpt lat="43.5899019" lon="10.5783892"><ele>37.0</ele><time>2026-04-29T10:01:53.933Z</time></trkpt><trkpt lat="43.5899701" lon="10.5784377"><ele>36.666666666666664</ele><time>2026-04-29T10:01:54.931Z</time></trkpt><trkpt lat="43.5900365" lon="10.5784922"><ele>36.333333333333336</ele><time>2026-04-29T10:01:55.935Z</time></trkpt><trkpt lat="43.5901032" lon="10.578546"><ele>36.0</ele><time>2026-04-29T10:01:56.934Z</time></trkpt><trkpt lat="43.5901705" lon="10.5786023"><ele>36.0</ele><time>2026-04-29T10:01:57.93Z</time></trkpt><trkpt lat="43.5902381" lon="10.5786557"><ele>36.0</ele><time>2026-04-29T10:01:58.923Z</time></trkpt><trkpt lat="43.5903077" lon="10.5787108"><ele>36.0</ele><time>2026-04-29T10:01:59.921Z</time></trkpt><trkpt lat="43.5903739" lon="10.5787626"><ele>36.0</ele><time>2026-04-29T10:02:00.918Z</time></trkpt><trkpt lat="43.5904404" lon="10.5788123"><ele>36.0</ele><time>2026-04-29T10:02:01.916Z</time></trkpt><trkpt lat="43.5905078" lon="10.5788636"><ele>36.0</ele><time>2026-04-29T10:02:02.93Z</time></trkpt><trkpt lat="43.5905781" lon="10.578916"><ele>35.833333333333336</ele><time>2026-04-29T10:02:03.92Z</time></trkpt><trkpt lat="43.5906477" lon="10.5789691"><ele>35.666666666666664</ele><time>2026-04-29T10:02:04.917Z</time></trkpt><trkpt lat="43.5907114" lon="10.5790222"><ele>35.5</ele><time>2026-04-29T10:02:05.919Z</time></trkpt><trkpt lat="43.5907794" lon="10.5790781"><ele>35.33333333333333</ele><time>2026-04-29T10:02:06.919Z</time></trkpt><trkpt lat="43.5908459" lon="10.5791364"><ele>35.166666666666664</ele><time>2026-04-29T10:02:07.923Z</time></trkpt><trkpt lat="43.590913" lon="10.5791941"><ele>35.0</ele><time>2026-04-29T10:02:08.92Z</time></trkpt><trkpt lat="43.5909778" lon="10.5792531"><ele>35.0</ele><time>2026-04-29T10:02:09.921Z</time></trkpt><trkpt lat="43.5910388" lon="10.5793111"><ele>35.0</ele><time>2026-04-29T10:02:10.92Z</time></trkpt><trkpt lat="43.5910991" lon="10.5793724"><ele>35.0</ele><time>2026-04-29T10:02:11.922Z</time></trkpt><trkpt lat="43.5911578" lon="10.5794357"><ele>35.0</ele><time>2026-04-29T10:02:12.929Z</time></trkpt><trkpt lat="43.5912166" lon="10.5795006"><ele>35.0</ele><time>2026-04-29T10:02:13.923Z</time></trkpt><trkpt lat="43.5912731" lon="10.5795681"><ele>35.0</ele><time>2026-04-29T10:02:14.932Z</time></trkpt><trkpt lat="43.5913264" lon="10.5796392"><ele>35.0</ele><time>2026-04-29T10:02:15.926Z</time></trkpt><trkpt lat="43.5913787" lon="10.5797111"><ele>34.42857142857143</ele><time>2026-04-29T10:02:16.939Z</time></trkpt><trkpt lat="43.5914298" lon="10.5797802"><ele>33.85714285714286</ele><time>2026-04-29T10:02:17.94Z</time></trkpt><trkpt lat="43.5914758" lon="10.5798545"><ele>33.285714285714285</ele><time>2026-04-29T10:02:18.934Z</time></trkpt><trkpt lat="43.5915138" lon="10.5799373"><ele>32.714285714285715</ele><time>2026-04-29T10:02:19.939Z</time></trkpt><trkpt lat="43.5915383" lon="10.5800344"><ele>32.142857142857146</ele><time>2026-04-29T10:02:20.939Z</time></trkpt><trkpt lat="43.5915534" lon="10.5801344"><ele>31.571428571428573</ele><time>2026-04-29T10:02:21.939Z</time></trkpt><trkpt lat="43.5915614" lon="10.5802301"><ele>31.0</ele><time>2026-04-29T10:02:22.956Z</time></trkpt><trkpt lat="43.5915687" lon="10.5803254"><ele>31.4</ele><time>2026-04-29T10:02:23.947Z</time></trkpt><trkpt lat="43.591578" lon="10.5804153"><ele>31.8</ele><time>2026-04-29T10:02:24.942Z</time></trkpt><trkpt lat="43.5915839" lon="10.5805772"><ele>32.199999999999996</ele><time>2026-04-29T10:02:26.948Z</time></trkpt><trkpt lat="43.5915823" lon="10.580717"><ele>32.6</ele><time>2026-04-29T10:02:28.937Z</time></trkpt><trkpt lat="43.5915682" lon="10.5808415"><ele>33.0</ele><time>2026-04-29T10:02:30.939Z</time></trkpt><trkpt lat="43.5915872" lon="10.5809459"><ele>33.0</ele><time>2026-04-29T10:02:33.949Z</time></trkpt><trkpt lat="43.5916688" lon="10.5809781"><ele>33.0</ele><time>2026-04-29T10:02:35.943Z</time></trkpt><trkpt lat="43.5917406" lon="10.581049"><ele>33.0</ele><time>2026-04-29T10:02:37.944Z</time></trkpt><trkpt lat="43.5918093" lon="10.5811552"><ele>33.0</ele><time>2026-04-29T10:02:39.941Z</time></trkpt><trkpt lat="43.5918857" lon="10.5812709"><ele>33.0</ele><time>2026-04-29T10:02:41.922Z</time></trkpt><trkpt lat="43.5919647" lon="10.581388"><ele>32.333333333333336</ele><time>2026-04-29T10:02:43.923Z</time></trkpt><trkpt lat="43.5920069" lon="10.5814528"><ele>31.666666666666664</ele><time>2026-04-29T10:02:44.928Z</time></trkpt><trkpt lat="43.5920859" lon="10.581594"><ele>31.0</ele><time>2026-04-29T10:02:46.939Z</time></trkpt><trkpt lat="43.5921261" lon="10.5816627"><ele>30.333333333333332</ele><time>2026-04-29T10:02:47.933Z</time></trkpt><trkpt lat="43.5921682" lon="10.5817321"><ele>29.666666666666664</ele><time>2026-04-29T10:02:48.928Z</time></trkpt><trkpt lat="43.5922102" lon="10.5818013"><ele>29.0</ele><time>2026-04-29T10:02:49.936Z</time></trkpt><trkpt lat="43.5922505" lon="10.5818717"><ele>29.000000000000004</ele><time>2026-04-29T10:02:50.943Z</time></trkpt><trkpt lat="43.5922949" lon="10.581942"><ele>29.0</ele><time>2026-04-29T10:02:51.944Z</time></trkpt><trkpt lat="43.5923376" lon="10.5820107"><ele>29.000000000000004</ele><time>2026-04-29T10:02:52.94Z</time></trkpt><trkpt lat="43.5923823" lon="10.5820801"><ele>29.000000000000004</ele><time>2026-04-29T10:02:53.945Z</time></trkpt><trkpt lat="43.5924281" lon="10.5821527"><ele>29.0</ele><time>2026-04-29T10:02:54.943Z</time></trkpt><trkpt lat="43.592477" lon="10.5822262"><ele>29.000000000000004</ele><time>2026-04-29T10:02:55.938Z</time></trkpt><trkpt lat="43.5925281" lon="10.5822991"><ele>29.000000000000004</ele><time>2026-04-29T10:02:56.942Z</time></trkpt><trkpt lat="43.5925769" lon="10.582369"><ele>29.2</ele><time>2026-04-29T10:02:57.941Z</time></trkpt><trkpt lat="43.5926242" lon="10.5824365"><ele>29.4</ele><time>2026-04-29T10:02:58.931Z</time></trkpt><trkpt lat="43.5926716" lon="10.5824994"><ele>29.6</ele><time>2026-04-29T10:02:59.933Z</time></trkpt><trkpt lat="43.5927615" lon="10.5826197"><ele>29.8</ele><time>2026-04-29T10:03:01.921Z</time></trkpt><trkpt lat="43.5928545" lon="10.5827407"><ele>30.0</ele><time>2026-04-29T10:03:03.919Z</time></trkpt><trkpt lat="43.592938" lon="10.5828544"><ele>30.333333333333332</ele><time>2026-04-29T10:03:05.923Z</time></trkpt><trkpt lat="43.5930318" lon="10.5829751"><ele>30.666666666666664</ele><time>2026-04-29T10:03:07.926Z</time></trkpt><trkpt lat="43.5930795" lon="10.5830445"><ele>31.0</ele><time>2026-04-29T10:03:08.925Z</time></trkpt><trkpt lat="43.5931229" lon="10.5831139"><ele>31.333333333333332</ele><time>2026-04-29T10:03:09.926Z</time></trkpt><trkpt lat="43.59317" lon="10.5831858"><ele>31.666666666666664</ele><time>2026-04-29T10:03:10.92Z</time></trkpt><trkpt lat="43.5932224" lon="10.5832544"><ele>32.0</ele><time>2026-04-29T10:03:11.921Z</time></trkpt><trkpt lat="43.5932701" lon="10.5833246"><ele>32.0</ele><time>2026-04-29T10:03:12.922Z</time></trkpt><trkpt lat="43.5933146" lon="10.5833961"><ele>31.999999999999996</ele><time>2026-04-29T10:03:13.934Z</time></trkpt><trkpt lat="43.5933625" lon="10.5834675"><ele>32.0</ele><time>2026-04-29T10:03:14.933Z</time></trkpt><trkpt lat="43.5934177" lon="10.5835333"><ele>32.0</ele><time>2026-04-29T10:03:15.933Z</time></trkpt><trkpt lat="43.5934733" lon="10.5835807"><ele>31.999999999999996</ele><time>2026-04-29T10:03:16.943Z</time></trkpt><trkpt lat="43.5935394" lon="10.5836071"><ele>32.0</ele><time>2026-04-29T10:03:17.929Z</time></trkpt><trkpt lat="43.5936109" lon="10.5836112"><ele>32.0</ele><time>2026-04-29T10:03:18.935Z</time></trkpt><trkpt lat="43.59368" lon="10.5835976"><ele>31.857142857142854</ele><time>2026-04-29T10:03:19.934Z</time></trkpt><trkpt lat="43.5937521" lon="10.5835701"><ele>31.71428571428571</ele><time>2026-04-29T10:03:20.943Z</time></trkpt><trkpt lat="43.5938191" lon="10.5835426"><ele>31.57142857142857</ele><time>2026-04-29T10:03:21.936Z</time></trkpt><trkpt lat="43.5938814" lon="10.5835112"><ele>31.42857142857143</ele><time>2026-04-29T10:03:22.933Z</time></trkpt><trkpt lat="43.5939473" lon="10.583483"><ele>31.28571428571429</ele><time>2026-04-29T10:03:23.93Z</time></trkpt><trkpt lat="43.5940154" lon="10.5834556"><ele>31.142857142857146</ele><time>2026-04-29T10:03:24.916Z</time></trkpt><trkpt lat="43.5940833" lon="10.5834262"><ele>31.0</ele><time>2026-04-29T10:03:25.935Z</time></trkpt><trkpt lat="43.594149" lon="10.5834022"><ele>31.0</ele><time>2026-04-29T10:03:26.931Z</time></trkpt><trkpt lat="43.5942148" lon="10.5833768"><ele>31.000000000000004</ele><time>2026-04-29T10:03:27.927Z</time></trkpt><trkpt lat="43.5942811" lon="10.5833557"><ele>31.0</ele><time>2026-04-29T10:03:28.949Z</time></trkpt><trkpt lat="43.5943477" lon="10.583336"><ele>31.0</ele><time>2026-04-29T10:03:29.951Z</time></trkpt><trkpt lat="43.5944173" lon="10.5833193"><ele>31.000000000000004</ele><time>2026-04-29T10:03:30.931Z</time></trkpt><trkpt lat="43.594485" lon="10.5833043"><ele>31.0</ele><time>2026-04-29T10:03:31.93Z</time></trkpt><trkpt lat="43.5945543" lon="10.5832879"><ele>31.0</ele><time>2026-04-29T10:03:32.931Z</time></trkpt><trkpt lat="43.5946266" lon="10.583278"><ele>30.714285714285715</ele><time>2026-04-29T10:03:33.929Z</time></trkpt><trkpt lat="43.5947" lon="10.5832675"><ele>30.42857142857143</ele><time>2026-04-29T10:03:34.939Z</time></trkpt><trkpt lat="43.5947733" lon="10.5832528"><ele>30.142857142857146</ele><time>2026-04-29T10:03:35.941Z</time></trkpt><trkpt lat="43.5948453" lon="10.5832338"><ele>29.85714285714286</ele><time>2026-04-29T10:03:36.933Z</time></trkpt><trkpt lat="43.5949153" lon="10.5832128"><ele>29.571428571428573</ele><time>2026-04-29T10:03:37.932Z</time></trkpt><trkpt lat="43.5949854" lon="10.5831951"><ele>29.285714285714292</ele><time>2026-04-29T10:03:38.915Z</time></trkpt><trkpt lat="43.5950585" lon="10.5831738"><ele>29.000000000000004</ele><time>2026-04-29T10:03:39.921Z</time></trkpt><trkpt lat="43.5951275" lon="10.5831497"><ele>29.000000000000004</ele><time>2026-04-29T10:03:40.934Z</time></trkpt><trkpt lat="43.5951968" lon="10.5831275"><ele>29.0</ele><time>2026-04-29T10:03:41.941Z</time></trkpt><trkpt lat="43.5952666" lon="10.583105"><ele>29.000000000000004</ele><time>2026-04-29T10:03:42.949Z</time></trkpt><trkpt lat="43.5953361" lon="10.5830827"><ele>29.000000000000004</ele><time>2026-04-29T10:03:43.947Z</time></trkpt><trkpt lat="43.5954006" lon="10.5830593"><ele>29.0</ele><time>2026-04-29T10:03:44.959Z</time></trkpt><trkpt lat="43.5954679" lon="10.5830371"><ele>29.000000000000004</ele><time>2026-04-29T10:03:45.929Z</time></trkpt><trkpt lat="43.595533" lon="10.5830151"><ele>29.000000000000004</ele><time>2026-04-29T10:03:46.942Z</time></trkpt><trkpt lat="43.5956008" lon="10.5829979"><ele>28.85714285714286</ele><time>2026-04-29T10:03:47.943Z</time></trkpt><trkpt lat="43.5956695" lon="10.5829825"><ele>28.714285714285715</ele><time>2026-04-29T10:03:48.942Z</time></trkpt><trkpt lat="43.5957401" lon="10.5829634"><ele>28.571428571428573</ele><time>2026-04-29T10:03:49.943Z</time></trkpt><trkpt lat="43.5958095" lon="10.5829429"><ele>28.42857142857143</ele><time>2026-04-29T10:03:50.942Z</time></trkpt><trkpt lat="43.5958774" lon="10.5829202"><ele>28.285714285714285</ele><time>2026-04-29T10:03:51.939Z</time></trkpt><trkpt lat="43.5959477" lon="10.5828998"><ele>28.142857142857142</ele><time>2026-04-29T10:03:52.963Z</time></trkpt><trkpt lat="43.59602" lon="10.5828779"><ele>28.0</ele><time>2026-04-29T10:03:53.961Z</time></trkpt><trkpt lat="43.5960905" lon="10.5828572"><ele>27.857142857142858</ele><time>2026-04-29T10:03:54.953Z</time></trkpt><trkpt lat="43.5961597" lon="10.5828312"><ele>27.714285714285715</ele><time>2026-04-29T10:03:55.96Z</time></trkpt><trkpt lat="43.5962321" lon="10.5828067"><ele>27.57142857142857</ele><time>2026-04-29T10:03:56.957Z</time></trkpt><trkpt lat="43.5963056" lon="10.5827827"><ele>27.42857142857143</ele><time>2026-04-29T10:03:57.953Z</time></trkpt><trkpt lat="43.5963806" lon="10.5827614"><ele>27.285714285714285</ele><time>2026-04-29T10:03:58.947Z</time></trkpt><trkpt lat="43.5964556" lon="10.5827449"><ele>27.142857142857142</ele><time>2026-04-29T10:03:59.954Z</time></trkpt><trkpt lat="43.5965275" lon="10.5827216"><ele>27.0</ele><time>2026-04-29T10:04:00.968Z</time></trkpt><trkpt lat="43.5966752" lon="10.5826867"><ele>26.857142857142858</ele><time>2026-04-29T10:04:02.942Z</time></trkpt><trkpt lat="43.596745" lon="10.5826668"><ele>26.714285714285715</ele><time>2026-04-29T10:04:03.946Z</time></trkpt><trkpt lat="43.596815" lon="10.5826448"><ele>26.57142857142857</ele><time>2026-04-29T10:04:04.945Z</time></trkpt><trkpt lat="43.5968866" lon="10.5826269"><ele>26.42857142857143</ele><time>2026-04-29T10:04:05.946Z</time></trkpt><trkpt lat="43.5969577" lon="10.5826123"><ele>26.28571428571429</ele><time>2026-04-29T10:04:06.941Z</time></trkpt><trkpt lat="43.5970293" lon="10.5826006"><ele>26.142857142857142</ele><time>2026-04-29T10:04:07.941Z</time></trkpt><trkpt lat="43.5970992" lon="10.5825838"><ele>26.0</ele><time>2026-04-29T10:04:08.938Z</time></trkpt><trkpt lat="43.5971663" lon="10.5825631"><ele>26.0</ele><time>2026-04-29T10:04:09.949Z</time></trkpt><trkpt lat="43.5972312" lon="10.5825454"><ele>26.0</ele><time>2026-04-29T10:04:10.947Z</time></trkpt><trkpt lat="43.597297" lon="10.5825322"><ele>26.0</ele><time>2026-04-29T10:04:11.949Z</time></trkpt><trkpt lat="43.5973666" lon="10.5825195"><ele>26.0</ele><time>2026-04-29T10:04:12.938Z</time></trkpt><trkpt lat="43.5974357" lon="10.5825092"><ele>26.0</ele><time>2026-04-29T10:04:13.934Z</time></trkpt><trkpt lat="43.5975044" lon="10.5824926"><ele>26.0</ele><time>2026-04-29T10:04:14.935Z</time></trkpt><trkpt lat="43.5975745" lon="10.5824795"><ele>26.0</ele><time>2026-04-29T10:04:15.939Z</time></trkpt><trkpt lat="43.5976446" lon="10.5824676"><ele>26.0</ele><time>2026-04-29T10:04:16.943Z</time></trkpt><trkpt lat="43.5977158" lon="10.5824553"><ele>26.0</ele><time>2026-04-29T10:04:17.94Z</time></trkpt><trkpt lat="43.5977849" lon="10.582442"><ele>26.0</ele><time>2026-04-29T10:04:18.942Z</time></trkpt><trkpt lat="43.597855" lon="10.58243"><ele>26.0</ele><time>2026-04-29T10:04:19.945Z</time></trkpt><trkpt lat="43.5979241" lon="10.5824182"><ele>26.0</ele><time>2026-04-29T10:04:20.942Z</time></trkpt><trkpt lat="43.5979919" lon="10.5824053"><ele>26.0</ele><time>2026-04-29T10:04:21.943Z</time></trkpt><trkpt lat="43.5980619" lon="10.5823951"><ele>26.0</ele><time>2026-04-29T10:04:22.937Z</time></trkpt><trkpt lat="43.5981279" lon="10.582378"><ele>25.857142857142858</ele><time>2026-04-29T10:04:23.945Z</time></trkpt><trkpt lat="43.5981925" lon="10.5823624"><ele>25.714285714285715</ele><time>2026-04-29T10:04:24.939Z</time></trkpt><trkpt lat="43.5982617" lon="10.5823563"><ele>25.571428571428573</ele><time>2026-04-29T10:04:25.937Z</time></trkpt><trkpt lat="43.5983283" lon="10.5823449"><ele>25.42857142857143</ele><time>2026-04-29T10:04:26.938Z</time></trkpt><trkpt lat="43.598398" lon="10.5823323"><ele>25.285714285714285</ele><time>2026-04-29T10:04:27.943Z</time></trkpt><trkpt lat="43.5984669" lon="10.5823189"><ele>25.142857142857146</ele><time>2026-04-29T10:04:28.943Z</time></trkpt><trkpt lat="43.5985363" lon="10.5823036"><ele>25.0</ele><time>2026-04-29T10:04:29.945Z</time></trkpt><trkpt lat="43.5986045" lon="10.5822893"><ele>25.000000000000004</ele><time>2026-04-29T10:04:30.947Z</time></trkpt><trkpt lat="43.5986745" lon="10.582277"><ele>25.0</ele><time>2026-04-29T10:04:31.946Z</time></trkpt><trkpt lat="43.5987399" lon="10.5822652"><ele>25.0</ele><time>2026-04-29T10:04:32.95Z</time></trkpt><trkpt lat="43.5988042" lon="10.5822492"><ele>25.0</ele><time>2026-04-29T10:04:33.946Z</time></trkpt><trkpt lat="43.5988683" lon="10.5822314"><ele>25.0</ele><time>2026-04-29T10:04:34.95Z</time></trkpt><trkpt lat="43.59893" lon="10.582214"><ele>25.000000000000004</ele><time>2026-04-29T10:04:35.949Z</time></trkpt><trkpt lat="43.5990468" lon="10.5821889"><ele>25.0</ele><time>2026-04-29T10:04:37.945Z</time></trkpt><trkpt lat="43.5991658" lon="10.5821624"><ele>25.0</ele><time>2026-04-29T10:04:39.945Z</time></trkpt><trkpt lat="43.5992846" lon="10.5821507"><ele>25.0</ele><time>2026-04-29T10:04:41.92Z</time></trkpt><trkpt lat="43.5994052" lon="10.5821559"><ele>25.0</ele><time>2026-04-29T10:04:43.927Z</time></trkpt><trkpt lat="43.5995268" lon="10.5821523"><ele>25.0</ele><time>2026-04-29T10:04:45.936Z</time></trkpt><trkpt lat="43.5996435" lon="10.5821423"><ele>25.0</ele><time>2026-04-29T10:04:47.924Z</time></trkpt><trkpt lat="43.5997571" lon="10.5821476"><ele>25.0</ele><time>2026-04-29T10:04:49.934Z</time></trkpt><trkpt lat="43.5998674" lon="10.5821541"><ele>25.0</ele><time>2026-04-29T10:04:51.924Z</time></trkpt><trkpt lat="43.5999746" lon="10.5821586"><ele>25.0</ele><time>2026-04-29T10:04:53.932Z</time></trkpt><trkpt lat="43.6000633" lon="10.5821526"><ele>25.0</ele><time>2026-04-29T10:04:55.93Z</time></trkpt><trkpt lat="43.6001039" lon="10.5822346"><ele>25.0</ele><time>2026-04-29T10:04:58.932Z</time></trkpt><trkpt lat="43.6000681" lon="10.5823188"><ele>25.0</ele><time>2026-04-29T10:05:00.93Z</time></trkpt><trkpt lat="43.6000195" lon="10.5824112"><ele>25.0</ele><time>2026-04-29T10:05:02.947Z</time></trkpt><trkpt lat="43.5999591" lon="10.5825157"><ele>25.0</ele><time>2026-04-29T10:05:04.943Z</time></trkpt><trkpt lat="43.5998971" lon="10.5826294"><ele>25.0</ele><time>2026-04-29T10:05:06.938Z</time></trkpt><trkpt lat="43.5998442" lon="10.5827514"><ele>24.6</ele><time>2026-04-29T10:05:08.938Z</time></trkpt><trkpt lat="43.5997848" lon="10.5828775"><ele>24.2</ele><time>2026-04-29T10:05:10.941Z</time></trkpt><trkpt lat="43.5997239" lon="10.5830078"><ele>23.799999999999997</ele><time>2026-04-29T10:05:12.941Z</time></trkpt><trkpt lat="43.5996626" lon="10.5831383"><ele>23.4</ele><time>2026-04-29T10:05:14.964Z</time></trkpt><trkpt lat="43.5996215" lon="10.5832804"><ele>23.0</ele><time>2026-04-29T10:05:16.952Z</time></trkpt><trkpt lat="43.5995709" lon="10.5834236"><ele>23.0</ele><time>2026-04-29T10:05:18.94Z</time></trkpt><trkpt lat="43.599516" lon="10.5835668"><ele>23.0</ele><time>2026-04-29T10:05:20.94Z</time></trkpt><trkpt lat="43.5994782" lon="10.5837218"><ele>23.0</ele><time>2026-04-29T10:05:22.947Z</time></trkpt><trkpt lat="43.5994556" lon="10.5838692"><ele>23.0</ele><time>2026-04-29T10:05:24.954Z</time></trkpt><trkpt lat="43.5994408" lon="10.5840148"><ele>23.799999999999997</ele><time>2026-04-29T10:05:26.953Z</time></trkpt><trkpt lat="43.5994309" lon="10.5841672"><ele>24.6</ele><time>2026-04-29T10:05:28.944Z</time></trkpt><trkpt lat="43.5994129" lon="10.584312"><ele>25.400000000000002</ele><time>2026-04-29T10:05:30.936Z</time></trkpt><trkpt lat="43.5993816" lon="10.5844548"><ele>26.200000000000003</ele><time>2026-04-29T10:05:32.937Z</time></trkpt><trkpt lat="43.5993492" lon="10.5846126"><ele>27.0</ele><time>2026-04-29T10:05:34.959Z</time></trkpt><trkpt lat="43.599321" lon="10.5847658"><ele>27.0</ele><time>2026-04-29T10:05:36.938Z</time></trkpt><trkpt lat="43.5993011" lon="10.5849149"><ele>27.000000000000004</ele><time>2026-04-29T10:05:38.944Z</time></trkpt><trkpt lat="43.5992734" lon="10.5850628"><ele>27.000000000000004</ele><time>2026-04-29T10:05:40.936Z</time></trkpt><trkpt lat="43.5992404" lon="10.5852047"><ele>27.0</ele><time>2026-04-29T10:05:42.932Z</time></trkpt><trkpt lat="43.5992077" lon="10.5853337"><ele>27.0</ele><time>2026-04-29T10:05:44.923Z</time></trkpt><trkpt lat="43.5991744" lon="10.585457"><ele>26.8</ele><time>2026-04-29T10:05:46.941Z</time></trkpt><trkpt lat="43.5991237" lon="10.5855897"><ele>26.6</ele><time>2026-04-29T10:05:48.928Z</time></trkpt><trkpt lat="43.5990628" lon="10.5857225"><ele>26.400000000000002</ele><time>2026-04-29T10:05:50.934Z</time></trkpt><trkpt lat="43.5990103" lon="10.5858593"><ele>26.200000000000003</ele><time>2026-04-29T10:05:52.941Z</time></trkpt><trkpt lat="43.5989672" lon="10.5859939"><ele>26.0</ele><time>2026-04-29T10:05:54.944Z</time></trkpt><trkpt lat="43.5989213" lon="10.5861289"><ele>26.0</ele><time>2026-04-29T10:05:56.937Z</time></trkpt><trkpt lat="43.5988925" lon="10.5862702"><ele>26.0</ele><time>2026-04-29T10:05:58.93Z</time></trkpt><trkpt lat="43.5988745" lon="10.5864176"><ele>26.0</ele><time>2026-04-29T10:06:00.937Z</time></trkpt><trkpt lat="43.5988684" lon="10.586567"><ele>26.0</ele><time>2026-04-29T10:06:02.947Z</time></trkpt><trkpt lat="43.5988648" lon="10.5867221"><ele>26.0</ele><time>2026-04-29T10:06:04.941Z</time></trkpt><trkpt lat="43.5988658" lon="10.5868664"><ele>25.75</ele><time>2026-04-29T10:06:06.943Z</time></trkpt><trkpt lat="43.5988742" lon="10.5870191"><ele>25.5</ele><time>2026-04-29T10:06:08.943Z</time></trkpt><trkpt lat="43.5988852" lon="10.5871799"><ele>25.25</ele><time>2026-04-29T10:06:10.945Z</time></trkpt><trkpt lat="43.5989024" lon="10.58734"><ele>25.0</ele><time>2026-04-29T10:06:12.932Z</time></trkpt><trkpt lat="43.5989289" lon="10.5875028"><ele>25.000000000000004</ele><time>2026-04-29T10:06:14.947Z</time></trkpt><trkpt lat="43.5989387" lon="10.5875898"><ele>25.0</ele><time>2026-04-29T10:06:15.942Z</time></trkpt><trkpt lat="43.598948" lon="10.5876775"><ele>25.0</ele><time>2026-04-29T10:06:16.934Z</time></trkpt><trkpt lat="43.5989574" lon="10.5877692"><ele>25.0</ele><time>2026-04-29T10:06:17.949Z</time></trkpt><trkpt lat="43.5989667" lon="10.5878603"><ele>25.0</ele><time>2026-04-29T10:06:18.935Z</time></trkpt><trkpt lat="43.5989751" lon="10.587952"><ele>25.000000000000004</ele><time>2026-04-29T10:06:19.941Z</time></trkpt><trkpt lat="43.5989835" lon="10.5880445"><ele>25.0</ele><time>2026-04-29T10:06:20.945Z</time></trkpt><trkpt lat="43.5989925" lon="10.5881365"><ele>24.42857142857143</ele><time>2026-04-29T10:06:21.935Z</time></trkpt><trkpt lat="43.5990034" lon="10.5882296"><ele>23.857142857142858</ele><time>2026-04-29T10:06:22.931Z</time></trkpt><trkpt lat="43.5990204" lon="10.5883261"><ele>23.285714285714285</ele><time>2026-04-29T10:06:23.931Z</time></trkpt><trkpt lat="43.5990394" lon="10.5884234"><ele>22.714285714285715</ele><time>2026-04-29T10:06:24.927Z</time></trkpt><trkpt lat="43.5990596" lon="10.588523"><ele>22.142857142857142</ele><time>2026-04-29T10:06:25.929Z</time></trkpt><trkpt lat="43.5990812" lon="10.5886221"><ele>21.571428571428573</ele><time>2026-04-29T10:06:26.931Z</time></trkpt><trkpt lat="43.5991024" lon="10.5887163"><ele>21.0</ele><time>2026-04-29T10:06:27.939Z</time></trkpt><trkpt lat="43.5991233" lon="10.5888114"><ele>20.714285714285715</ele><time>2026-04-29T10:06:28.93Z</time></trkpt><trkpt lat="43.5991435" lon="10.5888994"><ele>20.42857142857143</ele><time>2026-04-29T10:06:29.926Z</time></trkpt><trkpt lat="43.5991607" lon="10.5889892"><ele>20.142857142857142</ele><time>2026-04-29T10:06:30.925Z</time></trkpt><trkpt lat="43.5991754" lon="10.5890806"><ele>19.857142857142858</ele><time>2026-04-29T10:06:31.933Z</time></trkpt><trkpt lat="43.5991872" lon="10.5891723"><ele>19.571428571428573</ele><time>2026-04-29T10:06:32.926Z</time></trkpt><trkpt lat="43.5991962" lon="10.5892645"><ele>19.285714285714285</ele><time>2026-04-29T10:06:33.933Z</time></trkpt><trkpt lat="43.5992019" lon="10.5893569"><ele>19.0</ele><time>2026-04-29T10:06:34.935Z</time></trkpt><trkpt lat="43.5992011" lon="10.5894493"><ele>19.6</ele><time>2026-04-29T10:06:35.939Z</time></trkpt><trkpt lat="43.5991938" lon="10.5895363"><ele>20.2</ele><time>2026-04-29T10:06:36.935Z</time></trkpt><trkpt lat="43.599185" lon="10.5896265"><ele>20.8</ele><time>2026-04-29T10:06:37.94Z</time></trkpt><trkpt lat="43.5991681" lon="10.5897908"><ele>21.400000000000002</ele><time>2026-04-29T10:06:39.94Z</time></trkpt><trkpt lat="43.5991455" lon="10.5899444"><ele>22.0</ele><time>2026-04-29T10:06:41.935Z</time></trkpt><trkpt lat="43.5991138" lon="10.5900714"><ele>22.0</ele><time>2026-04-29T10:06:43.94Z</time></trkpt><trkpt lat="43.5990811" lon="10.590189"><ele>22.0</ele><time>2026-04-29T10:06:45.941Z</time></trkpt><trkpt lat="43.5990399" lon="10.590296"><ele>22.0</ele><time>2026-04-29T10:06:47.938Z</time></trkpt><trkpt lat="43.5989961" lon="10.5903859"><ele>22.0</ele><time>2026-04-29T10:06:49.946Z</time></trkpt><trkpt lat="43.5989462" lon="10.590465"><ele>22.0</ele><time>2026-04-29T10:06:51.944Z</time></trkpt><trkpt lat="43.5989018" lon="10.59054"><ele>22.0</ele><time>2026-04-29T10:06:53.954Z</time></trkpt><trkpt lat="43.5988586" lon="10.5906118"><ele>22.666666666666664</ele><time>2026-04-29T10:06:55.949Z</time></trkpt><trkpt lat="43.5988119" lon="10.5907221"><ele>23.333333333333332</ele><time>2026-04-29T10:06:58.95Z</time></trkpt><trkpt lat="43.5987837" lon="10.590804"><ele>24.0</ele><time>2026-04-29T10:07:00.947Z</time></trkpt><trkpt lat="43.5987521" lon="10.5908818"><ele>24.666666666666664</ele><time>2026-04-29T10:07:02.94Z</time></trkpt><trkpt lat="43.5987189" lon="10.5909692"><ele>25.333333333333332</ele><time>2026-04-29T10:07:04.945Z</time></trkpt><trkpt lat="43.5986778" lon="10.5910624"><ele>26.0</ele><time>2026-04-29T10:07:06.941Z</time></trkpt><trkpt lat="43.5986274" lon="10.5911617"><ele>26.166666666666664</ele><time>2026-04-29T10:07:08.941Z</time></trkpt><trkpt lat="43.5985764" lon="10.5912504"><ele>26.333333333333332</ele><time>2026-04-29T10:07:10.942Z</time></trkpt><trkpt lat="43.5985057" lon="10.5913374"><ele>26.5</ele><time>2026-04-29T10:07:12.954Z</time></trkpt><trkpt lat="43.5984299" lon="10.591412"><ele>26.666666666666664</ele><time>2026-04-29T10:07:14.949Z</time></trkpt><trkpt lat="43.5983528" lon="10.5914735"><ele>26.833333333333332</ele><time>2026-04-29T10:07:16.954Z</time></trkpt><trkpt lat="43.5982753" lon="10.5915317"><ele>27.0</ele><time>2026-04-29T10:07:18.938Z</time></trkpt><trkpt lat="43.5982018" lon="10.5915947"><ele>27.0</ele><time>2026-04-29T10:07:20.94Z</time></trkpt><trkpt lat="43.5981342" lon="10.591675"><ele>27.0</ele><time>2026-04-29T10:07:22.951Z</time></trkpt><trkpt lat="43.5980709" lon="10.5917625"><ele>27.0</ele><time>2026-04-29T10:07:24.947Z</time></trkpt><trkpt lat="43.5980089" lon="10.5918455"><ele>27.0</ele><time>2026-04-29T10:07:26.953Z</time></trkpt><trkpt lat="43.5979528" lon="10.5919186"><ele>27.0</ele><time>2026-04-29T10:07:28.947Z</time></trkpt><trkpt lat="43.5979256" lon="10.5920197"><ele>27.0</ele><time>2026-04-29T10:07:31.937Z</time></trkpt><trkpt lat="43.5979809" lon="10.592093"><ele>26.400000000000002</ele><time>2026-04-29T10:07:33.934Z</time></trkpt><trkpt lat="43.5980762" lon="10.5921216"><ele>25.800000000000004</ele><time>2026-04-29T10:07:35.94Z</time></trkpt><trkpt lat="43.5981697" lon="10.592154"><ele>25.2</ele><time>2026-04-29T10:07:37.94Z</time></trkpt><trkpt lat="43.5982574" lon="10.5921931"><ele>24.6</ele><time>2026-04-29T10:07:39.938Z</time></trkpt><trkpt lat="43.5983468" lon="10.5922344"><ele>24.0</ele><time>2026-04-29T10:07:41.932Z</time></trkpt><trkpt lat="43.5984422" lon="10.5922795"><ele>24.0</ele><time>2026-04-29T10:07:43.936Z</time></trkpt><trkpt lat="43.5985344" lon="10.5923281"><ele>24.0</ele><time>2026-04-29T10:07:45.933Z</time></trkpt><trkpt lat="43.5986307" lon="10.5923847"><ele>24.0</ele><time>2026-04-29T10:07:47.929Z</time></trkpt><trkpt lat="43.5987255" lon="10.5924336"><ele>24.0</ele><time>2026-04-29T10:07:49.932Z</time></trkpt><trkpt lat="43.5988197" lon="10.5924784"><ele>24.0</ele><time>2026-04-29T10:07:51.932Z</time></trkpt><trkpt lat="43.5989178" lon="10.5925247"><ele>24.2</ele><time>2026-04-29T10:07:53.933Z</time></trkpt><trkpt lat="43.5990193" lon="10.5925723"><ele>24.4</ele><time>2026-04-29T10:07:55.936Z</time></trkpt><trkpt lat="43.5991247" lon="10.5926277"><ele>24.6</ele><time>2026-04-29T10:07:57.931Z</time></trkpt><trkpt lat="43.5992256" lon="10.5926812"><ele>24.8</ele><time>2026-04-29T10:07:59.938Z</time></trkpt><trkpt lat="43.5993322" lon="10.5927341"><ele>25.0</ele><time>2026-04-29T10:08:01.932Z</time></trkpt><trkpt lat="43.5994377" lon="10.5927812"><ele>24.8</ele><time>2026-04-29T10:08:03.926Z</time></trkpt><trkpt lat="43.5995474" lon="10.592837"><ele>24.6</ele><time>2026-04-29T10:08:05.924Z</time></trkpt><trkpt lat="43.5996591" lon="10.5928841"><ele>24.4</ele><time>2026-04-29T10:08:07.926Z</time></trkpt><trkpt lat="43.599777" lon="10.5929408"><ele>24.2</ele><time>2026-04-29T10:08:09.929Z</time></trkpt><trkpt lat="43.599837" lon="10.592972"><ele>24.0</ele><time>2026-04-29T10:08:10.928Z</time></trkpt><trkpt lat="43.5999502" lon="10.593031"><ele>24.0</ele><time>2026-04-29T10:08:12.938Z</time></trkpt><trkpt lat="43.6000094" lon="10.5930673"><ele>24.0</ele><time>2026-04-29T10:08:13.932Z</time></trkpt><trkpt lat="43.6000683" lon="10.593102"><ele>24.0</ele><time>2026-04-29T10:08:14.93Z</time></trkpt><trkpt lat="43.6001816" lon="10.5931598"><ele>24.0</ele><time>2026-04-29T10:08:16.941Z</time></trkpt><trkpt lat="43.600294" lon="10.5932157"><ele>24.0</ele><time>2026-04-29T10:08:18.936Z</time></trkpt><trkpt lat="43.6004102" lon="10.5932766"><ele>23.75</ele><time>2026-04-29T10:08:20.94Z</time></trkpt><trkpt lat="43.6005265" lon="10.593328"><ele>23.5</ele><time>2026-04-29T10:08:22.95Z</time></trkpt><trkpt lat="43.6006405" lon="10.5933808"><ele>23.25</ele><time>2026-04-29T10:08:24.935Z</time></trkpt><trkpt lat="43.6007585" lon="10.5934329"><ele>23.0</ele><time>2026-04-29T10:08:26.936Z</time></trkpt><trkpt lat="43.600873" lon="10.5934824"><ele>23.0</ele><time>2026-04-29T10:08:28.933Z</time></trkpt><trkpt lat="43.600988" lon="10.5935283"><ele>23.0</ele><time>2026-04-29T10:08:30.932Z</time></trkpt><trkpt lat="43.6011041" lon="10.5935763"><ele>23.0</ele><time>2026-04-29T10:08:32.945Z</time></trkpt><trkpt lat="43.6012141" lon="10.5936197"><ele>23.0</ele><time>2026-04-29T10:08:34.935Z</time></trkpt><trkpt lat="43.6013253" lon="10.5936651"><ele>23.0</ele><time>2026-04-29T10:08:36.934Z</time></trkpt><trkpt lat="43.6014427" lon="10.5937135"><ele>23.0</ele><time>2026-04-29T10:08:38.932Z</time></trkpt><trkpt lat="43.6015606" lon="10.5937593"><ele>23.0</ele><time>2026-04-29T10:08:40.934Z</time></trkpt><trkpt lat="43.6016223" lon="10.5937842"><ele>23.0</ele><time>2026-04-29T10:08:41.935Z</time></trkpt><trkpt lat="43.6016828" lon="10.5938084"><ele>23.0</ele><time>2026-04-29T10:08:42.945Z</time></trkpt><trkpt lat="43.601806" lon="10.5938625"><ele>23.0</ele><time>2026-04-29T10:08:44.937Z</time></trkpt><trkpt lat="43.6018675" lon="10.5938909"><ele>23.0</ele><time>2026-04-29T10:08:45.934Z</time></trkpt><trkpt lat="43.6019857" lon="10.5939366"><ele>23.0</ele><time>2026-04-29T10:08:47.933Z</time></trkpt><trkpt lat="43.602101" lon="10.5939847"><ele>23.0</ele><time>2026-04-29T10:08:49.939Z</time></trkpt><trkpt lat="43.6022185" lon="10.5940402"><ele>23.0</ele><time>2026-04-29T10:08:51.937Z</time></trkpt><trkpt lat="43.6023349" lon="10.5940975"><ele>23.25</ele><time>2026-04-29T10:08:53.935Z</time></trkpt><trkpt lat="43.6024476" lon="10.5941535"><ele>23.5</ele><time>2026-04-29T10:08:55.94Z</time></trkpt><trkpt lat="43.6025612" lon="10.5942049"><ele>23.75</ele><time>2026-04-29T10:08:57.931Z</time></trkpt><trkpt lat="43.6026709" lon="10.5942541"><ele>24.0</ele><time>2026-04-29T10:08:59.944Z</time></trkpt><trkpt lat="43.6027691" lon="10.5943091"><ele>24.0</ele><time>2026-04-29T10:09:01.945Z</time></trkpt><trkpt lat="43.6028722" lon="10.5943646"><ele>24.0</ele><time>2026-04-29T10:09:03.941Z</time></trkpt><trkpt lat="43.6029739" lon="10.5944088"><ele>24.0</ele><time>2026-04-29T10:09:05.942Z</time></trkpt><trkpt lat="43.6030832" lon="10.5944664"><ele>24.0</ele><time>2026-04-29T10:09:07.939Z</time></trkpt><trkpt lat="43.603196" lon="10.5945201"><ele>23.75</ele><time>2026-04-29T10:09:09.941Z</time></trkpt><trkpt lat="43.6033083" lon="10.5945789"><ele>23.5</ele><time>2026-04-29T10:09:11.929Z</time></trkpt><trkpt lat="43.6034218" lon="10.5946356"><ele>23.25</ele><time>2026-04-29T10:09:13.933Z</time></trkpt><trkpt lat="43.603534" lon="10.5946877"><ele>23.0</ele><time>2026-04-29T10:09:15.939Z</time></trkpt><trkpt lat="43.603646" lon="10.5947398"><ele>22.857142857142858</ele><time>2026-04-29T10:09:17.933Z</time></trkpt><trkpt lat="43.603763" lon="10.5948043"><ele>22.71428571428571</ele><time>2026-04-29T10:09:19.934Z</time></trkpt><trkpt lat="43.6038227" lon="10.5948343"><ele>22.57142857142857</ele><time>2026-04-29T10:09:20.934Z</time></trkpt><trkpt lat="43.6038839" lon="10.5948658"><ele>22.42857142857143</ele><time>2026-04-29T10:09:21.942Z</time></trkpt><trkpt lat="43.6039453" lon="10.5948959"><ele>22.285714285714285</ele><time>2026-04-29T10:09:22.947Z</time></trkpt><trkpt lat="43.604006" lon="10.5949256"><ele>22.142857142857142</ele><time>2026-04-29T10:09:23.94Z</time></trkpt><trkpt lat="43.6040646" lon="10.5949575"><ele>22.0</ele><time>2026-04-29T10:09:24.936Z</time></trkpt><trkpt lat="43.6041255" lon="10.594992"><ele>22.0</ele><time>2026-04-29T10:09:25.939Z</time></trkpt><trkpt lat="43.6041883" lon="10.5950237"><ele>22.0</ele><time>2026-04-29T10:09:26.938Z</time></trkpt><trkpt lat="43.6042529" lon="10.5950558"><ele>22.0</ele><time>2026-04-29T10:09:27.937Z</time></trkpt><trkpt lat="43.6043199" lon="10.5950888"><ele>22.0</ele><time>2026-04-29T10:09:28.927Z</time></trkpt><trkpt lat="43.6043866" lon="10.5951229"><ele>22.0</ele><time>2026-04-29T10:09:29.937Z</time></trkpt><trkpt lat="43.6044535" lon="10.5951566"><ele>22.0</ele><time>2026-04-29T10:09:30.933Z</time></trkpt><trkpt lat="43.6045216" lon="10.59519"><ele>22.0</ele><time>2026-04-29T10:09:31.929Z</time></trkpt><trkpt lat="43.604587" lon="10.5952197"><ele>21.857142857142858</ele><time>2026-04-29T10:09:32.95Z</time></trkpt><trkpt lat="43.6046519" lon="10.59525"><ele>21.714285714285715</ele><time>2026-04-29T10:09:33.923Z</time></trkpt><trkpt lat="43.6047197" lon="10.595278"><ele>21.57142857142857</ele><time>2026-04-29T10:09:34.934Z</time></trkpt><trkpt lat="43.6047881" lon="10.5953046"><ele>21.42857142857143</ele><time>2026-04-29T10:09:35.948Z</time></trkpt><trkpt lat="43.6048533" lon="10.5953357"><ele>21.285714285714285</ele><time>2026-04-29T10:09:36.932Z</time></trkpt><trkpt lat="43.6049187" lon="10.5953736"><ele>21.142857142857142</ele><time>2026-04-29T10:09:37.933Z</time></trkpt><trkpt lat="43.604986" lon="10.5954114"><ele>21.0</ele><time>2026-04-29T10:09:38.937Z</time></trkpt><trkpt lat="43.6050516" lon="10.5954499"><ele>21.0</ele><time>2026-04-29T10:09:39.949Z</time></trkpt><trkpt lat="43.6051186" lon="10.5954893"><ele>21.0</ele><time>2026-04-29T10:09:40.935Z</time></trkpt><trkpt lat="43.6051857" lon="10.5955325"><ele>21.0</ele><time>2026-04-29T10:09:41.931Z</time></trkpt><trkpt lat="43.6052542" lon="10.5955762"><ele>21.0</ele><time>2026-04-29T10:09:42.933Z</time></trkpt><trkpt lat="43.6053223" lon="10.5956197"><ele>21.0</ele><time>2026-04-29T10:09:43.93Z</time></trkpt><trkpt lat="43.6053908" lon="10.5956609"><ele>21.0</ele><time>2026-04-29T10:09:44.927Z</time></trkpt><trkpt lat="43.6054585" lon="10.5957044"><ele>21.0</ele><time>2026-04-29T10:09:45.929Z</time></trkpt><trkpt lat="43.6055263" lon="10.5957482"><ele>21.0</ele><time>2026-04-29T10:09:46.931Z</time></trkpt><trkpt lat="43.6055925" lon="10.5957921"><ele>21.0</ele><time>2026-04-29T10:09:47.934Z</time></trkpt><trkpt lat="43.6056599" lon="10.5958373"><ele>21.0</ele><time>2026-04-29T10:09:48.935Z</time></trkpt><trkpt lat="43.6057271" lon="10.5958796"><ele>21.0</ele><time>2026-04-29T10:09:49.938Z</time></trkpt><trkpt lat="43.6057954" lon="10.5959205"><ele>21.0</ele><time>2026-04-29T10:09:50.936Z</time></trkpt><trkpt lat="43.605864" lon="10.595959"><ele>21.0</ele><time>2026-04-29T10:09:51.945Z</time></trkpt><trkpt lat="43.6059339" lon="10.5960001"><ele>21.0</ele><time>2026-04-29T10:09:52.946Z</time></trkpt><trkpt lat="43.6060026" lon="10.5960405"><ele>21.0</ele><time>2026-04-29T10:09:53.942Z</time></trkpt><trkpt lat="43.6060722" lon="10.5960789"><ele>21.0</ele><time>2026-04-29T10:09:54.929Z</time></trkpt><trkpt lat="43.6061405" lon="10.596119"><ele>21.0</ele><time>2026-04-29T10:09:55.933Z</time></trkpt><trkpt lat="43.6062085" lon="10.5961616"><ele>21.0</ele><time>2026-04-29T10:09:56.93Z</time></trkpt><trkpt lat="43.6062736" lon="10.5962018"><ele>21.0</ele><time>2026-04-29T10:09:57.93Z</time></trkpt><trkpt lat="43.6063381" lon="10.5962396"><ele>21.0</ele><time>2026-04-29T10:09:58.922Z</time></trkpt><trkpt lat="43.6063995" lon="10.5962778"><ele>21.0</ele><time>2026-04-29T10:09:59.928Z</time></trkpt><trkpt lat="43.6064603" lon="10.596317"><ele>20.714285714285715</ele><time>2026-04-29T10:10:00.936Z</time></trkpt><trkpt lat="43.6065243" lon="10.5963557"><ele>20.42857142857143</ele><time>2026-04-29T10:10:01.929Z</time></trkpt><trkpt lat="43.6065871" lon="10.5963955"><ele>20.142857142857142</ele><time>2026-04-29T10:10:02.934Z</time></trkpt><trkpt lat="43.6066465" lon="10.5964301"><ele>19.857142857142858</ele><time>2026-04-29T10:10:03.945Z</time></trkpt><trkpt lat="43.6067073" lon="10.596469"><ele>19.571428571428573</ele><time>2026-04-29T10:10:04.937Z</time></trkpt><trkpt lat="43.6067662" lon="10.5965097"><ele>19.285714285714285</ele><time>2026-04-29T10:10:05.938Z</time></trkpt><trkpt lat="43.606821" lon="10.5965526"><ele>19.0</ele><time>2026-04-29T10:10:06.934Z</time></trkpt><trkpt lat="43.6068762" lon="10.5966051"><ele>19.0</ele><time>2026-04-29T10:10:07.932Z</time></trkpt><trkpt lat="43.6069315" lon="10.5966538"><ele>19.0</ele><time>2026-04-29T10:10:08.942Z</time></trkpt><trkpt lat="43.6069916" lon="10.5966974"><ele>19.0</ele><time>2026-04-29T10:10:09.932Z</time></trkpt><trkpt lat="43.607055" lon="10.5967361"><ele>19.0</ele><time>2026-04-29T10:10:10.93Z</time></trkpt><trkpt lat="43.607121" lon="10.5967671"><ele>19.0</ele><time>2026-04-29T10:10:11.936Z</time></trkpt><trkpt lat="43.6071893" lon="10.5967727"><ele>19.0</ele><time>2026-04-29T10:10:12.93Z</time></trkpt><trkpt lat="43.6072542" lon="10.596773"><ele>19.0</ele><time>2026-04-29T10:10:13.937Z</time></trkpt><trkpt lat="43.60737" lon="10.5967689"><ele>18.8</ele><time>2026-04-29T10:10:15.942Z</time></trkpt><trkpt lat="43.6074769" lon="10.5968035"><ele>18.599999999999998</ele><time>2026-04-29T10:10:17.936Z</time></trkpt><trkpt lat="43.6075752" lon="10.5968886"><ele>18.4</ele><time>2026-04-29T10:10:19.931Z</time></trkpt><trkpt lat="43.607626" lon="10.5969457"><ele>18.2</ele><time>2026-04-29T10:10:20.936Z</time></trkpt><trkpt lat="43.6076762" lon="10.5970016"><ele>18.0</ele><time>2026-04-29T10:10:21.934Z</time></trkpt><trkpt lat="43.6077824" lon="10.5971003"><ele>17.857142857142858</ele><time>2026-04-29T10:10:23.93Z</time></trkpt><trkpt lat="43.6078462" lon="10.5971333"><ele>17.714285714285715</ele><time>2026-04-29T10:10:24.931Z</time></trkpt><trkpt lat="43.6079162" lon="10.5971466"><ele>17.57142857142857</ele><time>2026-04-29T10:10:25.934Z</time></trkpt><trkpt lat="43.6079859" lon="10.5971313"><ele>17.42857142857143</ele><time>2026-04-29T10:10:26.936Z</time></trkpt><trkpt lat="43.6080441" lon="10.5970865"><ele>17.285714285714285</ele><time>2026-04-29T10:10:27.928Z</time></trkpt><trkpt lat="43.608096" lon="10.5970206"><ele>17.142857142857142</ele><time>2026-04-29T10:10:28.926Z</time></trkpt><trkpt lat="43.6081426" lon="10.5969475"><ele>17.0</ele><time>2026-04-29T10:10:29.935Z</time></trkpt><trkpt lat="43.6081849" lon="10.5968704"><ele>16.999999999999996</ele><time>2026-04-29T10:10:30.932Z</time></trkpt><trkpt lat="43.6082282" lon="10.596793"><ele>17.0</ele><time>2026-04-29T10:10:31.93Z</time></trkpt><trkpt lat="43.6082708" lon="10.5967168"><ele>17.0</ele><time>2026-04-29T10:10:32.931Z</time></trkpt><trkpt lat="43.6083142" lon="10.5966445"><ele>17.0</ele><time>2026-04-29T10:10:33.933Z</time></trkpt><trkpt lat="43.6083552" lon="10.5965724"><ele>17.0</ele><time>2026-04-29T10:10:34.933Z</time></trkpt><trkpt lat="43.6083946" lon="10.5964977"><ele>16.999999999999996</ele><time>2026-04-29T10:10:35.93Z</time></trkpt><trkpt lat="43.6084319" lon="10.5964227"><ele>17.0</ele><time>2026-04-29T10:10:36.93Z</time></trkpt><trkpt lat="43.6084658" lon="10.5963401"><ele>16.999999999999996</ele><time>2026-04-29T10:10:37.932Z</time></trkpt><trkpt lat="43.6084975" lon="10.5962603"><ele>17.0</ele><time>2026-04-29T10:10:38.927Z</time></trkpt><trkpt lat="43.6085277" lon="10.59618"><ele>17.0</ele><time>2026-04-29T10:10:39.931Z</time></trkpt><trkpt lat="43.6085579" lon="10.5961006"><ele>17.0</ele><time>2026-04-29T10:10:40.93Z</time></trkpt><trkpt lat="43.6085869" lon="10.5960167"><ele>17.0</ele><time>2026-04-29T10:10:41.93Z</time></trkpt><trkpt lat="43.608619" lon="10.5959327"><ele>16.999999999999996</ele><time>2026-04-29T10:10:42.927Z</time></trkpt><trkpt lat="43.6086519" lon="10.5958567"><ele>17.0</ele><time>2026-04-29T10:10:43.925Z</time></trkpt><trkpt lat="43.6087575" lon="10.595769"><ele>16.857142857142854</ele><time>2026-04-29T10:10:45.927Z</time></trkpt><trkpt lat="43.6088215" lon="10.595756"><ele>16.714285714285715</ele><time>2026-04-29T10:10:46.927Z</time></trkpt><trkpt lat="43.6088847" lon="10.5957633"><ele>16.57142857142857</ele><time>2026-04-29T10:10:47.921Z</time></trkpt><trkpt lat="43.6089498" lon="10.5957875"><ele>16.428571428571427</ele><time>2026-04-29T10:10:48.925Z</time></trkpt><trkpt lat="43.6090151" lon="10.5958315"><ele>16.285714285714285</ele><time>2026-04-29T10:10:49.923Z</time></trkpt><trkpt lat="43.6090794" lon="10.5958805"><ele>16.142857142857142</ele><time>2026-04-29T10:10:50.92Z</time></trkpt><trkpt lat="43.6091395" lon="10.5959388"><ele>16.0</ele><time>2026-04-29T10:10:51.923Z</time></trkpt><trkpt lat="43.6092019" lon="10.5959991"><ele>16.0</ele><time>2026-04-29T10:10:52.919Z</time></trkpt><trkpt lat="43.6092635" lon="10.5960535"><ele>15.999999999999998</ele><time>2026-04-29T10:10:53.921Z</time></trkpt><trkpt lat="43.6093262" lon="10.5961058"><ele>16.0</ele><time>2026-04-29T10:10:54.922Z</time></trkpt><trkpt lat="43.6093895" lon="10.5961526"><ele>16.0</ele><time>2026-04-29T10:10:55.924Z</time></trkpt><trkpt lat="43.6094504" lon="10.5962024"><ele>15.999999999999998</ele><time>2026-04-29T10:10:56.918Z</time></trkpt><trkpt lat="43.6095142" lon="10.5962534"><ele>16.0</ele><time>2026-04-29T10:10:57.924Z</time></trkpt><trkpt lat="43.6095748" lon="10.5963017"><ele>16.0</ele><time>2026-04-29T10:10:58.922Z</time></trkpt><trkpt lat="43.6096303" lon="10.5963519"><ele>16.142857142857142</ele><time>2026-04-29T10:10:59.918Z</time></trkpt><trkpt lat="43.609688" lon="10.5964014"><ele>16.285714285714285</ele><time>2026-04-29T10:11:00.921Z</time></trkpt><trkpt lat="43.6097457" lon="10.5964456"><ele>16.428571428571427</ele><time>2026-04-29T10:11:01.912Z</time></trkpt><trkpt lat="43.6098047" lon="10.5964932"><ele>16.57142857142857</ele><time>2026-04-29T10:11:02.915Z</time></trkpt><trkpt lat="43.6098634" lon="10.596535"><ele>16.714285714285715</ele><time>2026-04-29T10:11:03.92Z</time></trkpt><trkpt lat="43.6099206" lon="10.59658"><ele>16.857142857142854</ele><time>2026-04-29T10:11:04.916Z</time></trkpt><trkpt lat="43.6099798" lon="10.5966262"><ele>17.0</ele><time>2026-04-29T10:11:05.921Z</time></trkpt><trkpt lat="43.6100429" lon="10.5966795"><ele>16.999999999999996</ele><time>2026-04-29T10:11:06.919Z</time></trkpt><trkpt lat="43.6101065" lon="10.5967335"><ele>17.0</ele><time>2026-04-29T10:11:07.919Z</time></trkpt><trkpt lat="43.6101707" lon="10.5967863"><ele>17.0</ele><time>2026-04-29T10:11:08.919Z</time></trkpt><trkpt lat="43.6102335" lon="10.5968371"><ele>17.0</ele><time>2026-04-29T10:11:09.925Z</time></trkpt><trkpt lat="43.610296" lon="10.5968849"><ele>17.0</ele><time>2026-04-29T10:11:10.925Z</time></trkpt><trkpt lat="43.6103569" lon="10.596935"><ele>16.999999999999996</ele><time>2026-04-29T10:11:11.929Z</time></trkpt><trkpt lat="43.6104208" lon="10.5969772"><ele>17.0</ele><time>2026-04-29T10:11:12.929Z</time></trkpt><trkpt lat="43.6104864" lon="10.5970125"><ele>16.71428571428571</ele><time>2026-04-29T10:11:13.935Z</time></trkpt><trkpt lat="43.6105569" lon="10.5970464"><ele>16.428571428571427</ele><time>2026-04-29T10:11:14.935Z</time></trkpt><trkpt lat="43.6106277" lon="10.59708"><ele>16.142857142857142</ele><time>2026-04-29T10:11:15.933Z</time></trkpt><trkpt lat="43.610697" lon="10.5971098"><ele>15.857142857142856</ele><time>2026-04-29T10:11:16.931Z</time></trkpt><trkpt lat="43.6107648" lon="10.5971351"><ele>15.57142857142857</ele><time>2026-04-29T10:11:17.928Z</time></trkpt><trkpt lat="43.6108315" lon="10.5971633"><ele>15.285714285714286</ele><time>2026-04-29T10:11:18.945Z</time></trkpt><trkpt lat="43.6108966" lon="10.5971939"><ele>15.0</ele><time>2026-04-29T10:11:19.94Z</time></trkpt><trkpt lat="43.61096" lon="10.5972243"><ele>15.0</ele><time>2026-04-29T10:11:20.947Z</time></trkpt><trkpt lat="43.6110239" lon="10.5972561"><ele>15.0</ele><time>2026-04-29T10:11:21.946Z</time></trkpt><trkpt lat="43.6110875" lon="10.5972902"><ele>15.0</ele><time>2026-04-29T10:11:22.937Z</time></trkpt><trkpt lat="43.6111515" lon="10.5973203"><ele>15.0</ele><time>2026-04-29T10:11:23.945Z</time></trkpt><trkpt lat="43.6112154" lon="10.597351"><ele>15.0</ele><time>2026-04-29T10:11:24.938Z</time></trkpt><trkpt lat="43.6112776" lon="10.597384"><ele>15.0</ele><time>2026-04-29T10:11:25.951Z</time></trkpt><trkpt lat="43.6113371" lon="10.5974196"><ele>15.0</ele><time>2026-04-29T10:11:26.948Z</time></trkpt><trkpt lat="43.6113989" lon="10.5974551"><ele>15.142857142857142</ele><time>2026-04-29T10:11:27.951Z</time></trkpt><trkpt lat="43.6114609" lon="10.5974885"><ele>15.285714285714285</ele><time>2026-04-29T10:11:28.946Z</time></trkpt><trkpt lat="43.6115232" lon="10.5975251"><ele>15.428571428571427</ele><time>2026-04-29T10:11:29.951Z</time></trkpt><trkpt lat="43.611584" lon="10.5975634"><ele>15.571428571428571</ele><time>2026-04-29T10:11:30.949Z</time></trkpt><trkpt lat="43.611645" lon="10.5975954"><ele>15.714285714285712</ele><time>2026-04-29T10:11:31.948Z</time></trkpt><trkpt lat="43.6117046" lon="10.5976241"><ele>15.857142857142856</ele><time>2026-04-29T10:11:32.949Z</time></trkpt><trkpt lat="43.6117655" lon="10.597652"><ele>16.0</ele><time>2026-04-29T10:11:33.95Z</time></trkpt><trkpt lat="43.6118253" lon="10.5976825"><ele>15.999999999999998</ele><time>2026-04-29T10:11:34.948Z</time></trkpt><trkpt lat="43.6119429" lon="10.5977483"><ele>16.0</ele><time>2026-04-29T10:11:36.948Z</time></trkpt><trkpt lat="43.6120041" lon="10.5977857"><ele>16.0</ele><time>2026-04-29T10:11:37.944Z</time></trkpt><trkpt lat="43.6120659" lon="10.5978227"><ele>16.0</ele><time>2026-04-29T10:11:38.942Z</time></trkpt><trkpt lat="43.6121283" lon="10.5978559"><ele>15.999999999999998</ele><time>2026-04-29T10:11:39.944Z</time></trkpt><trkpt lat="43.6121905" lon="10.5978876"><ele>16.0</ele><time>2026-04-29T10:11:40.944Z</time></trkpt><trkpt lat="43.6122544" lon="10.59792"><ele>15.714285714285714</ele><time>2026-04-29T10:11:41.942Z</time></trkpt><trkpt lat="43.6123194" lon="10.5979491"><ele>15.428571428571427</ele><time>2026-04-29T10:11:42.949Z</time></trkpt><trkpt lat="43.6123836" lon="10.597979"><ele>15.142857142857142</ele><time>2026-04-29T10:11:43.953Z</time></trkpt><trkpt lat="43.6124492" lon="10.5980077"><ele>14.857142857142858</ele><time>2026-04-29T10:11:44.954Z</time></trkpt><trkpt lat="43.6125155" lon="10.5980375"><ele>14.571428571428571</ele><time>2026-04-29T10:11:45.956Z</time></trkpt><trkpt lat="43.6125807" lon="10.5980582"><ele>14.285714285714285</ele><time>2026-04-29T10:11:46.948Z</time></trkpt><trkpt lat="43.6126459" lon="10.5980777"><ele>14.0</ele><time>2026-04-29T10:11:47.952Z</time></trkpt><trkpt lat="43.6127108" lon="10.5981"><ele>14.0</ele><time>2026-04-29T10:11:48.948Z</time></trkpt><trkpt lat="43.6127761" lon="10.598118"><ele>14.0</ele><time>2026-04-29T10:11:49.959Z</time></trkpt><trkpt lat="43.6128438" lon="10.5981344"><ele>14.0</ele><time>2026-04-29T10:11:50.947Z</time></trkpt><trkpt lat="43.6129109" lon="10.5981396"><ele>14.0</ele><time>2026-04-29T10:11:51.937Z</time></trkpt><trkpt lat="43.612979" lon="10.5981357"><ele>14.0</ele><time>2026-04-29T10:11:52.942Z</time></trkpt><trkpt lat="43.6130447" lon="10.5981262"><ele>14.0</ele><time>2026-04-29T10:11:53.94Z</time></trkpt><trkpt lat="43.6131118" lon="10.5981159"><ele>14.0</ele><time>2026-04-29T10:11:54.938Z</time></trkpt><trkpt lat="43.6131741" lon="10.5980993"><ele>14.0</ele><time>2026-04-29T10:11:55.945Z</time></trkpt><trkpt lat="43.6132356" lon="10.5980788"><ele>14.0</ele><time>2026-04-29T10:11:56.94Z</time></trkpt><trkpt lat="43.6133008" lon="10.5980651"><ele>14.0</ele><time>2026-04-29T10:11:57.944Z</time></trkpt><trkpt lat="43.6133649" lon="10.5980621"><ele>14.0</ele><time>2026-04-29T10:11:58.938Z</time></trkpt><trkpt lat="43.6134284" lon="10.5980664"><ele>14.0</ele><time>2026-04-29T10:11:59.936Z</time></trkpt><trkpt lat="43.613495" lon="10.5980811"><ele>14.0</ele><time>2026-04-29T10:12:00.937Z</time></trkpt><trkpt lat="43.6135614" lon="10.5981027"><ele>14.0</ele><time>2026-04-29T10:12:01.939Z</time></trkpt><trkpt lat="43.6136251" lon="10.5981341"><ele>14.142857142857142</ele><time>2026-04-29T10:12:02.938Z</time></trkpt><trkpt lat="43.6136868" lon="10.5981718"><ele>14.285714285714285</ele><time>2026-04-29T10:12:03.938Z</time></trkpt><trkpt lat="43.613747" lon="10.5982149"><ele>14.428571428571429</ele><time>2026-04-29T10:12:04.937Z</time></trkpt><trkpt lat="43.6138062" lon="10.598256"><ele>14.571428571428571</ele><time>2026-04-29T10:12:05.934Z</time></trkpt><trkpt lat="43.6138654" lon="10.5983022"><ele>14.714285714285714</ele><time>2026-04-29T10:12:06.935Z</time></trkpt><trkpt lat="43.6139237" lon="10.5983429"><ele>14.857142857142858</ele><time>2026-04-29T10:12:07.948Z</time></trkpt><trkpt lat="43.6139837" lon="10.5983853"><ele>15.0</ele><time>2026-04-29T10:12:08.938Z</time></trkpt><trkpt lat="43.6140437" lon="10.5984224"><ele>15.0</ele><time>2026-04-29T10:12:09.939Z</time></trkpt><trkpt lat="43.6141032" lon="10.5984573"><ele>15.0</ele><time>2026-04-29T10:12:10.933Z</time></trkpt><trkpt lat="43.6141627" lon="10.5984919"><ele>15.0</ele><time>2026-04-29T10:12:11.933Z</time></trkpt><trkpt lat="43.6142202" lon="10.5985274"><ele>15.0</ele><time>2026-04-29T10:12:12.932Z</time></trkpt><trkpt lat="43.6142795" lon="10.5985644"><ele>15.0</ele><time>2026-04-29T10:12:13.937Z</time></trkpt><trkpt lat="43.6143864" lon="10.5986407"><ele>15.0</ele><time>2026-04-29T10:12:15.931Z</time></trkpt><trkpt lat="43.6144931" lon="10.598703"><ele>15.25</ele><time>2026-04-29T10:12:17.928Z</time></trkpt><trkpt lat="43.614607" lon="10.5987632"><ele>15.5</ele><time>2026-04-29T10:12:19.932Z</time></trkpt><trkpt lat="43.6147196" lon="10.5988248"><ele>15.75</ele><time>2026-04-29T10:12:21.928Z</time></trkpt><trkpt lat="43.614828" lon="10.5988893"><ele>16.0</ele><time>2026-04-29T10:12:23.943Z</time></trkpt><trkpt lat="43.6149418" lon="10.598944"><ele>16.0</ele><time>2026-04-29T10:12:25.931Z</time></trkpt><trkpt lat="43.61506" lon="10.5989922"><ele>16.0</ele><time>2026-04-29T10:12:27.931Z</time></trkpt><trkpt lat="43.6151814" lon="10.5990283"><ele>16.0</ele><time>2026-04-29T10:12:29.938Z</time></trkpt><trkpt lat="43.6152919" lon="10.5991031"><ele>16.0</ele><time>2026-04-29T10:12:31.93Z</time></trkpt><trkpt lat="43.615377" lon="10.5992102"><ele>15.600000000000001</ele><time>2026-04-29T10:12:33.943Z</time></trkpt><trkpt lat="43.6154864" lon="10.5992364"><ele>15.200000000000001</ele><time>2026-04-29T10:12:35.939Z</time></trkpt><trkpt lat="43.6155963" lon="10.5991552"><ele>14.799999999999999</ele><time>2026-04-29T10:12:37.945Z</time></trkpt><trkpt lat="43.6156514" lon="10.5991089"><ele>14.399999999999999</ele><time>2026-04-29T10:12:38.94Z</time></trkpt><trkpt lat="43.6157625" lon="10.599028"><ele>14.0</ele><time>2026-04-29T10:12:40.941Z</time></trkpt><trkpt lat="43.6158176" lon="10.598979"><ele>14.000000000000002</ele><time>2026-04-29T10:12:41.94Z</time></trkpt><trkpt lat="43.6158729" lon="10.5989333"><ele>14.0</ele><time>2026-04-29T10:12:42.94Z</time></trkpt><trkpt lat="43.6159312" lon="10.5988977"><ele>14.0</ele><time>2026-04-29T10:12:43.947Z</time></trkpt><trkpt lat="43.6159907" lon="10.5988665"><ele>14.0</ele><time>2026-04-29T10:12:44.939Z</time></trkpt><trkpt lat="43.6160489" lon="10.5988326"><ele>14.000000000000002</ele><time>2026-04-29T10:12:45.938Z</time></trkpt><trkpt lat="43.616163" lon="10.5987677"><ele>14.0</ele><time>2026-04-29T10:12:47.941Z</time></trkpt><trkpt lat="43.6162817" lon="10.5987122"><ele>14.000000000000002</ele><time>2026-04-29T10:12:49.938Z</time></trkpt><trkpt lat="43.6163416" lon="10.5986826"><ele>14.0</ele><time>2026-04-29T10:12:50.94Z</time></trkpt><trkpt lat="43.6164054" lon="10.5986579"><ele>14.0</ele><time>2026-04-29T10:12:51.937Z</time></trkpt><trkpt lat="43.6165278" lon="10.5986092"><ele>14.0</ele><time>2026-04-29T10:12:53.949Z</time></trkpt><trkpt lat="43.6165921" lon="10.5985878"><ele>14.000000000000002</ele><time>2026-04-29T10:12:54.942Z</time></trkpt><trkpt lat="43.6167124" lon="10.5985542"><ele>14.0</ele><time>2026-04-29T10:12:56.944Z</time></trkpt><trkpt lat="43.6168274" lon="10.5985112"><ele>14.0</ele><time>2026-04-29T10:12:58.931Z</time></trkpt><trkpt lat="43.616946" lon="10.5984795"><ele>14.0</ele><time>2026-04-29T10:13:00.936Z</time></trkpt><trkpt lat="43.6170641" lon="10.5984495"><ele>14.0</ele><time>2026-04-29T10:13:02.937Z</time></trkpt><trkpt lat="43.6171853" lon="10.5984239"><ele>14.0</ele><time>2026-04-29T10:13:04.933Z</time></trkpt><trkpt lat="43.6173118" lon="10.5983935"><ele>14.0</ele><time>2026-04-29T10:13:06.933Z</time></trkpt><trkpt lat="43.6173763" lon="10.5983816"><ele>13.999999999999998</ele><time>2026-04-29T10:13:07.936Z</time></trkpt><trkpt lat="43.6174422" lon="10.598377"><ele>13.999999999999998</ele><time>2026-04-29T10:13:08.939Z</time></trkpt><trkpt lat="43.6175675" lon="10.5983734"><ele>14.0</ele><time>2026-04-29T10:13:10.935Z</time></trkpt><trkpt lat="43.617688" lon="10.5983718"><ele>14.0</ele><time>2026-04-29T10:13:12.936Z</time></trkpt><trkpt lat="43.6178068" lon="10.598369"><ele>14.0</ele><time>2026-04-29T10:13:14.937Z</time></trkpt><trkpt lat="43.6179285" lon="10.5983699"><ele>14.0</ele><time>2026-04-29T10:13:16.942Z</time></trkpt><trkpt lat="43.618042" lon="10.5983787"><ele>14.0</ele><time>2026-04-29T10:13:18.937Z</time></trkpt><trkpt lat="43.6181502" lon="10.5983967"><ele>14.0</ele><time>2026-04-29T10:13:20.934Z</time></trkpt><trkpt lat="43.618254" lon="10.5984234"><ele>14.0</ele><time>2026-04-29T10:13:22.945Z</time></trkpt><trkpt lat="43.6183458" lon="10.5984731"><ele>13.999999999999998</ele><time>2026-04-29T10:13:24.934Z</time></trkpt><trkpt lat="43.6183923" lon="10.5985685"><ele>13.999999999999998</ele><time>2026-04-29T10:13:26.944Z</time></trkpt><trkpt lat="43.6183942" lon="10.5986986"><ele>14.0</ele><time>2026-04-29T10:13:29.947Z</time></trkpt><trkpt lat="43.6184172" lon="10.5988062"><ele>14.0</ele><time>2026-04-29T10:13:31.943Z</time></trkpt><trkpt lat="43.6184656" lon="10.5989227"><ele>14.0</ele><time>2026-04-29T10:13:33.952Z</time></trkpt><trkpt lat="43.6185457" lon="10.5990224"><ele>14.0</ele><time>2026-04-29T10:13:35.939Z</time></trkpt><trkpt lat="43.6186474" lon="10.599094"><ele>14.0</ele><time>2026-04-29T10:13:37.944Z</time></trkpt><trkpt lat="43.6187624" lon="10.5991263"><ele>14.0</ele><time>2026-04-29T10:13:39.941Z</time></trkpt><trkpt lat="43.6188844" lon="10.5991017"><ele>14.000000000000002</ele><time>2026-04-29T10:13:41.934Z</time></trkpt><trkpt lat="43.618944" lon="10.5990611"><ele>14.0</ele><time>2026-04-29T10:13:42.932Z</time></trkpt><trkpt lat="43.6189988" lon="10.5990137"><ele>14.0</ele><time>2026-04-29T10:13:43.945Z</time></trkpt><trkpt lat="43.6190525" lon="10.5989667"><ele>14.0</ele><time>2026-04-29T10:13:44.935Z</time></trkpt><trkpt lat="43.6191632" lon="10.5988959"><ele>14.000000000000002</ele><time>2026-04-29T10:13:46.93Z</time></trkpt><trkpt lat="43.6192252" lon="10.598878"><ele>14.0</ele><time>2026-04-29T10:13:47.932Z</time></trkpt><trkpt lat="43.6193476" lon="10.5989059"><ele>14.0</ele><time>2026-04-29T10:13:49.934Z</time></trkpt><trkpt lat="43.6194071" lon="10.5989408"><ele>14.0</ele><time>2026-04-29T10:13:50.935Z</time></trkpt><trkpt lat="43.619466" lon="10.5989764"><ele>14.0</ele><time>2026-04-29T10:13:51.935Z</time></trkpt><trkpt lat="43.6195272" lon="10.5990141"><ele>14.0</ele><time>2026-04-29T10:13:52.933Z</time></trkpt><trkpt lat="43.6195859" lon="10.599047"><ele>14.0</ele><time>2026-04-29T10:13:53.934Z</time></trkpt><trkpt lat="43.6196447" lon="10.5990801"><ele>14.0</ele><time>2026-04-29T10:13:54.934Z</time></trkpt><trkpt lat="43.6197035" lon="10.5991131"><ele>14.0</ele><time>2026-04-29T10:13:55.937Z</time></trkpt><trkpt lat="43.6198204" lon="10.5991798"><ele>14.0</ele><time>2026-04-29T10:13:57.934Z</time></trkpt><trkpt lat="43.6199354" lon="10.5992405"><ele>13.999999999999998</ele><time>2026-04-29T10:13:59.935Z</time></trkpt><trkpt lat="43.6200509" lon="10.5992969"><ele>13.999999999999998</ele><time>2026-04-29T10:14:01.933Z</time></trkpt><trkpt lat="43.6201672" lon="10.5993588"><ele>14.0</ele><time>2026-04-29T10:14:03.934Z</time></trkpt><trkpt lat="43.6202257" lon="10.5993911"><ele>14.0</ele><time>2026-04-29T10:14:04.935Z</time></trkpt><trkpt lat="43.6203401" lon="10.5994507"><ele>14.0</ele><time>2026-04-29T10:14:06.93Z</time></trkpt><trkpt lat="43.6204487" lon="10.5995126"><ele>14.0</ele><time>2026-04-29T10:14:08.938Z</time></trkpt><trkpt lat="43.6205616" lon="10.5995683"><ele>14.0</ele><time>2026-04-29T10:14:10.946Z</time></trkpt><trkpt lat="43.6206761" lon="10.5996211"><ele>14.0</ele><time>2026-04-29T10:14:12.939Z</time></trkpt><trkpt lat="43.6207935" lon="10.5996778"><ele>14.0</ele><time>2026-04-29T10:14:14.942Z</time></trkpt><trkpt lat="43.6209074" lon="10.5997447"><ele>13.999999999999998</ele><time>2026-04-29T10:14:16.944Z</time></trkpt><trkpt lat="43.6210225" lon="10.599806"><ele>13.999999999999998</ele><time>2026-04-29T10:14:18.938Z</time></trkpt><trkpt lat="43.621082" lon="10.5998405"><ele>14.0</ele><time>2026-04-29T10:14:19.934Z</time></trkpt><trkpt lat="43.6211979" lon="10.5999025"><ele>14.0</ele><time>2026-04-29T10:14:21.936Z</time></trkpt><trkpt lat="43.621261" lon="10.5999332"><ele>14.000000000000002</ele><time>2026-04-29T10:14:22.931Z</time></trkpt><trkpt lat="43.6213224" lon="10.5999622"><ele>14.0</ele><time>2026-04-29T10:14:23.936Z</time></trkpt><trkpt lat="43.6213837" lon="10.5999887"><ele>14.0</ele><time>2026-04-29T10:14:24.935Z</time></trkpt><trkpt lat="43.6214461" lon="10.6000177"><ele>14.0</ele><time>2026-04-29T10:14:25.938Z</time></trkpt><trkpt lat="43.6215085" lon="10.6000458"><ele>14.000000000000002</ele><time>2026-04-29T10:14:26.934Z</time></trkpt><trkpt lat="43.6216269" lon="10.6001061"><ele>14.0</ele><time>2026-04-29T10:14:28.94Z</time></trkpt><trkpt lat="43.6217446" lon="10.6001657"><ele>14.000000000000002</ele><time>2026-04-29T10:14:30.928Z</time></trkpt><trkpt lat="43.6218042" lon="10.6001984"><ele>14.0</ele><time>2026-04-29T10:14:31.933Z</time></trkpt><trkpt lat="43.621921" lon="10.6002585"><ele>14.0</ele><time>2026-04-29T10:14:33.934Z</time></trkpt><trkpt lat="43.6219808" lon="10.6002871"><ele>14.0</ele><time>2026-04-29T10:14:34.941Z</time></trkpt><trkpt lat="43.6220419" lon="10.6003206"><ele>14.000000000000002</ele><time>2026-04-29T10:14:35.932Z</time></trkpt><trkpt lat="43.6221035" lon="10.6003557"><ele>14.0</ele><time>2026-04-29T10:14:36.93Z</time></trkpt><trkpt lat="43.6221652" lon="10.6003928"><ele>14.0</ele><time>2026-04-29T10:14:37.934Z</time></trkpt><trkpt lat="43.6222251" lon="10.6004268"><ele>14.0</ele><time>2026-04-29T10:14:38.933Z</time></trkpt><trkpt lat="43.6222844" lon="10.60046"><ele>14.0</ele><time>2026-04-29T10:14:39.932Z</time></trkpt><trkpt lat="43.6223428" lon="10.6004929"><ele>14.0</ele><time>2026-04-29T10:14:40.944Z</time></trkpt><trkpt lat="43.6224022" lon="10.6005241"><ele>14.0</ele><time>2026-04-29T10:14:41.95Z</time></trkpt><trkpt lat="43.6224619" lon="10.6005523"><ele>14.0</ele><time>2026-04-29T10:14:42.945Z</time></trkpt><trkpt lat="43.6225234" lon="10.600581"><ele>14.0</ele><time>2026-04-29T10:14:43.947Z</time></trkpt><trkpt lat="43.6225873" lon="10.6006126"><ele>14.0</ele><time>2026-04-29T10:14:44.946Z</time></trkpt><trkpt lat="43.6226478" lon="10.600647"><ele>14.0</ele><time>2026-04-29T10:14:45.954Z</time></trkpt><trkpt lat="43.6227078" lon="10.6006814"><ele>14.0</ele><time>2026-04-29T10:14:46.949Z</time></trkpt><trkpt lat="43.6227665" lon="10.600715"><ele>14.0</ele><time>2026-04-29T10:14:47.949Z</time></trkpt><trkpt lat="43.6228243" lon="10.6007514"><ele>14.0</ele><time>2026-04-29T10:14:48.946Z</time></trkpt><trkpt lat="43.6228833" lon="10.6007867"><ele>14.0</ele><time>2026-04-29T10:14:49.948Z</time></trkpt><trkpt lat="43.6229984" lon="10.6008554"><ele>14.0</ele><time>2026-04-29T10:14:51.942Z</time></trkpt><trkpt lat="43.6230559" lon="10.6008944"><ele>14.399999999999999</ele><time>2026-04-29T10:14:52.941Z</time></trkpt><trkpt lat="43.6231126" lon="10.6009356"><ele>14.799999999999999</ele><time>2026-04-29T10:14:53.949Z</time></trkpt><trkpt lat="43.6232179" lon="10.6010226"><ele>15.200000000000001</ele><time>2026-04-29T10:14:55.94Z</time></trkpt><trkpt lat="43.6233217" lon="10.6011131"><ele>15.600000000000001</ele><time>2026-04-29T10:14:57.938Z</time></trkpt><trkpt lat="43.623421" lon="10.6012106"><ele>16.0</ele><time>2026-04-29T10:14:59.923Z</time></trkpt><trkpt lat="43.6235023" lon="10.6013334"><ele>16.0</ele><time>2026-04-29T10:15:01.935Z</time></trkpt><trkpt lat="43.6235646" lon="10.6014715"><ele>16.0</ele><time>2026-04-29T10:15:03.919Z</time></trkpt><trkpt lat="43.6236236" lon="10.6016065"><ele>16.0</ele><time>2026-04-29T10:15:05.919Z</time></trkpt><trkpt lat="43.6236809" lon="10.6017473"><ele>16.0</ele><time>2026-04-29T10:15:07.922Z</time></trkpt><trkpt lat="43.6237336" lon="10.6018908"><ele>15.8</ele><time>2026-04-29T10:15:09.923Z</time></trkpt><trkpt lat="43.6237849" lon="10.6020218"><ele>15.600000000000001</ele><time>2026-04-29T10:15:11.922Z</time></trkpt><trkpt lat="43.6238335" lon="10.6021447"><ele>15.4</ele><time>2026-04-29T10:15:13.925Z</time></trkpt><trkpt lat="43.6238777" lon="10.6022551"><ele>15.2</ele><time>2026-04-29T10:15:15.922Z</time></trkpt><trkpt lat="43.623894" lon="10.6023775"><ele>15.0</ele><time>2026-04-29T10:15:17.921Z</time></trkpt><trkpt lat="43.6238594" lon="10.6025236"><ele>15.0</ele><time>2026-04-29T10:15:19.928Z</time></trkpt><trkpt lat="43.6238314" lon="10.6026022"><ele>15.0</ele><time>2026-04-29T10:15:20.924Z</time></trkpt><trkpt lat="43.6238052" lon="10.6026821"><ele>15.0</ele><time>2026-04-29T10:15:21.926Z</time></trkpt><trkpt lat="43.6237857" lon="10.6027675"><ele>15.0</ele><time>2026-04-29T10:15:22.922Z</time></trkpt><trkpt lat="43.6237853" lon="10.60286"><ele>15.0</ele><time>2026-04-29T10:15:23.922Z</time></trkpt><trkpt lat="43.6238053" lon="10.6029478"><ele>15.0</ele><time>2026-04-29T10:15:24.922Z</time></trkpt><trkpt lat="43.6238437" lon="10.6030216"><ele>15.0</ele><time>2026-04-29T10:15:25.924Z</time></trkpt><trkpt lat="43.6238983" lon="10.6030744"><ele>15.142857142857142</ele><time>2026-04-29T10:15:26.922Z</time></trkpt><trkpt lat="43.6239598" lon="10.603109"><ele>15.285714285714285</ele><time>2026-04-29T10:15:27.923Z</time></trkpt><trkpt lat="43.6240273" lon="10.603125"><ele>15.428571428571427</ele><time>2026-04-29T10:15:28.927Z</time></trkpt><trkpt lat="43.6240949" lon="10.6031227"><ele>15.571428571428571</ele><time>2026-04-29T10:15:29.933Z</time></trkpt><trkpt lat="43.6241597" lon="10.603095"><ele>15.714285714285712</ele><time>2026-04-29T10:15:30.918Z</time></trkpt><trkpt lat="43.6242184" lon="10.603048"><ele>15.857142857142856</ele><time>2026-04-29T10:15:31.927Z</time></trkpt><trkpt lat="43.624269" lon="10.6029869"><ele>16.0</ele><time>2026-04-29T10:15:32.924Z</time></trkpt><trkpt lat="43.6243079" lon="10.6029154"><ele>16.0</ele><time>2026-04-29T10:15:33.929Z</time></trkpt><trkpt lat="43.6243317" lon="10.6028327"><ele>15.999999999999998</ele><time>2026-04-29T10:15:34.921Z</time></trkpt><trkpt lat="43.6243457" lon="10.6027436"><ele>16.0</ele><time>2026-04-29T10:15:35.927Z</time></trkpt><trkpt lat="43.6243576" lon="10.6026536"><ele>16.0</ele><time>2026-04-29T10:15:36.927Z</time></trkpt><trkpt lat="43.624378" lon="10.6025691"><ele>15.999999999999998</ele><time>2026-04-29T10:15:37.923Z</time></trkpt><trkpt lat="43.6244605" lon="10.6024467"><ele>16.0</ele><time>2026-04-29T10:15:39.921Z</time></trkpt><trkpt lat="43.6245204" lon="10.602415"><ele>16.0</ele><time>2026-04-29T10:15:40.928Z</time></trkpt><trkpt lat="43.624583" lon="10.6023894"><ele>15.833333333333332</ele><time>2026-04-29T10:15:41.923Z</time></trkpt><trkpt lat="43.6247071" lon="10.6023515"><ele>15.666666666666666</ele><time>2026-04-29T10:15:43.93Z</time></trkpt><trkpt lat="43.6247686" lon="10.6023321"><ele>15.5</ele><time>2026-04-29T10:15:44.924Z</time></trkpt><trkpt lat="43.6248311" lon="10.602316"><ele>15.333333333333332</ele><time>2026-04-29T10:15:45.927Z</time></trkpt><trkpt lat="43.6249561" lon="10.602289"><ele>15.166666666666666</ele><time>2026-04-29T10:15:47.926Z</time></trkpt><trkpt lat="43.6250199" lon="10.6022777"><ele>15.0</ele><time>2026-04-29T10:15:48.934Z</time></trkpt><trkpt lat="43.6250847" lon="10.6022666"><ele>15.0</ele><time>2026-04-29T10:15:49.933Z</time></trkpt><trkpt lat="43.6251494" lon="10.6022568"><ele>15.0</ele><time>2026-04-29T10:15:50.93Z</time></trkpt><trkpt lat="43.625214" lon="10.6022487"><ele>15.0</ele><time>2026-04-29T10:15:51.922Z</time></trkpt><trkpt lat="43.6252773" lon="10.6022425"><ele>15.0</ele><time>2026-04-29T10:15:52.92Z</time></trkpt><trkpt lat="43.6253995" lon="10.602231"><ele>15.0</ele><time>2026-04-29T10:15:54.919Z</time></trkpt><trkpt lat="43.6255213" lon="10.6022241"><ele>15.0</ele><time>2026-04-29T10:15:56.923Z</time></trkpt><trkpt lat="43.625646" lon="10.6022204"><ele>15.0</ele><time>2026-04-29T10:15:58.933Z</time></trkpt><trkpt lat="43.625765" lon="10.6022243"><ele>15.0</ele><time>2026-04-29T10:16:00.931Z</time></trkpt><trkpt lat="43.6258847" lon="10.6022343"><ele>15.0</ele><time>2026-04-29T10:16:02.926Z</time></trkpt><trkpt lat="43.6260022" lon="10.6022494"><ele>15.0</ele><time>2026-04-29T10:16:04.939Z</time></trkpt><trkpt lat="43.6261153" lon="10.6022687"><ele>14.75</ele><time>2026-04-29T10:16:06.921Z</time></trkpt><trkpt lat="43.62623" lon="10.6022926"><ele>14.5</ele><time>2026-04-29T10:16:08.93Z</time></trkpt><trkpt lat="43.6263447" lon="10.6023246"><ele>14.25</ele><time>2026-04-29T10:16:10.933Z</time></trkpt><trkpt lat="43.6264594" lon="10.6023643"><ele>14.0</ele><time>2026-04-29T10:16:12.935Z</time></trkpt><trkpt lat="43.6265764" lon="10.6023997"><ele>14.0</ele><time>2026-04-29T10:16:14.934Z</time></trkpt><trkpt lat="43.6266384" lon="10.6024162"><ele>13.999999999999998</ele><time>2026-04-29T10:16:15.937Z</time></trkpt><trkpt lat="43.6267563" lon="10.6024513"><ele>13.999999999999998</ele><time>2026-04-29T10:16:17.932Z</time></trkpt><trkpt lat="43.6268742" lon="10.6024972"><ele>14.0</ele><time>2026-04-29T10:16:19.929Z</time></trkpt><trkpt lat="43.6269947" lon="10.6025411"><ele>14.0</ele><time>2026-04-29T10:16:21.927Z</time></trkpt><trkpt lat="43.6271128" lon="10.6025899"><ele>14.5</ele><time>2026-04-29T10:16:23.925Z</time></trkpt><trkpt lat="43.6272288" lon="10.6026416"><ele>15.0</ele><time>2026-04-29T10:16:25.938Z</time></trkpt><trkpt lat="43.6273388" lon="10.6027034"><ele>15.5</ele><time>2026-04-29T10:16:27.92Z</time></trkpt><trkpt lat="43.6274534" lon="10.6027631"><ele>16.0</ele><time>2026-04-29T10:16:29.924Z</time></trkpt><trkpt lat="43.6275686" lon="10.6028291"><ele>16.0</ele><time>2026-04-29T10:16:31.918Z</time></trkpt><trkpt lat="43.6276289" lon="10.6028582"><ele>16.0</ele><time>2026-04-29T10:16:32.919Z</time></trkpt><trkpt lat="43.6277431" lon="10.6029111"><ele>16.0</ele><time>2026-04-29T10:16:34.94Z</time></trkpt><trkpt lat="43.627803" lon="10.6029401"><ele>16.0</ele><time>2026-04-29T10:16:35.929Z</time></trkpt><trkpt lat="43.6279172" lon="10.6029987"><ele>16.0</ele><time>2026-04-29T10:16:37.928Z</time></trkpt><trkpt lat="43.6280292" lon="10.6030591"><ele>16.0</ele><time>2026-04-29T10:16:39.932Z</time></trkpt><trkpt lat="43.6281427" lon="10.6031161"><ele>16.0</ele><time>2026-04-29T10:16:41.932Z</time></trkpt><trkpt lat="43.6282554" lon="10.6031805"><ele>16.0</ele><time>2026-04-29T10:16:43.929Z</time></trkpt><trkpt lat="43.6283703" lon="10.6032449"><ele>16.0</ele><time>2026-04-29T10:16:45.936Z</time></trkpt><trkpt lat="43.6284831" lon="10.6033052"><ele>16.0</ele><time>2026-04-29T10:16:47.922Z</time></trkpt><trkpt lat="43.6285945" lon="10.6033692"><ele>16.0</ele><time>2026-04-29T10:16:49.923Z</time></trkpt><trkpt lat="43.6287054" lon="10.6034308"><ele>16.0</ele><time>2026-04-29T10:16:51.924Z</time></trkpt><trkpt lat="43.6288132" lon="10.6034974"><ele>16.0</ele><time>2026-04-29T10:16:53.93Z</time></trkpt><trkpt lat="43.6289155" lon="10.6035658"><ele>15.5</ele><time>2026-04-29T10:16:55.931Z</time></trkpt><trkpt lat="43.6290217" lon="10.6036313"><ele>15.0</ele><time>2026-04-29T10:16:57.919Z</time></trkpt><trkpt lat="43.6291296" lon="10.6036915"><ele>14.5</ele><time>2026-04-29T10:16:59.933Z</time></trkpt><trkpt lat="43.6292406" lon="10.6037517"><ele>14.0</ele><time>2026-04-29T10:17:01.923Z</time></trkpt><trkpt lat="43.6293504" lon="10.6038148"><ele>14.0</ele><time>2026-04-29T10:17:03.919Z</time></trkpt><trkpt lat="43.6294625" lon="10.6038721"><ele>14.0</ele><time>2026-04-29T10:17:05.922Z</time></trkpt><trkpt lat="43.6295694" lon="10.6039336"><ele>14.0</ele><time>2026-04-29T10:17:07.92Z</time></trkpt><trkpt lat="43.6296835" lon="10.6040013"><ele>14.0</ele><time>2026-04-29T10:17:09.918Z</time></trkpt><trkpt lat="43.6297955" lon="10.6040614"><ele>13.75</ele><time>2026-04-29T10:17:11.925Z</time></trkpt><trkpt lat="43.6299078" lon="10.6041145"><ele>13.5</ele><time>2026-04-29T10:17:13.929Z</time></trkpt><trkpt lat="43.6300152" lon="10.6041672"><ele>13.25</ele><time>2026-04-29T10:17:15.932Z</time></trkpt><trkpt lat="43.6301197" lon="10.6042267"><ele>13.0</ele><time>2026-04-29T10:17:17.923Z</time></trkpt><trkpt lat="43.6302302" lon="10.604285"><ele>13.333333333333332</ele><time>2026-04-29T10:17:19.931Z</time></trkpt><trkpt lat="43.6303477" lon="10.60435"><ele>13.666666666666666</ele><time>2026-04-29T10:17:21.926Z</time></trkpt><trkpt lat="43.6304641" lon="10.604418"><ele>14.0</ele><time>2026-04-29T10:17:23.924Z</time></trkpt><trkpt lat="43.6305242" lon="10.6044511"><ele>14.333333333333332</ele><time>2026-04-29T10:17:24.934Z</time></trkpt><trkpt lat="43.6305848" lon="10.6044833"><ele>14.666666666666666</ele><time>2026-04-29T10:17:25.924Z</time></trkpt><trkpt lat="43.6306441" lon="10.6045146"><ele>15.0</ele><time>2026-04-29T10:17:26.924Z</time></trkpt><trkpt lat="43.6307509" lon="10.6045698"><ele>15.0</ele><time>2026-04-29T10:17:28.929Z</time></trkpt><trkpt lat="43.6308598" lon="10.6046286"><ele>15.0</ele><time>2026-04-29T10:17:30.921Z</time></trkpt><trkpt lat="43.6309709" lon="10.6046839"><ele>15.0</ele><time>2026-04-29T10:17:32.923Z</time></trkpt><trkpt lat="43.6310834" lon="10.6047482"><ele>15.0</ele><time>2026-04-29T10:17:34.932Z</time></trkpt><trkpt lat="43.6311993" lon="10.6048088"><ele>15.166666666666666</ele><time>2026-04-29T10:17:36.922Z</time></trkpt><trkpt lat="43.6312611" lon="10.6048442"><ele>15.333333333333332</ele><time>2026-04-29T10:17:37.922Z</time></trkpt><trkpt lat="43.6313233" lon="10.6048801"><ele>15.5</ele><time>2026-04-29T10:17:38.92Z</time></trkpt><trkpt lat="43.6313835" lon="10.6049125"><ele>15.666666666666666</ele><time>2026-04-29T10:17:39.923Z</time></trkpt><trkpt lat="43.6315008" lon="10.6049776"><ele>15.833333333333332</ele><time>2026-04-29T10:17:41.924Z</time></trkpt><trkpt lat="43.6316095" lon="10.6050411"><ele>16.0</ele><time>2026-04-29T10:17:43.93Z</time></trkpt><trkpt lat="43.631716" lon="10.6050972"><ele>16.0</ele><time>2026-04-29T10:17:45.933Z</time></trkpt><trkpt lat="43.6318202" lon="10.6051537"><ele>16.0</ele><time>2026-04-29T10:17:47.925Z</time></trkpt><trkpt lat="43.6319005" lon="10.6052485"><ele>16.0</ele><time>2026-04-29T10:17:49.93Z</time></trkpt><trkpt lat="43.6319475" lon="10.6053875"><ele>16.0</ele><time>2026-04-29T10:17:51.925Z</time></trkpt><trkpt lat="43.63203" lon="10.6054954"><ele>16.0</ele><time>2026-04-29T10:17:53.922Z</time></trkpt><trkpt lat="43.63212" lon="10.6055951"><ele>16.0</ele><time>2026-04-29T10:17:55.922Z</time></trkpt><trkpt lat="43.6321803" lon="10.6057378"><ele>16.0</ele><time>2026-04-29T10:17:57.922Z</time></trkpt><trkpt lat="43.6322257" lon="10.6058976"><ele>16.0</ele><time>2026-04-29T10:17:59.923Z</time></trkpt><trkpt lat="43.6322565" lon="10.6060632"><ele>16.0</ele><time>2026-04-29T10:18:01.92Z</time></trkpt><trkpt lat="43.6322658" lon="10.6062325"><ele>16.0</ele><time>2026-04-29T10:18:03.923Z</time></trkpt><trkpt lat="43.6322598" lon="10.6063242"><ele>15.999999999999998</ele><time>2026-04-29T10:18:04.918Z</time></trkpt><trkpt lat="43.6322476" lon="10.6064123"><ele>16.0</ele><time>2026-04-29T10:18:05.919Z</time></trkpt><trkpt lat="43.6322271" lon="10.6064988"><ele>16.0</ele><time>2026-04-29T10:18:06.923Z</time></trkpt><trkpt lat="43.6322029" lon="10.6065839"><ele>15.999999999999998</ele><time>2026-04-29T10:18:07.921Z</time></trkpt><trkpt lat="43.6321758" lon="10.6066643"><ele>16.0</ele><time>2026-04-29T10:18:08.92Z</time></trkpt><trkpt lat="43.6321492" lon="10.6067445"><ele>16.0</ele><time>2026-04-29T10:18:09.915Z</time></trkpt><trkpt lat="43.6320868" lon="10.606889"><ele>16.25</ele><time>2026-04-29T10:18:11.92Z</time></trkpt><trkpt lat="43.6320273" lon="10.6070349"><ele>16.5</ele><time>2026-04-29T10:18:13.92Z</time></trkpt><trkpt lat="43.6319653" lon="10.6071683"><ele>16.75</ele><time>2026-04-29T10:18:15.92Z</time></trkpt><trkpt lat="43.6318996" lon="10.607301"><ele>17.0</ele><time>2026-04-29T10:18:17.919Z</time></trkpt><trkpt lat="43.6318393" lon="10.607438"><ele>17.0</ele><time>2026-04-29T10:18:19.923Z</time></trkpt><trkpt lat="43.6317777" lon="10.607572"><ele>17.0</ele><time>2026-04-29T10:18:21.912Z</time></trkpt><trkpt lat="43.63171" lon="10.6077098"><ele>17.0</ele><time>2026-04-29T10:18:23.916Z</time></trkpt><trkpt lat="43.6316431" lon="10.6078471"><ele>17.0</ele><time>2026-04-29T10:18:25.926Z</time></trkpt><trkpt lat="43.6315824" lon="10.6079838"><ele>17.25</ele><time>2026-04-29T10:18:27.913Z</time></trkpt><trkpt lat="43.6315257" lon="10.6081166"><ele>17.5</ele><time>2026-04-29T10:18:29.913Z</time></trkpt><trkpt lat="43.6314728" lon="10.6082487"><ele>17.75</ele><time>2026-04-29T10:18:31.914Z</time></trkpt><trkpt lat="43.6314105" lon="10.6083801"><ele>18.0</ele><time>2026-04-29T10:18:33.912Z</time></trkpt><trkpt lat="43.6313473" lon="10.6085177"><ele>18.0</ele><time>2026-04-29T10:18:35.91Z</time></trkpt><trkpt lat="43.6312904" lon="10.6086584"><ele>18.0</ele><time>2026-04-29T10:18:37.909Z</time></trkpt><trkpt lat="43.6312298" lon="10.6087918"><ele>18.0</ele><time>2026-04-29T10:18:39.909Z</time></trkpt><trkpt lat="43.631163" lon="10.6089146"><ele>18.0</ele><time>2026-04-29T10:18:41.908Z</time></trkpt><trkpt lat="43.6311002" lon="10.6090421"><ele>18.0</ele><time>2026-04-29T10:18:43.913Z</time></trkpt><trkpt lat="43.631039" lon="10.6091727"><ele>18.0</ele><time>2026-04-29T10:18:45.911Z</time></trkpt><trkpt lat="43.6309856" lon="10.609308"><ele>18.0</ele><time>2026-04-29T10:18:47.932Z</time></trkpt><trkpt lat="43.6309367" lon="10.6094307"><ele>18.0</ele><time>2026-04-29T10:18:49.929Z</time></trkpt><trkpt lat="43.6308787" lon="10.6095514"><ele>18.0</ele><time>2026-04-29T10:18:51.933Z</time></trkpt><trkpt lat="43.6308258" lon="10.6096638"><ele>18.0</ele><time>2026-04-29T10:18:53.93Z</time></trkpt><trkpt lat="43.6307709" lon="10.6097839"><ele>18.0</ele><time>2026-04-29T10:18:55.935Z</time></trkpt><trkpt lat="43.6307167" lon="10.6099045"><ele>18.0</ele><time>2026-04-29T10:18:57.915Z</time></trkpt><trkpt lat="43.6306606" lon="10.6100226"><ele>18.0</ele><time>2026-04-29T10:18:59.916Z</time></trkpt><trkpt lat="43.6306035" lon="10.6101439"><ele>18.0</ele><time>2026-04-29T10:19:01.924Z</time></trkpt><trkpt lat="43.6305525" lon="10.6102602"><ele>18.0</ele><time>2026-04-29T10:19:03.914Z</time></trkpt><trkpt lat="43.630522" lon="10.610376"><ele>18.0</ele><time>2026-04-29T10:19:05.928Z</time></trkpt><trkpt lat="43.6304919" lon="10.6105076"><ele>18.0</ele><time>2026-04-29T10:19:07.927Z</time></trkpt><trkpt lat="43.6304403" lon="10.6106523"><ele>18.0</ele><time>2026-04-29T10:19:09.93Z</time></trkpt><trkpt lat="43.6304092" lon="10.6107314"><ele>18.0</ele><time>2026-04-29T10:19:10.928Z</time></trkpt><trkpt lat="43.6303724" lon="10.6108119"><ele>18.0</ele><time>2026-04-29T10:19:11.936Z</time></trkpt><trkpt lat="43.6303267" lon="10.6108916"><ele>18.142857142857146</ele><time>2026-04-29T10:19:12.931Z</time></trkpt><trkpt lat="43.6302755" lon="10.6109674"><ele>18.285714285714285</ele><time>2026-04-29T10:19:13.943Z</time></trkpt><trkpt lat="43.6302318" lon="10.6110516"><ele>18.42857142857143</ele><time>2026-04-29T10:19:14.937Z</time></trkpt><trkpt lat="43.6301972" lon="10.6111368"><ele>18.571428571428573</ele><time>2026-04-29T10:19:15.932Z</time></trkpt><trkpt lat="43.6301628" lon="10.6112191"><ele>18.714285714285715</ele><time>2026-04-29T10:19:16.924Z</time></trkpt><trkpt lat="43.6301299" lon="10.6113033"><ele>18.857142857142858</ele><time>2026-04-29T10:19:17.932Z</time></trkpt><trkpt lat="43.6300912" lon="10.6113855"><ele>19.0</ele><time>2026-04-29T10:19:18.93Z</time></trkpt><trkpt lat="43.630051" lon="10.6114533"><ele>19.0</ele><time>2026-04-29T10:19:19.917Z</time></trkpt><trkpt lat="43.6300074" lon="10.6115172"><ele>19.0</ele><time>2026-04-29T10:19:20.916Z</time></trkpt><trkpt lat="43.6299654" lon="10.6115913"><ele>19.0</ele><time>2026-04-29T10:19:21.915Z</time></trkpt><trkpt lat="43.6299311" lon="10.6116652"><ele>19.0</ele><time>2026-04-29T10:19:22.928Z</time></trkpt><trkpt lat="43.6298989" lon="10.6117431"><ele>19.0</ele><time>2026-04-29T10:19:23.926Z</time></trkpt><trkpt lat="43.6298329" lon="10.6118963"><ele>19.0</ele><time>2026-04-29T10:19:25.92Z</time></trkpt><trkpt lat="43.6297971" lon="10.6119737"><ele>19.0</ele><time>2026-04-29T10:19:26.925Z</time></trkpt><trkpt lat="43.6297633" lon="10.6120501"><ele>19.0</ele><time>2026-04-29T10:19:27.919Z</time></trkpt><trkpt lat="43.6297278" lon="10.6121257"><ele>19.0</ele><time>2026-04-29T10:19:28.92Z</time></trkpt><trkpt lat="43.6296953" lon="10.6122029"><ele>19.0</ele><time>2026-04-29T10:19:29.928Z</time></trkpt><trkpt lat="43.6296654" lon="10.6122811"><ele>19.0</ele><time>2026-04-29T10:19:30.924Z</time></trkpt><trkpt lat="43.6296324" lon="10.6123615"><ele>19.0</ele><time>2026-04-29T10:19:31.925Z</time></trkpt><trkpt lat="43.6295965" lon="10.6124387"><ele>19.0</ele><time>2026-04-29T10:19:32.925Z</time></trkpt><trkpt lat="43.6295616" lon="10.6125146"><ele>19.0</ele><time>2026-04-29T10:19:33.924Z</time></trkpt><trkpt lat="43.6295267" lon="10.6125913"><ele>19.0</ele><time>2026-04-29T10:19:34.927Z</time></trkpt><trkpt lat="43.6294901" lon="10.6126666"><ele>19.0</ele><time>2026-04-29T10:19:35.918Z</time></trkpt><trkpt lat="43.629451" lon="10.6127385"><ele>19.0</ele><time>2026-04-29T10:19:36.916Z</time></trkpt><trkpt lat="43.6294135" lon="10.6128122"><ele>19.0</ele><time>2026-04-29T10:19:37.918Z</time></trkpt><trkpt lat="43.6293775" lon="10.6128944"><ele>19.0</ele><time>2026-04-29T10:19:38.916Z</time></trkpt><trkpt lat="43.6293424" lon="10.6129734"><ele>19.0</ele><time>2026-04-29T10:19:39.919Z</time></trkpt><trkpt lat="43.6293042" lon="10.6130498"><ele>18.8</ele><time>2026-04-29T10:19:40.912Z</time></trkpt><trkpt lat="43.6292676" lon="10.6131236"><ele>18.599999999999998</ele><time>2026-04-29T10:19:41.917Z</time></trkpt><trkpt lat="43.6292294" lon="10.6131947"><ele>18.4</ele><time>2026-04-29T10:19:42.918Z</time></trkpt><trkpt lat="43.6291567" lon="10.6133344"><ele>18.2</ele><time>2026-04-29T10:19:44.916Z</time></trkpt><trkpt lat="43.6290902" lon="10.6134581"><ele>18.0</ele><time>2026-04-29T10:19:46.935Z</time></trkpt><trkpt lat="43.6290276" lon="10.6135706"><ele>17.833333333333332</ele><time>2026-04-29T10:19:48.93Z</time></trkpt><trkpt lat="43.6289553" lon="10.6136816"><ele>17.666666666666668</ele><time>2026-04-29T10:19:50.934Z</time></trkpt><trkpt lat="43.628874" lon="10.6138062"><ele>17.5</ele><time>2026-04-29T10:19:52.922Z</time></trkpt><trkpt lat="43.6288296" lon="10.6138721"><ele>17.333333333333336</ele><time>2026-04-29T10:19:53.933Z</time></trkpt><trkpt lat="43.6287875" lon="10.6139391"><ele>17.166666666666668</ele><time>2026-04-29T10:19:54.925Z</time></trkpt><trkpt lat="43.6287433" lon="10.614007"><ele>17.0</ele><time>2026-04-29T10:19:55.934Z</time></trkpt><trkpt lat="43.6286927" lon="10.6140743"><ele>16.999999999999996</ele><time>2026-04-29T10:19:56.922Z</time></trkpt><trkpt lat="43.6286401" lon="10.6141458"><ele>17.0</ele><time>2026-04-29T10:19:57.926Z</time></trkpt><trkpt lat="43.6285887" lon="10.6142166"><ele>17.0</ele><time>2026-04-29T10:19:58.918Z</time></trkpt><trkpt lat="43.6285366" lon="10.6142867"><ele>17.0</ele><time>2026-04-29T10:19:59.92Z</time></trkpt><trkpt lat="43.6284904" lon="10.6143605"><ele>17.0</ele><time>2026-04-29T10:20:00.918Z</time></trkpt><trkpt lat="43.6284461" lon="10.6144309"><ele>16.999999999999996</ele><time>2026-04-29T10:20:01.918Z</time></trkpt><trkpt lat="43.6284021" lon="10.6145032"><ele>17.0</ele><time>2026-04-29T10:20:02.923Z</time></trkpt><trkpt lat="43.6283591" lon="10.6145753"><ele>17.0</ele><time>2026-04-29T10:20:03.924Z</time></trkpt><trkpt lat="43.6283168" lon="10.6146445"><ele>17.0</ele><time>2026-04-29T10:20:04.931Z</time></trkpt><trkpt lat="43.6282731" lon="10.6147143"><ele>17.0</ele><time>2026-04-29T10:20:05.929Z</time></trkpt><trkpt lat="43.6282269" lon="10.614781"><ele>17.0</ele><time>2026-04-29T10:20:06.92Z</time></trkpt><trkpt lat="43.6281825" lon="10.6148477"><ele>17.0</ele><time>2026-04-29T10:20:07.919Z</time></trkpt><trkpt lat="43.6281374" lon="10.6149105"><ele>17.0</ele><time>2026-04-29T10:20:08.919Z</time></trkpt><trkpt lat="43.6280526" lon="10.6150449"><ele>17.0</ele><time>2026-04-29T10:20:10.924Z</time></trkpt><trkpt lat="43.628008" lon="10.6151113"><ele>17.0</ele><time>2026-04-29T10:20:11.942Z</time></trkpt><trkpt lat="43.6279639" lon="10.6151807"><ele>17.0</ele><time>2026-04-29T10:20:12.93Z</time></trkpt><trkpt lat="43.6279225" lon="10.6152506"><ele>17.0</ele><time>2026-04-29T10:20:13.926Z</time></trkpt><trkpt lat="43.6278829" lon="10.6153186"><ele>17.0</ele><time>2026-04-29T10:20:14.923Z</time></trkpt><trkpt lat="43.6278014" lon="10.6154494"><ele>17.0</ele><time>2026-04-29T10:20:16.927Z</time></trkpt><trkpt lat="43.6277173" lon="10.6155676"><ele>17.25</ele><time>2026-04-29T10:20:18.92Z</time></trkpt><trkpt lat="43.6276389" lon="10.6156904"><ele>17.5</ele><time>2026-04-29T10:20:20.935Z</time></trkpt><trkpt lat="43.6275599" lon="10.6158141"><ele>17.75</ele><time>2026-04-29T10:20:22.93Z</time></trkpt><trkpt lat="43.6274892" lon="10.6159389"><ele>18.0</ele><time>2026-04-29T10:20:24.93Z</time></trkpt><trkpt lat="43.6274235" lon="10.6160691"><ele>18.0</ele><time>2026-04-29T10:20:26.925Z</time></trkpt><trkpt lat="43.6273601" lon="10.6162013"><ele>18.0</ele><time>2026-04-29T10:20:28.924Z</time></trkpt><trkpt lat="43.6273031" lon="10.616334"><ele>18.0</ele><time>2026-04-29T10:20:30.915Z</time></trkpt><trkpt lat="43.627255" lon="10.6164539"><ele>18.0</ele><time>2026-04-29T10:20:32.921Z</time></trkpt><trkpt lat="43.6272229" lon="10.6165452"><ele>18.0</ele><time>2026-04-29T10:20:34.928Z</time></trkpt><trkpt lat="43.6271595" lon="10.6166415"><ele>18.0</ele><time>2026-04-29T10:20:38.927Z</time></trkpt><trkpt lat="43.6271005" lon="10.6166958"><ele>18.0</ele><time>2026-04-29T10:20:40.935Z</time></trkpt><trkpt lat="43.6270141" lon="10.6167454"><ele>18.0</ele><time>2026-04-29T10:20:42.93Z</time></trkpt><trkpt lat="43.6268984" lon="10.616793"><ele>18.0</ele><time>2026-04-29T10:20:44.922Z</time></trkpt><trkpt lat="43.6268376" lon="10.6168321"><ele>18.0</ele><time>2026-04-29T10:20:45.92Z</time></trkpt><trkpt lat="43.6267812" lon="10.6168973"><ele>18.0</ele><time>2026-04-29T10:20:46.929Z</time></trkpt><trkpt lat="43.6267426" lon="10.6169865"><ele>18.166666666666668</ele><time>2026-04-29T10:20:47.914Z</time></trkpt><trkpt lat="43.626724" lon="10.6170915"><ele>18.333333333333332</ele><time>2026-04-29T10:20:48.928Z</time></trkpt><trkpt lat="43.6267298" lon="10.6172089"><ele>18.5</ele><time>2026-04-29T10:20:49.92Z</time></trkpt><trkpt lat="43.6267389" lon="10.6173195"><ele>18.666666666666664</ele><time>2026-04-29T10:20:50.921Z</time></trkpt><trkpt lat="43.6267551" lon="10.6174222"><ele>18.833333333333332</ele><time>2026-04-29T10:20:51.92Z</time></trkpt><trkpt lat="43.6267569" lon="10.6175257"><ele>19.0</ele><time>2026-04-29T10:20:52.923Z</time></trkpt><trkpt lat="43.6267377" lon="10.6176282"><ele>19.0</ele><time>2026-04-29T10:20:53.917Z</time></trkpt><trkpt lat="43.6267007" lon="10.6177184"><ele>19.0</ele><time>2026-04-29T10:20:54.913Z</time></trkpt><trkpt lat="43.626665" lon="10.6178054"><ele>19.0</ele><time>2026-04-29T10:20:55.92Z</time></trkpt><trkpt lat="43.6266254" lon="10.6178895"><ele>19.0</ele><time>2026-04-29T10:20:56.931Z</time></trkpt><trkpt lat="43.6265897" lon="10.6179701"><ele>19.0</ele><time>2026-04-29T10:20:57.919Z</time></trkpt><trkpt lat="43.6265525" lon="10.6180554"><ele>19.0</ele><time>2026-04-29T10:20:58.917Z</time></trkpt><trkpt lat="43.6265145" lon="10.6181418"><ele>19.0</ele><time>2026-04-29T10:20:59.922Z</time></trkpt><trkpt lat="43.6264776" lon="10.6182271"><ele>19.0</ele><time>2026-04-29T10:21:00.92Z</time></trkpt><trkpt lat="43.6264435" lon="10.6183149"><ele>19.0</ele><time>2026-04-29T10:21:01.91Z</time></trkpt><trkpt lat="43.6264074" lon="10.6184001"><ele>19.0</ele><time>2026-04-29T10:21:02.919Z</time></trkpt><trkpt lat="43.6263717" lon="10.618485"><ele>19.0</ele><time>2026-04-29T10:21:03.918Z</time></trkpt><trkpt lat="43.6263367" lon="10.618569"><ele>19.0</ele><time>2026-04-29T10:21:04.919Z</time></trkpt><trkpt lat="43.6263053" lon="10.6186536"><ele>19.0</ele><time>2026-04-29T10:21:05.917Z</time></trkpt><trkpt lat="43.6262741" lon="10.6187373"><ele>19.0</ele><time>2026-04-29T10:21:06.926Z</time></trkpt><trkpt lat="43.6262421" lon="10.6188203"><ele>19.0</ele><time>2026-04-29T10:21:07.918Z</time></trkpt><trkpt lat="43.6262066" lon="10.6189023"><ele>19.0</ele><time>2026-04-29T10:21:08.917Z</time></trkpt><trkpt lat="43.6261704" lon="10.6189854"><ele>19.0</ele><time>2026-04-29T10:21:09.918Z</time></trkpt><trkpt lat="43.6261332" lon="10.6190704"><ele>19.0</ele><time>2026-04-29T10:21:10.918Z</time></trkpt><trkpt lat="43.6260921" lon="10.6191481"><ele>19.0</ele><time>2026-04-29T10:21:11.917Z</time></trkpt><trkpt lat="43.6260546" lon="10.6192278"><ele>19.0</ele><time>2026-04-29T10:21:12.921Z</time></trkpt><trkpt lat="43.626019" lon="10.619306"><ele>19.0</ele><time>2026-04-29T10:21:13.918Z</time></trkpt><trkpt lat="43.6259846" lon="10.6193844"><ele>18.833333333333332</ele><time>2026-04-29T10:21:14.916Z</time></trkpt><trkpt lat="43.6259517" lon="10.6194619"><ele>18.666666666666664</ele><time>2026-04-29T10:21:15.921Z</time></trkpt><trkpt lat="43.6258872" lon="10.6196131"><ele>18.5</ele><time>2026-04-29T10:21:17.92Z</time></trkpt><trkpt lat="43.625854" lon="10.6196899"><ele>18.333333333333332</ele><time>2026-04-29T10:21:18.916Z</time></trkpt><trkpt lat="43.6258221" lon="10.6197671"><ele>18.166666666666668</ele><time>2026-04-29T10:21:19.918Z</time></trkpt><trkpt lat="43.6257883" lon="10.6198455"><ele>18.0</ele><time>2026-04-29T10:21:20.916Z</time></trkpt><trkpt lat="43.625755" lon="10.6199224"><ele>18.0</ele><time>2026-04-29T10:21:21.921Z</time></trkpt><trkpt lat="43.6257163" lon="10.6199941"><ele>18.0</ele><time>2026-04-29T10:21:22.924Z</time></trkpt><trkpt lat="43.6256811" lon="10.6200693"><ele>18.0</ele><time>2026-04-29T10:21:23.931Z</time></trkpt><trkpt lat="43.625644" lon="10.6201418"><ele>18.0</ele><time>2026-04-29T10:21:24.922Z</time></trkpt><trkpt lat="43.6255797" lon="10.620291"><ele>18.0</ele><time>2026-04-29T10:21:26.939Z</time></trkpt><trkpt lat="43.6255164" lon="10.6204417"><ele>18.0</ele><time>2026-04-29T10:21:28.923Z</time></trkpt><trkpt lat="43.6254866" lon="10.620521"><ele>17.8</ele><time>2026-04-29T10:21:29.925Z</time></trkpt><trkpt lat="43.6254563" lon="10.6205973"><ele>17.6</ele><time>2026-04-29T10:21:30.916Z</time></trkpt><trkpt lat="43.6254257" lon="10.6206742"><ele>17.4</ele><time>2026-04-29T10:21:31.918Z</time></trkpt><trkpt lat="43.6253649" lon="10.6208262"><ele>17.2</ele><time>2026-04-29T10:21:33.924Z</time></trkpt><trkpt lat="43.6253076" lon="10.6209778"><ele>17.0</ele><time>2026-04-29T10:21:35.921Z</time></trkpt><trkpt lat="43.6252614" lon="10.6211315"><ele>17.5</ele><time>2026-04-29T10:21:37.923Z</time></trkpt><trkpt lat="43.6252138" lon="10.6212854"><ele>18.0</ele><time>2026-04-29T10:21:39.916Z</time></trkpt><trkpt lat="43.6251691" lon="10.6214367"><ele>18.5</ele><time>2026-04-29T10:21:41.917Z</time></trkpt><trkpt lat="43.6251226" lon="10.6215845"><ele>19.0</ele><time>2026-04-29T10:21:43.918Z</time></trkpt><trkpt lat="43.6250837" lon="10.6217312"><ele>19.0</ele><time>2026-04-29T10:21:45.919Z</time></trkpt><trkpt lat="43.6250508" lon="10.621891"><ele>19.0</ele><time>2026-04-29T10:21:47.916Z</time></trkpt><trkpt lat="43.6250186" lon="10.6220536"><ele>19.0</ele><time>2026-04-29T10:21:49.92Z</time></trkpt><trkpt lat="43.6249805" lon="10.6222131"><ele>19.0</ele><time>2026-04-29T10:21:51.922Z</time></trkpt><trkpt lat="43.6249406" lon="10.6223697"><ele>19.5</ele><time>2026-04-29T10:21:53.922Z</time></trkpt><trkpt lat="43.6249044" lon="10.6225245"><ele>20.0</ele><time>2026-04-29T10:21:55.924Z</time></trkpt><trkpt lat="43.6248687" lon="10.6226753"><ele>20.5</ele><time>2026-04-29T10:21:57.92Z</time></trkpt><trkpt lat="43.6248304" lon="10.6228219"><ele>21.0</ele><time>2026-04-29T10:21:59.918Z</time></trkpt><trkpt lat="43.6247902" lon="10.6229693"><ele>21.0</ele><time>2026-04-29T10:22:01.918Z</time></trkpt><trkpt lat="43.6247504" lon="10.6231237"><ele>21.0</ele><time>2026-04-29T10:22:03.917Z</time></trkpt><trkpt lat="43.6247145" lon="10.6232724"><ele>21.0</ele><time>2026-04-29T10:22:05.922Z</time></trkpt><trkpt lat="43.6246762" lon="10.6234261"><ele>21.0</ele><time>2026-04-29T10:22:07.918Z</time></trkpt><trkpt lat="43.6246376" lon="10.6235873"><ele>21.0</ele><time>2026-04-29T10:22:09.917Z</time></trkpt><trkpt lat="43.6245969" lon="10.6237447"><ele>21.0</ele><time>2026-04-29T10:22:11.919Z</time></trkpt><trkpt lat="43.6245656" lon="10.6239022"><ele>21.0</ele><time>2026-04-29T10:22:13.92Z</time></trkpt><trkpt lat="43.624524" lon="10.6240558"><ele>21.0</ele><time>2026-04-29T10:22:15.92Z</time></trkpt><trkpt lat="43.6244774" lon="10.6242093"><ele>21.0</ele><time>2026-04-29T10:22:17.915Z</time></trkpt><trkpt lat="43.6244348" lon="10.6243669"><ele>21.0</ele><time>2026-04-29T10:22:19.913Z</time></trkpt><trkpt lat="43.6243983" lon="10.62452"><ele>21.0</ele><time>2026-04-29T10:22:21.914Z</time></trkpt><trkpt lat="43.6243663" lon="10.624671"><ele>21.0</ele><time>2026-04-29T10:22:23.919Z</time></trkpt><trkpt lat="43.6243339" lon="10.6248155"><ele>21.0</ele><time>2026-04-29T10:22:25.921Z</time></trkpt><trkpt lat="43.6242966" lon="10.6249668"><ele>21.0</ele><time>2026-04-29T10:22:27.921Z</time></trkpt><trkpt lat="43.6242549" lon="10.6251198"><ele>21.0</ele><time>2026-04-29T10:22:29.918Z</time></trkpt><trkpt lat="43.6242177" lon="10.6252717"><ele>21.0</ele><time>2026-04-29T10:22:31.92Z</time></trkpt><trkpt lat="43.6241791" lon="10.6254214"><ele>20.75</ele><time>2026-04-29T10:22:33.911Z</time></trkpt><trkpt lat="43.6241364" lon="10.6255671"><ele>20.5</ele><time>2026-04-29T10:22:35.923Z</time></trkpt><trkpt lat="43.6240924" lon="10.6257124"><ele>20.25</ele><time>2026-04-29T10:22:37.914Z</time></trkpt><trkpt lat="43.6240492" lon="10.6258663"><ele>20.0</ele><time>2026-04-29T10:22:39.915Z</time></trkpt><trkpt lat="43.6240101" lon="10.6260259"><ele>20.0</ele><time>2026-04-29T10:22:41.918Z</time></trkpt><trkpt lat="43.6239648" lon="10.6261729"><ele>20.0</ele><time>2026-04-29T10:22:43.913Z</time></trkpt><trkpt lat="43.6239337" lon="10.6263154"><ele>20.0</ele><time>2026-04-29T10:22:45.904Z</time></trkpt><trkpt lat="43.6238934" lon="10.6264553"><ele>20.0</ele><time>2026-04-29T10:22:47.917Z</time></trkpt><trkpt lat="43.6238441" lon="10.6265857"><ele>20.0</ele><time>2026-04-29T10:22:49.909Z</time></trkpt><trkpt lat="43.6237885" lon="10.626702"><ele>20.0</ele><time>2026-04-29T10:22:51.909Z</time></trkpt><trkpt lat="43.6237097" lon="10.6268063"><ele>20.0</ele><time>2026-04-29T10:22:53.91Z</time></trkpt><trkpt lat="43.6236108" lon="10.6268719"><ele>20.0</ele><time>2026-04-29T10:22:55.914Z</time></trkpt><trkpt lat="43.6235025" lon="10.6268435"><ele>20.0</ele><time>2026-04-29T10:22:57.908Z</time></trkpt><trkpt lat="43.6234116" lon="10.6267475"><ele>20.0</ele><time>2026-04-29T10:22:59.909Z</time></trkpt><trkpt lat="43.6233215" lon="10.6266618"><ele>20.333333333333336</ele><time>2026-04-29T10:23:01.909Z</time></trkpt><trkpt lat="43.6232485" lon="10.6265873"><ele>20.666666666666668</ele><time>2026-04-29T10:23:03.908Z</time></trkpt><trkpt lat="43.6231924" lon="10.6265424"><ele>21.0</ele><time>2026-04-29T10:23:05.915Z</time></trkpt><trkpt lat="43.6231148" lon="10.6264929"><ele>21.333333333333332</ele><time>2026-04-29T10:23:08.92Z</time></trkpt><trkpt lat="43.6230581" lon="10.6264518"><ele>21.666666666666664</ele><time>2026-04-29T10:23:10.922Z</time></trkpt><trkpt lat="43.62298" lon="10.6264076"><ele>22.0</ele><time>2026-04-29T10:23:12.92Z</time></trkpt><trkpt lat="43.6228944" lon="10.6263501"><ele>21.8</ele><time>2026-04-29T10:23:14.914Z</time></trkpt><trkpt lat="43.6228098" lon="10.6262946"><ele>21.6</ele><time>2026-04-29T10:23:16.918Z</time></trkpt><trkpt lat="43.6227153" lon="10.6262467"><ele>21.400000000000002</ele><time>2026-04-29T10:23:18.912Z</time></trkpt><trkpt lat="43.6226185" lon="10.6262029"><ele>21.200000000000003</ele><time>2026-04-29T10:23:20.916Z</time></trkpt><trkpt lat="43.6225157" lon="10.6261687"><ele>21.0</ele><time>2026-04-29T10:23:22.912Z</time></trkpt><trkpt lat="43.622413" lon="10.6261281"><ele>20.6</ele><time>2026-04-29T10:23:24.913Z</time></trkpt><trkpt lat="43.6223132" lon="10.6260925"><ele>20.200000000000003</ele><time>2026-04-29T10:23:26.913Z</time></trkpt><trkpt lat="43.6222137" lon="10.6260588"><ele>19.799999999999997</ele><time>2026-04-29T10:23:28.918Z</time></trkpt><trkpt lat="43.6221093" lon="10.6260269"><ele>19.4</ele><time>2026-04-29T10:23:30.918Z</time></trkpt><trkpt lat="43.6220053" lon="10.6259862"><ele>19.0</ele><time>2026-04-29T10:23:32.922Z</time></trkpt><trkpt lat="43.6218993" lon="10.6259418"><ele>19.0</ele><time>2026-04-29T10:23:34.915Z</time></trkpt><trkpt lat="43.6217957" lon="10.6259022"><ele>19.0</ele><time>2026-04-29T10:23:36.915Z</time></trkpt><trkpt lat="43.6216853" lon="10.6258601"><ele>19.0</ele><time>2026-04-29T10:23:38.914Z</time></trkpt><trkpt lat="43.6215731" lon="10.6258195"><ele>19.0</ele><time>2026-04-29T10:23:40.915Z</time></trkpt><trkpt lat="43.6214602" lon="10.6257782"><ele>19.0</ele><time>2026-04-29T10:23:42.917Z</time></trkpt><trkpt lat="43.6213431" lon="10.6257327"><ele>19.0</ele><time>2026-04-29T10:23:44.916Z</time></trkpt><trkpt lat="43.6212268" lon="10.6256929"><ele>19.0</ele><time>2026-04-29T10:23:46.917Z</time></trkpt><trkpt lat="43.6211107" lon="10.6256477"><ele>19.0</ele><time>2026-04-29T10:23:48.916Z</time></trkpt><trkpt lat="43.6209927" lon="10.6256016"><ele>19.25</ele><time>2026-04-29T10:23:50.919Z</time></trkpt><trkpt lat="43.6208778" lon="10.6255588"><ele>19.5</ele><time>2026-04-29T10:23:52.915Z</time></trkpt><trkpt lat="43.620764" lon="10.6255207"><ele>19.75</ele><time>2026-04-29T10:23:54.914Z</time></trkpt><trkpt lat="43.6206465" lon="10.6254732"><ele>20.0</ele><time>2026-04-29T10:23:56.917Z</time></trkpt><trkpt lat="43.6205271" lon="10.6254264"><ele>20.0</ele><time>2026-04-29T10:23:58.92Z</time></trkpt><trkpt lat="43.6204105" lon="10.6253792"><ele>20.0</ele><time>2026-04-29T10:24:00.909Z</time></trkpt><trkpt lat="43.6202948" lon="10.6253404"><ele>20.0</ele><time>2026-04-29T10:24:02.915Z</time></trkpt><trkpt lat="43.6201786" lon="10.6253151"><ele>20.0</ele><time>2026-04-29T10:24:04.912Z</time></trkpt><trkpt lat="43.6200618" lon="10.6253447"><ele>20.0</ele><time>2026-04-29T10:24:06.913Z</time></trkpt><trkpt lat="43.6199644" lon="10.6254446"><ele>20.0</ele><time>2026-04-29T10:24:08.91Z</time></trkpt><trkpt lat="43.6198959" lon="10.6255901"><ele>20.0</ele><time>2026-04-29T10:24:10.914Z</time></trkpt><trkpt lat="43.6198651" lon="10.625746"><ele>20.0</ele><time>2026-04-29T10:24:12.915Z</time></trkpt><trkpt lat="43.61983" lon="10.6258903"><ele>20.0</ele><time>2026-04-29T10:24:14.915Z</time></trkpt><trkpt lat="43.619801" lon="10.6260375"><ele>20.0</ele><time>2026-04-29T10:24:16.92Z</time></trkpt><trkpt lat="43.6197693" lon="10.6261921"><ele>20.0</ele><time>2026-04-29T10:24:18.917Z</time></trkpt><trkpt lat="43.6197316" lon="10.6263539"><ele>20.0</ele><time>2026-04-29T10:24:20.923Z</time></trkpt><trkpt lat="43.6196869" lon="10.6265089"><ele>20.25</ele><time>2026-04-29T10:24:22.919Z</time></trkpt><trkpt lat="43.6196427" lon="10.626659"><ele>20.5</ele><time>2026-04-29T10:24:24.924Z</time></trkpt><trkpt lat="43.6195958" lon="10.6268062"><ele>20.75</ele><time>2026-04-29T10:24:26.933Z</time></trkpt><trkpt lat="43.6195546" lon="10.626949"><ele>21.0</ele><time>2026-04-29T10:24:28.926Z</time></trkpt><trkpt lat="43.6195244" lon="10.6270949"><ele>21.25</ele><time>2026-04-29T10:24:30.915Z</time></trkpt><trkpt lat="43.6194814" lon="10.6272421"><ele>21.5</ele><time>2026-04-29T10:24:32.919Z</time></trkpt><trkpt lat="43.6194348" lon="10.6273917"><ele>21.75</ele><time>2026-04-29T10:24:34.917Z</time></trkpt><trkpt lat="43.6193869" lon="10.6275347"><ele>22.0</ele><time>2026-04-29T10:24:36.912Z</time></trkpt><trkpt lat="43.6193434" lon="10.6276848"><ele>22.0</ele><time>2026-04-29T10:24:38.911Z</time></trkpt><trkpt lat="43.619295" lon="10.6278346"><ele>22.0</ele><time>2026-04-29T10:24:40.913Z</time></trkpt><trkpt lat="43.6192551" lon="10.6279817"><ele>22.0</ele><time>2026-04-29T10:24:42.916Z</time></trkpt><trkpt lat="43.6192096" lon="10.6281254"><ele>22.0</ele><time>2026-04-29T10:24:44.916Z</time></trkpt><trkpt lat="43.6191668" lon="10.6282725"><ele>22.0</ele><time>2026-04-29T10:24:46.929Z</time></trkpt><trkpt lat="43.6191213" lon="10.6284143"><ele>22.0</ele><time>2026-04-29T10:24:48.925Z</time></trkpt><trkpt lat="43.6190642" lon="10.6285393"><ele>22.0</ele><time>2026-04-29T10:24:50.919Z</time></trkpt><trkpt lat="43.6189946" lon="10.6286588"><ele>22.0</ele><time>2026-04-29T10:24:52.913Z</time></trkpt><trkpt lat="43.6189075" lon="10.6287527"><ele>22.0</ele><time>2026-04-29T10:24:54.908Z</time></trkpt><trkpt lat="43.6188077" lon="10.6288188"><ele>22.200000000000003</ele><time>2026-04-29T10:24:56.913Z</time></trkpt><trkpt lat="43.6187073" lon="10.628845"><ele>22.4</ele><time>2026-04-29T10:24:58.917Z</time></trkpt><trkpt lat="43.6186044" lon="10.6287796"><ele>22.6</ele><time>2026-04-29T10:25:00.904Z</time></trkpt><trkpt lat="43.6185673" lon="10.6287074"><ele>22.799999999999997</ele><time>2026-04-29T10:25:01.908Z</time></trkpt><trkpt lat="43.6185133" lon="10.6285586"><ele>23.0</ele><time>2026-04-29T10:25:03.908Z</time></trkpt><trkpt lat="43.6184559" lon="10.6284279"><ele>23.25</ele><time>2026-04-29T10:25:05.921Z</time></trkpt><trkpt lat="43.6183761" lon="10.6283155"><ele>23.5</ele><time>2026-04-29T10:25:07.927Z</time></trkpt><trkpt lat="43.6182816" lon="10.628221"><ele>23.75</ele><time>2026-04-29T10:25:09.918Z</time></trkpt><trkpt lat="43.618183" lon="10.628118"><ele>24.0</ele><time>2026-04-29T10:25:11.914Z</time></trkpt><trkpt lat="43.6180778" lon="10.628018"><ele>24.0</ele><time>2026-04-29T10:25:13.918Z</time></trkpt><trkpt lat="43.617971" lon="10.627933"><ele>24.0</ele><time>2026-04-29T10:25:15.908Z</time></trkpt><trkpt lat="43.6178642" lon="10.6278619"><ele>24.0</ele><time>2026-04-29T10:25:17.923Z</time></trkpt><trkpt lat="43.6177667" lon="10.6277872"><ele>24.0</ele><time>2026-04-29T10:25:19.925Z</time></trkpt><trkpt lat="43.6176678" lon="10.6277171"><ele>24.0</ele><time>2026-04-29T10:25:21.909Z</time></trkpt><trkpt lat="43.6175701" lon="10.6276459"><ele>24.0</ele><time>2026-04-29T10:25:23.921Z</time></trkpt><trkpt lat="43.6174736" lon="10.6275639"><ele>24.0</ele><time>2026-04-29T10:25:25.924Z</time></trkpt><trkpt lat="43.6173805" lon="10.6274801"><ele>24.0</ele><time>2026-04-29T10:25:27.939Z</time></trkpt><trkpt lat="43.6172802" lon="10.6273951"><ele>24.0</ele><time>2026-04-29T10:25:29.923Z</time></trkpt><trkpt lat="43.6171748" lon="10.6273172"><ele>24.0</ele><time>2026-04-29T10:25:31.936Z</time></trkpt><trkpt lat="43.6170679" lon="10.627236"><ele>24.0</ele><time>2026-04-29T10:25:33.922Z</time></trkpt><trkpt lat="43.6170138" lon="10.6271896"><ele>24.0</ele><time>2026-04-29T10:25:34.917Z</time></trkpt><trkpt lat="43.6169572" lon="10.6271417"><ele>24.0</ele><time>2026-04-29T10:25:35.922Z</time></trkpt><trkpt lat="43.6169002" lon="10.6270967"><ele>24.0</ele><time>2026-04-29T10:25:36.928Z</time></trkpt><trkpt lat="43.6168449" lon="10.6270469"><ele>23.999999999999996</ele><time>2026-04-29T10:25:37.926Z</time></trkpt><trkpt lat="43.6167933" lon="10.6269949"><ele>24.0</ele><time>2026-04-29T10:25:38.926Z</time></trkpt><trkpt lat="43.6167386" lon="10.6269445"><ele>24.0</ele><time>2026-04-29T10:25:39.913Z</time></trkpt><trkpt lat="43.616685" lon="10.6268899"><ele>24.0</ele><time>2026-04-29T10:25:40.908Z</time></trkpt><trkpt lat="43.6166298" lon="10.6268375"><ele>24.0</ele><time>2026-04-29T10:25:41.915Z</time></trkpt><trkpt lat="43.6165714" lon="10.6267924"><ele>23.999999999999996</ele><time>2026-04-29T10:25:42.915Z</time></trkpt><trkpt lat="43.616515" lon="10.6267436"><ele>24.0</ele><time>2026-04-29T10:25:43.918Z</time></trkpt><trkpt lat="43.6164572" lon="10.626699"><ele>24.0</ele><time>2026-04-29T10:25:44.919Z</time></trkpt><trkpt lat="43.6163975" lon="10.6266547"><ele>24.0</ele><time>2026-04-29T10:25:45.922Z</time></trkpt><trkpt lat="43.6163393" lon="10.6266113"><ele>24.0</ele><time>2026-04-29T10:25:46.924Z</time></trkpt><trkpt lat="43.6162841" lon="10.6265665"><ele>24.0</ele><time>2026-04-29T10:25:47.935Z</time></trkpt><trkpt lat="43.6161754" lon="10.6264755"><ele>24.0</ele><time>2026-04-29T10:25:49.909Z</time></trkpt><trkpt lat="43.6161194" lon="10.6264288"><ele>24.0</ele><time>2026-04-29T10:25:50.91Z</time></trkpt><trkpt lat="43.6160151" lon="10.6263367"><ele>24.0</ele><time>2026-04-29T10:25:52.932Z</time></trkpt><trkpt lat="43.6159645" lon="10.6262838"><ele>24.0</ele><time>2026-04-29T10:25:53.944Z</time></trkpt><trkpt lat="43.6158581" lon="10.6261893"><ele>24.0</ele><time>2026-04-29T10:25:55.932Z</time></trkpt><trkpt lat="43.6157555" lon="10.6261107"><ele>24.0</ele><time>2026-04-29T10:25:57.944Z</time></trkpt><trkpt lat="43.6156568" lon="10.6260519"><ele>24.0</ele><time>2026-04-29T10:25:59.923Z</time></trkpt><trkpt lat="43.6155676" lon="10.6259839"><ele>24.0</ele><time>2026-04-29T10:26:01.923Z</time></trkpt><trkpt lat="43.6154953" lon="10.6259081"><ele>24.0</ele><time>2026-04-29T10:26:03.914Z</time></trkpt><trkpt lat="43.6154204" lon="10.6258357"><ele>24.0</ele><time>2026-04-29T10:26:05.921Z</time></trkpt><trkpt lat="43.6153483" lon="10.6257691"><ele>24.0</ele><time>2026-04-29T10:26:07.932Z</time></trkpt><trkpt lat="43.6152733" lon="10.6257308"><ele>24.0</ele><time>2026-04-29T10:26:10.923Z</time></trkpt><trkpt lat="43.6152074" lon="10.6257764"><ele>24.0</ele><time>2026-04-29T10:26:13.921Z</time></trkpt><trkpt lat="43.615182" lon="10.6258906"><ele>24.0</ele><time>2026-04-29T10:26:16.928Z</time></trkpt></trkseg></trk></gpx>